[[{"header":{"parameterUnit":"m.s-1","parameterCategory":1,"la1":30.6,"la2":28.766,"lo1":-90.7593,"lo2":-88.6598,"dy":0.0162,"dx":0.0183,"nx":116,"ny":114,"refTime":"2023-07-24T06:00:00:Z","depth":0,"parameterNumber":2,"parameterNumberName":"U-component_of_WINDS"},"data":[0.0,0.0,0.0,0.0,0.0,0.0,0.0,0.0,0.0,0.0,0.0,0.0,0.0,0.0,0.0,0.0,0.0,0.0,0.0,0.0,0.0,0.0,0.0,0.0,0.0,0.0,0.0,0.0,0.0,0.0,0.0,0.0,0.0,0.0,0.0,0.0,0.0,0.0,0.0,0.0,0.0,0.0,0.0,0.0,0.0,0.0,0.0,0.0,0.0,0.0,0.0,0.0,0.0,0.0,0.0,0.0,0.0,0.0,0.0,0.0,0.0,0.0,0.0,0.0,0.0,0.0,0.0,0.0,0.0,0.0,0.0,0.0,0.0,0.0,0.0,0.0,0.0,0.0,0.0,0.0,0.0,0.0,0.0,0.0,0.0,0.0,0.0,0.0,0.0,0.0,0.0,0.0,0.0,0.0,0.0,0.0,0.0,0.0,0.0,0.0,0.0,0.0,0.0,0.0,0.0,0.0,0.0,0.0,0.0,0.0,0.0,0.0,0.0,0.0,0.0,0.0,0.0,0.0,0.0,0.0,0.0,0.0,0.0,0.0,0.0,0.0,0.0,0.0,0.0,0.0,0.0,0.0,0.0,0.0,0.0,0.0,0.0,0.0,0.0,0.0,0.0,0.0,0.0,0.0,0.0,0.0,0.0,0.0,0.0,0.0,0.0,0.0,0.0,0.0,0.0,0.0,0.0,0.0,0.0,0.0,0.0,0.0,0.0,0.0,0.0,0.0,0.0,0.0,0.0,0.0,0.0,0.0,0.0,0.0,0.0,0.0,0.0,0.0,0.0,0.0,0.0,0.0,0.0,0.0,0.0,0.0,0.0,0.0,0.0,0.0,0.0,0.0,0.0,0.0,0.0,0.0,0.0,0.0,0.0,0.0,0.0,0.0,0.0,0.0,0.0,0.0,0.0,0.0,0.0,0.0,0.0,0.0,0.0,0.0,0.0,0.0,0.0,0.0,0.0,0.0,0.0,0.0,0.0,0.0,0.0,0.0,0.0,0.0,0.0,0.0,0.0,0.0,0.0,0.0,0.0,0.0,0.0,0.0,0.0,0.0,0.0,0.0,0.0,0.0,0.0,0.0,0.0,0.0,0.0,0.0,0.0,0.0,0.0,0.0,0.0,0.0,0.0,0.0,0.0,0.0,0.0,0.0,0.0,0.0,0.0,0.0,0.0,0.0,0.0,0.0,0.0,0.0,0.0,0.0,0.0,0.0,0.0,0.0,0.0,0.0,0.0,0.0,0.0,0.0,0.0,0.0,0.0,0.0,0.0,0.0,0.0,0.0,0.0,0.0,0.0,0.0,0.0,0.0,0.0,0.0,0.0,0.0,0.0,0.0,0.0,0.0,0.0,0.0,0.0,0.0,0.0,0.0,0.0,0.0,0.0,0.0,0.0,0.0,0.0,0.0,0.0,0.0,0.0,0.0,0.0,0.0,0.0,0.0,0.0,0.0,0.0,0.0,0.0,0.0,0.0,0.0,0.0,0.0,0.0,0.0,0.0,0.0,0.0,0.0,0.0,0.0,0.0,0.0,0.0,0.0,0.0,0.0,0.0,0.0,0.0,0.0,0.0,0.0,0.0,0.0,0.0,0.0,0.0,0.0,0.0,0.0,0.0,0.0,0.0,0.0,0.0,0.0,0.0,0.0,0.0,0.0,0.0,0.0,0.0,0.0,0.0,0.0,0.0,0.0,0.0,0.0,0.0,0.0,0.0,0.0,0.0,0.0,0.0,0.0,0.0,0.0,0.0,0.0,0.0,0.0,0.0,0.0,0.0,0.0,0.0,0.0,0.0,0.0,0.0,0.0,0.0,0.0,0.0,0.0,0.0,0.0,0.0,0.0,0.0,0.0,0.0,0.0,0.0,0.0,0.0,0.0,0.0,0.0,0.0,0.0,0.0,0.0,0.0,0.0,0.0,0.0,0.0,0.0,0.0,0.0,0.0,0.0,0.0,0.0,0.0,0.0,0.0,0.0,0.0,0.0,0.0,0.0,0.0,0.0,0.0,0.0,0.0,0.0,0.0,0.0,0.0,0.0,0.0,0.0,0.0,0.0,0.0,0.0,0.0,0.0,0.0,0.0,0.0,0.0,0.0,0.0,0.0,0.0,0.0,0.0,0.0,0.0,0.0,0.0,0.0,0.0,0.0,0.0,0.0,0.0,0.0,0.0,0.0,0.0,0.0,0.0,0.0,0.0,0.0,0.0,0.0,0.0,0.0,0.0,0.0,0.0,0.0,0.0,0.0,0.0,0.0,0.0,0.0,0.0,0.0,0.0,0.0,0.0,0.0,0.0,0.0,0.0,0.0,0.0,0.0,0.0,0.0,0.0,0.0,0.0,0.0,0.0,0.0,0.0,0.0,0.0,0.0,0.0,0.0,0.0,0.0,0.0,0.0,0.0,0.0,0.0,0.0,0.0,0.0,0.0,0.0,0.0,0.0,0.0,0.0,0.0,0.0,0.0,0.0,0.0,0.0,0.0,0.0,0.0,0.0,0.0,0.0,0.0,0.0,0.0,0.0,0.0,0.0,0.0,0.0,0.0,0.0,0.0,0.0,0.0,0.0,0.0,0.0,0.0,0.0,0.0,0.0,0.0,0.0,0.0,0.0,0.0,0.0,0.0,0.0,0.0,0.0,0.0,0.0,0.0,0.0,0.0,0.0,0.0,0.0,0.0,0.0,0.0,0.0,0.0,0.0,0.0,0.0,0.0,0.0,0.0,0.0,0.0,0.0,0.0,0.0,0.0,0.0,0.0,0.0,0.0,0.0,0.0,0.0,0.0,0.0,0.0,0.0,0.0,0.0,0.0,0.0,0.0,0.0,0.0,0.0,0.0,0.0,0.0,0.0,0.0,0.0,0.0,0.0,0.0,0.0,0.0,0.0,0.0,0.0,0.0,0.0,0.0,0.0,0.0,0.0,0.0,0.0,0.0,0.0,0.0,0.0,0.0,0.0,0.0,0.0,0.0,0.0,0.0,0.0,0.0,0.0,0.0,0.0,0.0,0.0,0.0,0.0,0.0,0.0,0.0,0.0,0.0,0.0,0.0,0.0,0.0,0.0,0.0,0.0,0.0,0.0,0.0,0.0,0.0,0.0,0.0,0.0,0.0,0.0,0.0,0.0,0.0,0.0,0.0,0.0,0.0,0.0,0.0,0.0,0.0,0.0,0.0,0.0,0.0,0.0,0.0,0.0,0.0,0.0,0.0,0.0,0.0,0.0,0.0,0.0,0.0,0.0,0.0,0.0,0.0,0.0,0.0,0.0,0.0,0.0,0.0,0.0,0.0,0.0,0.0,0.0,0.0,0.0,0.0,0.0,0.0,0.0,0.0,0.0,0.0,0.0,0.0,0.0,0.0,0.0,0.0,0.0,0.0,0.0,0.0,0.0,0.0,0.0,0.0,0.0,0.0,0.0,0.0,0.0,0.0,0.0,0.0,0.0,0.0,0.0,0.0,0.0,0.0,0.0,0.0,0.0,0.0,0.0,0.0,0.0,0.0,0.0,0.0,0.0,0.0,0.0,0.0,0.0,0.0,0.0,0.0,0.0,0.0,0.0,0.0,0.0,0.0,0.0,0.0,0.0,0.0,0.0,0.0,0.0,0.0,0.0,0.0,0.0,0.0,0.0,0.0,0.0,0.0,0.0,0.0,0.0,0.0,0.0,0.0,0.0,0.0,0.0,0.0,0.0,0.0,0.0,0.0,0.0,0.0,0.0,0.0,0.0,0.0,0.0,0.0,0.0,0.0,0.0,0.0,0.0,0.0,0.0,0.0,0.0,0.0,0.0,0.0,0.0,0.0,0.0,0.0,0.0,0.0,0.0,0.0,0.0,0.0,0.0,0.0,0.0,0.0,0.0,0.0,0.0,0.0,0.0,0.0,0.0,0.0,0.0,0.0,0.0,0.0,0.0,0.0,0.0,0.0,0.0,0.0,0.0,0.0,0.0,0.0,0.0,0.0,0.0,0.0,0.0,0.0,0.0,0.0,0.0,0.0,0.0,0.0,0.0,0.0,0.0,0.0,0.0,0.0,0.0,0.0,0.0,0.0,0.0,0.0,0.0,0.0,0.0,0.0,0.0,0.0,0.0,0.0,0.0,0.0,0.0,0.0,0.0,0.0,0.0,0.0,0.0,0.0,0.0,0.0,0.0,0.0,0.0,0.0,0.0,0.0,0.0,0.0,0.0,0.0,0.0,0.0,0.0,0.0,0.0,0.0,0.0,0.0,0.0,0.0,0.0,0.0,0.0,0.0,0.0,0.0,0.0,0.0,0.0,0.0,0.0,0.0,0.0,0.0,0.0,0.0,0.0,0.0,0.0,0.0,0.0,0.0,0.0,0.0,0.0,0.0,0.0,0.0,0.0,0.0,0.0,0.0,0.0,0.0,0.0,0.0,0.0,0.0,0.0,0.0,0.0,0.0,0.0,0.0,0.0,0.0,0.0,0.0,0.0,0.0,0.0,0.0,0.0,0.0,0.0,0.0,0.0,0.0,0.0,0.0,0.0,0.0,0.0,0.0,0.0,0.0,0.0,0.0,0.0,0.0,0.0,0.0,0.0,0.0,0.0,0.0,0.0,0.0,0.0,0.0,0.0,0.0,0.0,0.0,0.0,0.0,0.0,0.0,0.0,0.0,0.0,0.0,0.0,0.0,0.0,0.0,0.0,0.0,0.0,0.0,0.0,0.0,0.0,0.0,0.0,0.0,0.0,0.0,0.0,0.0,0.0,0.0,0.0,0.0,0.0,0.0,0.0,0.0,0.0,0.0,0.0,0.0,0.0,0.0,0.0,0.0,0.0,0.0,0.0,0.0,0.0,0.0,0.0,0.0,0.0,0.0,0.0,0.0,0.0,0.0,0.0,0.0,0.0,0.0,0.0,0.0,0.0,0.0,0.0,0.0,0.0,0.0,0.0,0.0,0.0,0.0,0.0,0.0,0.0,0.0,0.0,0.0,0.0,0.0,0.0,0.0,0.0,0.0,0.0,0.0,0.0,0.0,0.0,0.0,0.0,0.0,0.0,0.0,0.0,0.0,0.0,0.0,0.0,0.0,0.0,0.0,0.0,0.0,0.0,0.0,0.0,0.0,0.0,0.0,0.0,0.0,0.0,0.0,0.0,0.0,0.0,0.0,0.0,0.0,0.0,0.0,0.0,0.0,0.0,0.0,0.0,0.0,0.0,0.0,0.0,0.0,0.0,0.0,0.0,0.0,0.0,0.0,0.0,0.0,0.0,0.0,0.0,0.0,0.0,0.0,0.0,0.0,0.0,0.0,0.0,0.0,0.0,0.0,0.0,0.0,0.0,0.0,0.0,0.0,0.0,0.0,0.0,0.0,0.0,0.0,0.0,0.0,0.0,0.0,0.0,0.0,0.0,0.0,0.0,0.0,0.0,0.0,0.0,0.0,0.0,0.0,0.0,0.0,0.0,0.0,0.0,0.0,0.0,0.0,0.0,0.0,0.0,0.0,0.0,0.0,0.0,0.0,0.0,0.0,0.0,0.0,0.0,0.0,0.0,0.0,0.0,0.0,0.0,0.0,0.0,0.0,0.0,0.0,0.0,0.0,0.0,0.0,0.0,0.0,0.0,0.0,0.0,0.0,0.0,0.0,0.0,0.0,0.0,0.0,0.0,0.0,0.0,0.0,0.0,0.0,0.0,0.0,0.0,0.0,0.0,0.0,0.0,0.0,0.0,0.0,0.0,0.0,0.0,0.0,0.0,0.0,0.0,0.0,0.0,0.0,0.0,0.0,0.0,0.0,0.0,0.0,0.0,0.0,0.0,0.0,0.0,0.0,0.0,0.0,0.0,0.0,0.0,0.0,0.0,0.0,0.0,0.0,0.0,0.0,0.0,0.0,0.0,0.0,0.0,0.0,0.0,0.0,0.0,0.0,0.0,0.0,0.0,0.0,0.0,0.0,0.0,0.0,0.0,0.0,0.0,0.0,0.0,0.0,0.0,0.0,0.0,0.0,0.0,0.0,0.0,0.0,0.0,0.0,0.0,0.0,0.0,0.0,0.0,0.0,0.0,0.0,0.0,0.0,0.0,0.0,0.0,0.0,0.0,0.0,0.0,0.0,0.0,0.0,0.0,0.0,0.0,0.0,1.6395,0.0,0.0,0.0,0.0,0.0,0.0,0.0,0.0,0.0,0.0,0.0,0.0,0.0,0.0,0.0,0.0,0.0,0.0,0.0,0.0,0.0,0.0,0.0,0.0,0.0,0.0,0.0,0.0,0.0,0.0,0.0,0.0,0.0,0.0,0.0,0.0,0.0,0.0,0.0,0.0,0.0,0.0,0.0,0.0,0.0,0.0,0.0,0.0,0.0,0.0,0.0,0.0,0.0,0.0,0.0,0.0,0.0,0.0,0.0,0.0,0.0,0.0,0.0,0.0,0.0,0.0,0.0,0.0,0.0,0.0,0.0,0.0,0.0,0.0,0.0,0.0,0.0,0.0,0.0,0.0,0.0,0.0,0.0,0.0,0.0,0.0,0.0,0.0,0.0,0.0,0.0,0.0,0.0,0.0,0.0,0.0,0.0,0.0,0.0,0.0,0.0,0.0,0.0,0.0,0.0,0.0,0.0,0.0,0.0,0.0,0.0,0.0,0.0,0.0,0.0,0.0,1.4175,0.0,0.0,0.0,0.0,0.0,0.0,0.0,0.0,0.0,0.0,0.0,0.0,0.0,0.0,0.0,0.0,0.0,0.0,0.0,0.0,0.0,0.0,0.0,0.0,0.0,0.0,0.0,0.0,0.0,0.0,0.0,0.0,0.0,0.0,0.0,0.0,0.0,0.0,0.0,0.0,0.0,0.0,0.0,0.0,0.0,0.0,0.0,0.0,0.0,0.0,0.0,0.0,0.0,0.0,0.0,0.0,0.0,0.0,0.0,0.0,0.0,0.0,0.0,0.0,0.0,0.0,0.0,0.0,0.0,0.0,0.0,0.0,0.0,0.0,0.0,0.0,0.0,0.0,0.0,0.0,0.0,0.0,0.0,0.0,0.0,0.0,0.0,0.0,0.0,0.0,0.0,0.0,0.0,0.0,0.0,0.0,0.0,0.0,0.0,0.0,0.0,0.0,0.0,0.0,0.0,0.0,0.0,0.0,1.5468,1.3779,1.3779,1.3779,1.3603,1.3352,1.3814,1.2785,1.085,1.2285,0.0,0.0,0.0,0.0,0.0,0.0,0.0,0.0,0.0,0.0,0.0,0.0,0.0,0.0,0.0,0.0,0.0,0.0,0.0,0.0,0.0,0.0,0.0,0.0,0.0,0.0,0.0,0.0,0.0,0.0,0.0,0.0,0.0,0.0,0.0,0.0,0.0,0.0,1.3709,1.4873,1.5973,1.7006,0.0,0.0,0.0,0.0,0.0,0.0,0.0,0.0,0.0,0.0,0.0,0.0,0.0,0.0,0.0,0.0,0.0,0.0,0.0,0.0,0.0,0.0,0.0,0.0,0.0,0.0,0.0,0.0,0.0,0.0,0.0,0.0,0.0,0.0,0.0,0.0,0.0,0.0,0.0,0.0,0.0,0.0,0.0,0.0,0.9919,1.3032,0.0,0.0,0.0,0.0,0.0,0.0,0.0,0.0,0.0,0.0,0.0,0.0,0.0,1.3294,1.3382,1.3382,1.4277,1.5979,1.6898,1.7334,1.7334,1.7334,1.6514,1.5146,1.6735,0.0,1.2559,1.2793,0.0,0.0,0.0,0.0,0.0,0.0,0.0,0.0,0.0,0.0,0.0,0.0,0.0,0.0,0.0,0.0,0.0,0.0,0.0,0.0,0.0,0.0,0.0,0.0,0.0,0.0,0.0,0.0,0.0,0.0,0.0,0.0,0.0,0.0,0.0,0.0,1.4092,1.4392,1.4538,1.5514,1.624,1.6708,1.7167,1.8052,1.9204,1.9504,0.0,0.0,0.0,0.0,0.0,0.0,0.0,0.0,0.0,0.0,0.0,0.0,0.0,0.0,0.0,0.0,0.0,0.0,0.0,0.0,0.0,0.0,0.0,0.0,0.0,0.0,0.0,0.0,0.0,0.0,0.0,0.0,0.0,0.0,0.0,0.0,0.0,0.0,0.0,1.0445,0.9929,1.2555,1.408,1.5344,0.0,0.0,0.0,0.0,0.0,0.0,0.0,0.0,0.0,1.2968,1.3809,1.4775,1.5762,1.5762,1.6133,1.6894,1.8623,1.8936,1.8008,1.8008,1.7598,1.6914,1.7686,1.7158,1.5615,1.3672,1.2881,1.2881,0.0,0.0,0.0,0.0,1.5262,1.4281,0.0,0.0,0.0,0.0,0.0,0.0,0.0,0.0,0.0,0.0,0.0,0.0,0.0,0.0,0.0,1.1017,0.0,0.0,0.0,0.0,0.0,0.0,0.0,0.0,0.0,0.0,0.0,0.0,1.5277,1.5993,1.5727,1.6633,1.7175,1.7441,1.7912,1.8447,1.905,1.9635,1.9665,0.0,0.0,0.0,0.0,0.0,0.0,0.0,0.0,0.0,0.0,0.0,0.0,0.0,0.0,0.0,0.0,0.0,0.0,0.0,0.0,0.0,0.0,0.0,0.0,0.0,0.0,0.0,0.0,0.0,0.0,0.0,0.0,0.0,0.0,0.0,0.0,0.0,0.0,1.1932,1.1896,1.2795,1.4488,1.5845,0.0,0.0,0.0,0.0,0.0,0.0,1.3506,1.3955,1.4394,1.4834,1.6074,1.7353,1.8652,1.8662,1.8447,1.8027,1.9307,1.9238,1.8008,1.8008,1.8008,1.8008,1.8008,1.8008,1.7812,1.5244,1.3926,1.3535,1.3535,1.3535,1.3535,1.3535,1.2705,1.1777,0.0,0.0,0.0,0.0,0.0,0.0,0.0,0.0,0.0,0.0,0.0,0.0,0.0,0.0,1.1075,1.3492,1.2368,1.2156,0.0,0.0,0.0,0.0,0.0,0.0,0.0,0.0,0.0,1.3505,1.5747,1.6835,1.6844,1.7966,1.9001,1.9938,2.0223,2.0471,2.0625,1.9726,1.9623,2.0063,0.0,0.0,0.0,0.0,0.0,0.0,0.0,0.0,0.0,0.0,0.0,0.0,0.0,0.0,0.0,0.0,0.0,0.0,0.0,0.0,0.0,0.0,0.0,0.0,0.0,0.0,0.0,0.0,0.0,0.0,0.0,0.0,0.0,0.0,0.0,0.0,0.0,0.0,0.0,1.318,1.3008,0.0,0.0,0.0,0.0,1.3228,1.3017,1.3584,1.5195,1.6855,1.8496,2.0127,2.0264,2.0352,2.0439,2.0439,1.9619,1.8008,1.8096,1.8086,1.8008,1.8008,1.8008,1.8008,1.8008,1.8008,1.7998,1.7822,1.6777,1.5283,1.5283,1.5283,1.5283,1.5283,1.5225,1.5166,0.0,0.0,0.0,0.0,0.0,0.0,0.0,0.0,0.0,0.0,0.0,0.0,0.0,1.1622,1.2142,1.3041,1.408,1.4234,1.3195,0.0,0.0,0.0,0.0,0.0,0.0,0.0,1.5704,1.6466,1.8313,1.9413,1.9791,2.0003,2.0256,2.0619,2.0852,2.1311,2.1844,2.1145,2.0476,1.9888,1.9572,1.9434,0.0,0.0,0.0,0.0,0.0,0.0,0.0,0.0,0.0,0.0,0.0,0.0,0.0,0.0,0.0,0.0,0.0,0.0,0.0,0.0,0.0,0.0,0.0,0.0,0.0,0.0,0.0,0.0,0.0,0.0,0.0,0.0,0.0,0.0,0.0,0.0,0.0,1.6198,1.4228,0.0,1.5574,1.5409,1.5505,1.6103,1.7207,1.8096,1.8691,1.6657,1.5777,1.6421,1.6437,1.773,2.0566,2.0566,2.0254,1.9648,1.9648,1.9648,1.9619,1.8516,1.8613,1.9648,1.9648,1.9648,1.957,1.8467,1.7646,1.708,1.708,1.708,1.708,1.708,1.708,1.708,0.0,0.0,0.0,0.0,0.0,0.0,0.0,0.0,0.0,0.0,0.0,1.0179,1.1271,1.193,1.2738,1.3873,1.4739,1.4874,1.4047,0.0,0.0,0.0,0.0,0.0,0.0,1.6183,1.7477,1.8615,2.0441,2.1421,2.1606,2.1404,2.1299,2.1273,2.1215,2.1702,2.2567,2.2391,2.1479,2.0174,1.9869,1.9964,2.0139,0.0,0.0,0.0,0.0,0.0,0.0,0.0,0.0,0.0,0.0,0.0,0.0,0.0,0.0,0.0,0.0,0.0,0.0,0.0,0.0,0.0,0.0,0.0,0.0,0.0,0.0,0.0,0.0,0.0,0.0,0.0,0.0,0.0,0.0,0.0,1.801,1.8271,1.7139,1.6221,1.5889,1.7073,1.8165,1.886,1.9922,2.0001,1.8461,1.5628,1.4088,1.4088,1.4088,1.547,1.8381,1.8381,1.8381,1.8381,1.8381,1.8381,1.8346,1.7171,1.8106,2.0566,2.0566,2.0244,1.9658,1.9102,1.8867,1.8867,1.8867,1.7713,1.6228,1.751,1.8008,1.8008,0.0,0.0,0.0,0.0,0.0,0.0,0.0,0.0,0.0,0.0,0.8929,0.9567,1.1218,1.1445,1.2805,1.6157,1.4176,1.3791,1.6285,1.4099,0.0,0.0,0.0,0.0,1.4775,1.7748,1.9464,1.9711,2.1943,2.2716,2.207,2.2104,2.2114,2.2023,2.149,2.1789,2.2754,2.3271,2.2557,2.1097,2.1199,2.0891,2.0265,0.0,0.0,0.0,0.0,0.0,0.0,0.0,0.0,0.0,0.0,0.0,0.0,0.0,0.0,0.0,0.0,0.0,0.0,0.0,0.0,0.0,0.0,0.0,0.0,0.0,0.0,0.0,0.0,0.0,0.0,0.0,0.0,0.0,1.9941,2.0596,2.0156,1.9062,2.1426,2.1484,1.7256,1.9102,2.0566,2.0566,2.0566,1.87,1.4334,1.4088,1.4088,1.4088,1.4088,1.4173,1.4334,1.4173,1.4088,1.4088,1.4088,1.4088,1.4088,1.4088,1.6437,2.0401,2.0401,1.9545,1.8223,1.9883,2.0566,2.0566,2.0479,1.7225,1.3001,1.6727,1.8057,1.8008,0.0,0.0,0.0,0.0,0.0,0.0,0.0,0.0,0.0,0.0,0.9356,1.0133,1.1291,1.2355,1.3652,1.5278,1.4142,1.3909,1.525,0.0,0.0,0.0,0.0,0.0,1.8117,1.9479,2.079,2.2055,2.329,2.3787,2.3584,2.3363,2.3243,2.3199,2.2576,2.2573,2.3069,2.3223,2.3247,2.3117,2.2413,2.2043,2.1683,0.0,0.0,0.0,0.0,0.0,0.0,0.0,0.0,0.0,0.0,0.0,0.0,0.0,0.0,0.0,0.0,0.0,0.0,0.0,0.0,0.0,0.0,0.0,0.0,0.0,0.0,0.0,0.0,0.0,0.0,0.0,0.0,2.081,2.2236,2.1357,2.0449,2.0146,2.1904,2.2187,1.9746,2.0156,2.0566,2.0566,2.0566,1.87,1.4334,1.4088,1.4088,1.4088,1.4088,1.5636,1.878,1.5711,1.4088,1.4088,1.4088,1.4088,1.4088,1.4088,1.4741,1.5876,1.5876,1.7422,1.9893,2.0371,2.0566,2.0323,1.7082,1.6918,1.8443,1.9468,1.9082,1.8008,0.0,0.0,0.0,0.0,0.0,0.0,0.0,0.0,0.0,0.0,0.9317,1.0073,1.0289,1.1679,1.2825,1.3411,1.3157,1.3196,1.3685,0.0,0.0,0.0,0.0,1.742,1.9291,2.0792,2.2242,2.3637,2.4008,2.4247,2.4321,2.3899,2.3692,2.3671,2.2996,2.2822,2.3014,2.334,2.3667,2.397,2.4058,2.3842,2.3233,2.1143,2.0295,2.0118,1.9223,1.907,1.9232,1.8596,0.0,0.0,0.0,0.0,0.0,0.0,0.0,0.0,0.0,0.0,0.0,0.0,0.0,0.0,0.0,0.0,0.0,0.0,0.0,0.0,0.0,0.0,0.0,0.0,1.9425,2.2187,2.2568,2.1641,2.1006,2.126,2.1748,2.1953,2.167,2.0986,2.0566,2.0566,1.8948,1.6764,1.425,1.4088,1.4088,1.4088,1.5876,1.7163,1.7891,1.5835,1.4569,1.4095,1.4583,1.5936,1.779,1.5219,1.4088,1.4088,1.4088,1.6601,2.0566,2.0566,2.0566,0.0,0.0,0.0,0.0,0.0,1.8867,1.8008,0.0,0.0,0.0,0.0,0.0,0.0,0.0,0.0,0.0,0.0,0.0,0.952,0.8654,0.9955,1.0992,1.1263,1.1598,1.1853,0.0,0.0,0.0,1.3407,1.698,1.9101,1.9359,2.1753,2.3419,2.4225,2.4136,2.4136,2.4225,2.3826,2.3631,2.3628,2.2972,2.2695,2.2747,2.3552,2.3846,2.391,2.5649,2.5725,2.461,2.3026,2.2281,2.183,1.99,1.978,2.0278,1.8695,0.0,0.0,0.0,0.0,0.0,0.0,0.0,0.0,0.0,0.0,0.0,0.0,0.0,0.0,0.0,0.0,0.0,0.0,0.0,0.0,0.0,0.0,0.0,0.0,1.8564,2.0859,2.1709,2.1582,2.1592,2.2129,2.123,2.1162,2.2695,2.1465,2.0566,2.0566,1.6519,1.4088,1.4088,0.0,0.0,0.0,0.0,1.8057,1.4368,1.5177,1.5177,1.4295,1.5337,1.8118,2.2073,1.6566,1.4088,1.4088,1.4088,1.6273,1.9835,1.9835,2.0052,2.0127,1.8603,1.8008,1.8008,1.8008,1.8008,1.8008,0.0,0.0,0.0,0.0,0.0,0.0,0.0,0.0,0.0,0.8488,0.8688,0.8457,0.7171,0.8216,0.9588,1.1005,1.045,1.0394,0.0,0.0,1.3563,1.5575,1.7307,1.9084,2.0912,2.2415,2.2972,2.2575,2.3115,2.3115,2.2554,2.3066,2.33,2.3277,2.2873,2.2695,2.2747,2.3552,2.3544,2.3163,2.5641,2.5823,2.4577,2.4006,2.2772,2.1243,2.0786,2.0668,2.0713,2.0456,2.0514,2.0497,1.9565,0.0,0.0,0.0,0.0,0.0,0.0,0.0,0.0,0.0,0.0,0.0,0.0,0.0,0.0,0.0,0.0,0.0,0.0,0.0,0.0,1.9899,2.0127,2.0791,2.1416,2.1367,2.1348,2.1562,2.0977,2.0693,2.1025,2.0762,2.0566,2.0566,1.6519,1.4088,1.4088,1.4088,1.4088,1.4088,1.4901,1.5375,1.5484,1.4783,1.4783,1.5498,0.0,0.0,1.7159,1.5046,1.4088,1.4088,1.4088,1.4573,1.5387,1.5387,1.6563,1.8467,1.8135,1.8008,1.8008,1.8008,1.8008,1.8008,0.0,0.0,0.0,0.0,0.0,0.0,0.0,0.0,0.0,0.0,0.8981,0.8623,0.6701,0.7579,0.8712,0.975,0.9441,0.0,0.0,1.2389,1.3738,1.5471,1.765,1.9332,2.0467,2.1558,2.1993,2.1803,2.2212,2.2112,2.1572,2.2488,2.2799,2.264,2.2479,2.2521,2.2782,2.3784,2.3973,2.3762,2.5669,2.5705,2.4585,2.4756,2.3725,2.2121,2.1905,2.158,2.1208,2.1246,2.0982,2.0604,2.0077,1.9345,1.8431,0.0,0.0,0.0,0.0,0.0,0.0,0.0,0.0,0.0,0.0,0.0,0.0,0.0,0.0,1.6484,0.0,0.0,2.0313,2.0581,2.0566,2.0664,2.0947,2.0937,2.1084,2.1592,2.1006,2.0566,2.0566,2.0566,1.9668,1.7488,1.5304,1.4088,1.4088,1.4088,1.4088,1.4088,1.4656,1.5237,1.5818,1.5251,1.5251,1.5832,1.5832,1.5832,1.5812,1.5224,1.4957,1.4923,1.4342,1.4088,1.4088,1.4088,1.6118,1.9044,1.6234,1.5155,1.5155,1.5155,1.6367,1.8008,0.0,0.0,0.0,0.0,0.0,0.0,0.0,0.0,0.0,0.0,0.0,0.8664,0.6917,0.7451,0.8143,0.0,0.0,0.0,0.0,1.2722,1.382,1.4866,1.7694,1.931,1.9437,2.0463,2.0998,2.102,2.1139,2.0928,2.0488,2.1404,2.1687,2.1416,2.1636,2.1905,2.2303,2.3661,2.4104,2.4059,2.5384,2.5179,2.4143,2.4659,2.4048,2.2799,2.2389,2.169,2.0945,2.1029,2.057,1.9996,1.9939,1.9835,1.9326,1.7273,1.7324,0.0,0.0,0.0,0.0,0.0,0.0,0.0,0.0,0.0,1.7485,1.7733,1.7552,1.7225,1.7017,1.7228,1.8155,2.0276,2.0566,2.0566,2.0566,2.0566,2.083,2.1543,2.1006,2.0566,2.0566,1.9835,1.7891,1.4328,1.4901,1.4977,1.4173,1.4088,1.4088,1.4088,1.5217,1.5832,1.5832,1.5832,1.5832,1.5832,1.5832,1.5832,1.5832,1.5832,1.5832,1.5765,1.4596,1.4088,1.4173,1.4977,1.6927,1.8864,1.4171,1.2305,1.2305,1.2305,1.4227,1.6862,0.0,0.0,0.0,0.0,0.0,0.0,0.0,0.0,0.0,0.0,0.0,0.0,0.0,0.0,0.0,0.0,0.0,0.0,1.1325,1.1487,1.2623,1.5119,1.6951,1.8227,1.8892,2.028,2.0447,1.9359,1.9546,1.9275,1.8596,1.8905,1.9023,1.9026,1.9981,2.0424,2.0602,2.2463,2.2752,2.2101,2.4133,2.3979,2.2547,2.2615,2.227,2.1596,2.0842,1.9711,1.8672,1.9263,1.9039,1.8755,2.0019,2.0323,1.991,1.8367,0.0,1.6844,1.6588,1.7054,1.7522,1.716,1.6834,1.6772,0.0,0.0,1.873,1.8614,1.8386,1.8301,1.8814,1.8339,1.8547,2.033,2.0566,2.0566,2.0566,2.0566,2.0605,2.0703,2.0625,2.0566,2.0566,1.7082,1.4657,1.4173,1.7649,1.8212,1.4334,1.4088,1.4088,1.4088,1.5217,1.5832,1.5832,1.5832,1.5832,1.5832,1.5832,1.5832,1.5832,1.5832,1.5832,1.5765,1.4596,1.4088,1.4412,1.8301,1.7891,1.4698,1.2988,1.2305,1.2305,1.2305,1.2592,1.2945,0.0,0.0,0.0,0.0,0.0,0.0,0.0,0.0,0.0,0.0,0.0,0.0,0.0,0.0,0.0,0.0,0.0,0.0,1.0849,1.116,1.2266,1.4386,1.5778,1.6822,1.7435,1.797,1.8244,1.8234,1.8386,1.8,1.7158,1.7811,1.7849,1.7427,1.8361,1.9141,1.9768,2.1388,2.1995,2.1991,2.3112,2.2892,2.1828,2.1187,2.0164,1.9108,1.9504,1.8724,0.0,0.0,1.7749,1.7586,1.7946,1.8293,1.8301,1.6654,1.706,0.0,1.9005,1.8578,0.0,0.0,1.9359,1.9516,1.8808,1.929,1.9803,1.9609,1.9196,1.9182,2.0285,1.9961,1.9727,0.0,2.0566,2.0566,2.0566,2.0566,2.0566,2.0566,1.8381,1.6846,1.6846,1.5144,1.4369,1.505,1.6137,1.6293,1.5154,1.5097,1.5097,1.5097,1.5578,1.5832,1.5832,1.5832,1.5832,1.5832,1.5832,1.5832,1.5832,1.5832,1.5458,1.479,1.4295,1.4088,1.4412,1.878,1.9511,1.7831,1.7347,1.649,1.5367,1.3091,1.2305,1.2305,0.0,0.0,0.0,0.0,0.0,0.0,0.0,0.0,0.0,0.0,0.0,0.0,0.0,0.0,0.0,0.0,0.0,0.0,0.0,1.0527,1.1333,1.3045,1.4261,1.5194,1.5867,1.6352,1.6808,1.727,1.7381,1.6981,1.6104,1.67,1.6639,1.6073,1.6824,1.7558,1.8369,1.983,2.0707,2.1194,2.1756,2.1609,2.0936,1.9647,1.8254,1.7116,1.8041,1.7331,0.0,0.0,1.6331,1.6206,1.6248,1.6788,1.7191,1.5839,1.704,1.8996,1.964,0.0,0.0,2.0001,2.1108,2.1619,2.0318,2.0331,2.0649,2.0729,2.0165,1.9994,2.0989,2.0873,2.0566,2.0566,1.959,1.8789,1.8789,1.8789,1.8698,1.8335,1.5226,1.3701,1.5056,1.4545,1.4436,1.5284,1.4863,1.4796,1.5317,1.5351,1.5498,1.5818,1.5832,1.5832,1.5832,1.5832,1.5832,1.5832,1.5832,1.5832,1.5832,1.5832,1.5371,1.4569,1.4569,1.4382,1.4328,1.7496,1.9511,2.0566,2.0566,1.9805,1.8347,1.5602,1.3831,1.2746,0.0,0.0,0.0,0.0,0.0,0.0,0.0,0.0,0.0,0.0,0.0,0.0,0.0,0.0,0.0,0.0,0.0,0.0,0.0,0.9084,0.9337,1.1015,1.2234,1.3348,1.4347,1.6264,1.7019,1.6439,1.6505,1.6218,1.5608,1.512,1.4893,1.485,1.5334,1.5592,1.5716,1.7544,1.8466,1.8803,1.9793,2.0017,1.9571,1.7701,1.6666,1.6237,1.629,0.0,0.0,0.0,1.4676,1.4416,1.5692,1.6779,0.0,1.7142,1.7682,0.0,0.0,0.0,2.0886,2.0343,2.09,2.1761,2.2408,2.1774,2.1198,2.2019,2.1324,2.0605,2.0615,2.0624,2.0566,2.0566,1.7082,1.4334,1.4334,1.4334,1.3892,1.2709,1.1492,1.2595,0.0,1.5584,1.4102,1.4135,1.5157,1.5297,1.4202,1.4142,1.4663,1.5792,1.5832,1.5832,1.5832,1.5832,1.5832,1.5832,1.5832,1.5832,1.5832,1.5832,1.5812,1.5772,1.5772,1.513,1.4088,1.425,1.6764,2.0566,2.0566,2.0537,2.0488,2.0401,1.7662,1.3868,0.0,0.0,0.0,0.0,0.0,0.0,0.0,0.0,0.0,0.0,0.0,0.0,0.0,0.0,0.0,0.0,0.0,0.0,0.0,0.8738,0.8982,0.9466,1.0748,1.1721,1.2307,1.384,1.4725,1.4858,1.523,1.5116,1.4546,1.4642,1.4078,1.3116,1.4349,1.4752,1.4583,1.5531,1.6837,1.819,1.7225,1.7192,1.7493,1.5477,1.4467,1.4157,0.0,0.0,0.0,0.0,1.3842,1.3916,1.3598,0.0,0.0,1.6452,1.6769,1.7129,0.0,0.0,2.1008,2.2326,2.3467,2.4026,2.3236,2.3145,2.2821,2.1415,2.0867,2.0391,1.9824,2.0185,2.0195,1.9053,1.6158,1.4088,1.4088,1.4088,1.3641,1.2445,1.1951,0.0,0.0,0.0,0.0,1.4088,1.4449,1.4836,1.5224,1.5244,1.5424,1.5818,1.5832,1.5832,1.5832,1.5832,1.5832,1.5832,1.5832,1.5832,1.5832,1.5832,1.5832,1.5832,1.5832,1.5605,1.5184,1.4409,1.4985,1.6281,1.6281,1.6281,1.6281,1.6281,1.5387,1.4028,0.0,0.0,0.0,0.0,0.0,0.0,0.0,0.0,0.0,0.0,0.0,0.0,0.0,0.0,0.0,0.0,0.0,0.0,0.0,0.0,0.8174,0.8158,0.9254,1.0147,1.069,1.2036,1.2935,1.3279,1.384,1.3827,1.321,1.3374,1.2866,1.1926,1.2723,1.2974,1.2718,1.3065,1.4265,1.5875,1.4893,1.4837,1.5206,1.3871,1.3285,0.0,0.0,0.0,0.0,0.0,0.0,0.0,1.312,1.3662,1.4863,1.6458,1.7021,1.7779,2.0584,2.1389,2.1957,2.4269,2.4804,2.4776,2.47,2.4029,2.3175,2.2213,2.1232,2.04,1.9844,1.9697,1.9082,1.7363,1.5375,1.4088,1.4088,1.4088,1.3801,1.3033,1.2559,1.1774,0.0,0.0,0.0,1.3393,1.3848,1.4596,1.5765,1.5832,1.5832,1.5832,1.3974,1.3,1.3,1.4854,1.5832,1.5832,1.5832,1.5832,1.5832,1.5832,1.5832,1.5832,1.5832,1.5832,1.5738,1.4569,1.4088,1.4088,1.4088,1.4088,1.4135,1.4556,1.4449,1.4088,0.0,0.0,0.0,0.0,0.0,0.0,0.0,0.0,0.0,0.0,0.0,0.0,0.0,0.0,0.0,0.0,0.0,0.0,0.0,0.0,0.0,0.7161,0.7853,0.8631,0.9514,1.099,1.1778,1.1768,1.2382,1.2367,1.1765,1.1492,1.131,1.1189,1.0694,1.0406,1.0379,1.0346,1.1013,1.2183,1.278,1.2964,1.284,1.2745,0.0,0.0,0.0,0.0,0.0,0.0,0.0,0.0,0.0,1.5186,1.6381,1.7125,1.838,1.9806,2.0978,2.216,2.3535,2.5828,2.49,2.4089,2.6488,2.4389,2.2329,2.3939,2.2203,2.0381,0.0,0.0,1.7178,1.543,1.4363,1.3821,1.3821,1.4028,1.4155,0.0,0.0,0.0,0.0,0.0,0.0,1.1866,0.0,1.4327,1.5765,1.554,1.5439,1.5439,1.0574,0.8038,0.8038,1.3199,1.5832,1.5832,1.5832,1.5832,1.5832,1.5832,1.5832,1.5832,1.5832,1.5832,1.5745,1.4359,1.3913,1.4175,1.4175,1.4175,1.4315,1.5418,1.509,1.4088,0.0,0.0,0.0,0.0,0.0,0.0,0.0,0.0,0.0,0.0,0.0,0.0,0.0,0.0,0.0,0.0,0.0,0.0,0.0,0.0,0.0,0.0,0.0,0.0,0.0,0.0,0.0,0.0,0.0,1.1955,1.1568,1.1844,1.1288,1.0149,1.084,1.0773,1.0102,1.0294,1.1273,1.2558,0.0,1.1168,1.2085,0.0,0.0,0.0,0.0,0.0,0.0,0.0,0.0,0.0,0.0,1.5336,1.5897,1.7555,1.838,1.919,2.1176,2.2391,2.3394,2.4849,2.5138,2.4807,2.4059,2.2698,2.1525,2.106,1.9231,1.79,0.0,0.0,0.0,1.1875,1.0769,0.0,1.0154,1.3173,0.0,1.4195,0.0,1.3001,0.8045,0.7723,0.0,0.0,0.8995,1.0905,1.5569,1.2129,0.9989,0.9989,0.8722,0.8038,0.8038,1.3199,1.5832,1.5832,1.5832,1.5832,1.5832,1.5832,1.5832,1.5832,1.5832,1.5832,1.5514,1.1311,1.1884,1.5384,1.5384,1.5384,1.5424,1.5718,1.509,1.4088,0.0,0.0,0.0,0.0,0.0,0.0,0.0,0.0,0.0,0.0,0.0,0.0,0.0,0.0,0.0,0.0,0.0,0.0,0.0,0.0,0.0,0.0,0.0,0.0,0.0,0.0,0.0,0.0,0.0,0.0,0.0,1.0172,0.981,0.8954,0.9644,0.9658,0.9165,0.0,0.0,0.0,0.0,0.0,0.0,0.0,0.0,0.0,0.0,0.0,0.0,0.0,0.0,1.5786,1.5944,1.6134,1.6678,1.8425,0.0,2.0288,2.2252,2.3114,2.3816,2.5203,2.4881,2.3893,2.2766,2.1343,2.0063,1.9167,1.7783,0.0,0.0,0.0,0.0,0.0,0.0,0.0,1.1122,1.3841,1.5585,0.0,1.5431,0.0,0.8528,0.8038,0.8038,0.0,0.7726,0.8895,1.22,0.96,0.8038,0.8038,0.8038,0.8038,0.8038,1.0867,1.242,1.242,1.242,1.242,1.242,1.242,1.242,1.242,0.0,1.242,1.2129,0.9209,0.9698,1.242,1.242,1.242,1.242,1.242,1.2,1.1413,0.0,0.0,0.0,0.0,0.0,0.0,0.0,0.0,0.0,0.0,0.0,0.0,0.0,0.0,0.0,0.0,0.0,0.0,0.0,0.0,0.0,0.0,0.0,0.0,0.0,0.0,0.0,0.0,0.0,0.0,0.0,0.0,0.0,0.0,0.0,0.0,0.0,0.0,0.0,0.0,0.0,0.0,0.0,0.0,0.0,0.0,0.0,0.0,0.0,0.0,1.5458,1.6405,1.6741,1.7288,1.8136,1.9449,2.0698,2.1908,2.3307,2.3785,2.4242,2.571,2.4179,2.23,2.1828,1.9961,1.8144,1.7607,0.0,1.5612,1.3565,1.1788,1.1514,1.4128,0.0,1.3908,1.4068,1.509,1.5832,1.5832,1.5832,1.3974,0.9505,0.8432,0.8038,0.8038,0.8038,0.8038,0.8038,0.8038,0.8038,0.8038,0.8038,0.8038,0.8038,0.8038,0.8038,0.8038,0.8038,0.8038,0.8038,0.8038,0.8038,0.8038,0.8038,0.8038,0.8038,0.8038,0.8038,0.8038,0.8038,0.8038,0.8038,0.8038,0.8038,0.7953,0.0,0.0,0.0,0.0,0.0,0.0,0.0,0.0,0.0,0.0,0.0,0.0,0.0,0.0,0.0,0.0,0.0,0.0,0.0,0.0,0.0,0.0,0.0,0.0,0.0,0.0,0.0,0.0,0.0,0.0,0.0,0.0,0.0,0.0,0.0,0.0,0.0,0.0,0.0,0.0,0.0,0.0,0.0,0.0,0.0,0.0,0.0,0.0,0.0,0.0,1.6576,1.821,1.8115,1.8393,1.8835,1.9607,2.0503,2.1322,2.163,2.2423,2.3298,2.3627,2.2804,2.1546,1.9644,1.7819,0.0,0.0,0.0,1.3552,1.3239,1.2778,0.0,1.0242,0.0,0.0,0.0,0.0,1.5832,0.0,0.0,0.0,0.0,0.0,0.0,0.0,0.0,0.8038,0.8038,0.8038,0.8038,0.8038,0.8038,0.8038,0.8038,0.8038,0.8038,0.8038,0.8038,0.8038,0.8038,0.8038,0.8038,0.8038,0.8038,0.0,0.8038,0.8038,0.8038,0.8038,0.8038,0.8038,0.8038,0.8038,0.8038,0.7953,0.0,0.0,0.0,0.0,0.0,0.0,0.0,0.0,0.0,0.0,0.8599,0.0,0.0,0.0,0.0,0.0,0.0,0.0,0.0,0.0,0.0,0.0,0.0,0.0,0.0,0.0,0.0,0.0,0.0,0.0,0.0,0.0,0.0,0.0,0.0,0.0,0.0,0.0,0.0,0.0,0.0,0.0,0.0,0.0,0.0,0.0,0.0,0.0,0.0,0.0,1.6029,1.7989,1.8421,1.8646,1.8815,1.9263,1.9801,2.0226,2.0141,2.0647,2.1221,2.1221,2.0759,1.9655,1.7506,0.0,0.0,0.0,0.0,1.1925,1.2994,0.0,0.0,0.0,0.0,0.0,0.0,0.0,0.0,0.0,0.0,0.0,0.0,0.0,0.0,0.0,0.0,0.8038,0.8038,0.8038,0.8038,0.8038,0.8038,0.8038,0.8038,0.8038,0.8038,0.8038,0.8038,0.8038,0.8038,0.8038,0.8038,0.8038,0.8038,0.8038,0.8233,1.0965,1.0476,0.8038,0.8038,0.8038,0.8038,0.8038,0.8038,0.7997,0.0,0.0,0.0,0.0,0.0,0.0,0.0,0.9314,0.8898,0.8464,0.8351,0.8229,0.8063,0.8227,0.0,0.0,0.0,0.0,0.0,0.0,0.0,0.0,0.0,0.0,0.0,0.0,0.0,0.0,0.0,0.0,0.0,0.0,0.0,0.0,0.0,0.0,0.0,0.0,0.0,0.0,0.0,0.0,0.0,0.0,0.0,0.0,0.0,0.0,0.0,0.0,1.4922,1.6527,1.7754,1.826,1.8469,1.861,1.9228,1.9678,1.9264,1.9546,1.9852,1.9579,1.9025,1.8,1.5982,1.5346,0.0,0.0,1.0874,1.0878,1.2826,0.0,0.0,0.0,0.0,0.0,0.0,0.0,0.0,0.0,0.0,0.0,0.0,0.0,0.0,0.0,0.0,0.0,0.8038,0.8038,0.8038,0.8038,0.8038,0.8038,0.8038,0.8038,0.8038,0.8038,0.8038,0.8038,0.8038,0.8038,0.8038,0.8038,0.8038,0.8038,0.8333,1.242,1.1741,0.8038,0.8038,0.8038,0.8038,0.8038,0.8038,0.8038,0.0,0.0,0.0,0.0,0.0,0.0,0.0,0.9007,0.8671,0.8193,0.8023,0.7942,0.7928,0.8037,0.0,0.0,0.0,0.0,0.0,0.0,0.0,0.0,0.0,0.0,0.0,0.0,0.0,0.0,0.0,0.0,0.0,0.0,0.0,0.0,0.0,0.0,0.0,0.0,0.0,0.0,0.0,0.0,0.0,0.0,0.0,0.0,0.0,0.0,0.0,0.0,0.0,1.3883,1.5753,1.7126,1.8018,1.7687,0.0,0.0,1.9716,2.0196,2.0845,1.9761,1.8836,1.7681,1.592,0.0,0.0,1.1774,1.0787,1.0878,1.2826,1.5001,0.0,0.0,0.0,0.0,0.0,0.0,0.0,0.0,0.0,0.0,0.0,0.0,0.0,0.0,0.0,0.0,0.8038,0.8038,0.8038,0.8038,0.8038,0.8038,0.8038,0.8038,0.8038,0.8038,0.8038,0.8038,0.8038,0.8038,0.8038,0.8038,0.8038,0.8038,0.0,0.8528,0.8428,0.8038,0.8038,0.8038,0.8038,0.8038,0.8038,0.8038,0.0,0.0,0.0,0.0,0.0,0.0,0.0,0.9107,0.8672,0.8167,0.8049,0.7968,0.7855,0.8106,0.0,0.0,0.0,0.0,0.0,0.0,0.0,0.0,0.0,0.0,0.0,0.0,0.0,0.0,0.0,0.0,0.0,0.0,0.0,0.0,0.0,0.0,0.0,0.0,0.0,0.0,0.0,0.0,0.0,0.0,0.0,0.0,0.0,0.0,0.0,0.0,0.0,0.0,1.3144,1.3762,0.0,0.0,1.7076,1.8199,1.8043,1.8333,1.8667,1.8448,1.6975,1.5487,1.4757,0.0,0.0,1.1085,1.1431,1.2681,1.4809,1.4801,1.4938,0.0,0.0,0.0,0.0,0.0,0.0,0.0,0.0,0.0,0.0,0.0,0.0,0.0,0.0,0.0,0.8134,0.8038,0.8038,0.8038,0.8038,0.8038,0.8038,0.8038,0.8038,0.8038,0.8038,0.8038,0.8038,0.8038,0.8038,0.8038,0.8038,0.8038,0.0,0.8038,0.8038,0.8038,0.8038,0.8038,0.8038,0.8038,0.8038,0.8038,0.0,0.0,0.0,0.0,0.0,0.0,0.9411,0.9314,0.8789,0.8193,0.8171,0.8131,0.7994,0.8227,0.8374,0.8277,0.0,0.0,0.0,0.0,0.0,0.0,0.0,0.0,0.0,0.0,0.0,0.0,0.0,0.0,0.0,0.0,0.0,0.0,0.0,0.0,0.0,0.0,0.0,0.0,0.0,0.0,0.0,0.0,0.0,0.0,0.0,0.0,0.0,0.0,0.0,0.0,0.0,0.0,0.0,0.0,1.5312,1.6222,1.6327,1.6656,1.6994,1.6806,1.5253,1.3822,0.0,0.0,1.2525,1.1135,1.2625,1.4438,1.5339,1.4237,1.3699,0.0,0.0,0.0,0.0,0.0,0.0,0.0,0.0,0.0,0.0,0.0,0.0,0.0,0.0,0.0,0.8237,0.8038,0.8038,0.8038,0.8038,0.8038,0.8038,0.8038,0.8038,0.8038,0.8038,0.8038,0.8038,0.8038,0.8038,0.8038,0.8038,0.8038,0.0,0.9698,0.9406,0.8038,0.8038,0.8038,0.8038,0.8038,0.8038,0.8038,0.0,0.0,0.0,0.0,0.0,0.0,0.0,0.9592,0.8951,0.829,0.8322,0.8403,0.8403,0.8403,0.8479,0.8681,0.0,0.0,0.0,0.0,0.0,0.0,0.0,0.0,0.0,0.0,0.0,0.0,0.0,0.0,0.0,0.0,0.0,0.0,0.0,0.0,0.0,0.0,0.0,0.0,0.0,0.0,0.0,0.0,0.0,0.0,0.0,0.0,0.0,0.0,0.0,0.0,0.0,0.0,0.0,0.0,1.4475,1.5913,1.4891,1.5871,1.6711,1.4967,1.4041,1.3356,0.0,0.0,1.2728,1.2173,1.4434,1.5777,1.3624,1.3223,1.321,1.3235,0.0,0.0,0.0,0.0,0.0,0.0,0.0,0.0,0.0,0.0,0.0,0.0,0.0,0.0,0.8038,0.8038,0.8038,0.8038,0.8038,0.8038,0.8038,0.8038,0.8038,0.8038,0.8038,0.8038,0.8038,0.8038,0.8038,0.8038,0.8038,0.8038,0.0,1.359,1.2711,0.8038,0.8038,0.8038,0.8038,0.8038,0.8038,0.8038,0.0,0.0,0.0,0.0,0.0,0.0,0.0,0.6524,0.6947,0.8477,0.86,0.8559,0.8658,0.8801,0.8908,0.8968,0.0,0.0,0.0,0.0,0.0,0.0,0.0,0.0,0.0,0.0,0.0,0.0,0.0,0.0,0.0,0.0,0.0,0.0,0.0,0.0,0.0,0.0,0.0,0.0,0.0,0.0,0.0,0.0,0.0,0.0,0.0,0.0,0.0,0.0,0.0,0.0,0.0,0.0,0.0,0.0,0.0,0.0,1.4508,1.4487,1.4187,1.4212,1.2848,1.1623,1.229,1.1638,1.0854,1.0875,1.1617,1.2452,1.3066,1.3198,1.3198,1.3198,1.4418,0.0,0.0,0.0,0.0,0.0,0.0,0.0,0.0,0.0,0.0,0.0,0.0,1.1741,0.8237,0.8038,0.8038,0.8038,0.8038,0.8038,0.8038,0.8038,0.8038,0.8038,0.8038,0.8038,0.8038,0.8038,0.8038,0.8038,0.8038,0.8038,0.8137,0.9797,0.9505,0.8038,0.8038,0.8038,0.8038,0.8038,0.8038,0.8038,0.0,0.0,0.0,0.0,0.0,0.0,0.0,0.3168,0.4182,0.6996,0.7548,0.8034,0.8895,0.905,0.9088,0.9088,0.0,0.0,0.0,0.0,0.0,0.0,0.0,0.0,0.0,0.0,0.0,0.0,0.0,0.0,0.0,0.0,0.0,0.0,0.0,0.0,0.0,0.0,0.0,0.0,0.0,0.0,0.8925,0.0,0.0,0.0,0.0,0.0,0.0,0.0,0.0,0.0,0.0,0.0,0.0,0.0,1.0699,0.0,0.0,1.2731,1.253,1.287,1.1776,0.0,0.0,1.0748,0.9863,1.0233,1.0283,1.0878,1.2826,1.3198,1.3198,1.3198,1.5039,0.0,0.0,0.0,0.0,0.0,0.0,0.0,0.0,0.0,0.0,0.0,0.0,1.3488,0.8233,0.8038,0.8038,0.8038,0.8038,0.8038,0.8038,0.8038,0.8038,0.8038,0.8038,0.8038,0.8038,0.8038,0.8038,0.8038,0.8038,0.8038,0.0,0.8038,0.8038,0.8038,0.8038,0.8038,0.8038,0.8038,0.8038,0.8038,0.0,0.0,0.0,0.0,0.0,0.0,0.0,0.0,0.0,0.0,0.5776,0.7177,0.9118,0.9218,0.9129,0.0,0.0,0.0,0.0,0.0,0.0,0.0,0.0,0.0,0.0,0.0,0.0,0.696,0.7017,0.7184,0.7439,0.0,0.0,0.0,0.0,0.0,0.0,0.8348,0.8612,0.888,0.876,0.8783,0.0,0.0,0.0,0.0,0.0,0.0,0.0,0.0,0.0,0.0,0.0,0.0,0.0,0.0,0.0,0.0,0.0,0.0,0.0,0.0,0.0,0.0,0.0,1.0161,0.0,1.0202,1.0283,1.084,1.2638,1.3129,1.3163,1.3012,1.496,0.0,0.0,0.0,0.0,0.0,0.0,0.0,0.0,0.0,0.0,0.0,0.0,1.3102,0.8233,0.8038,0.8038,0.8038,0.8038,0.8038,0.8038,0.8038,0.8038,0.8038,0.8038,0.8038,0.8038,0.8038,0.8038,0.0,0.8038,0.8038,0.0,0.8038,0.8038,0.8038,0.8038,0.8038,0.8038,0.8038,0.8038,0.8038,0.0,0.0,0.0,0.0,0.0,0.0,0.0,0.0,0.0,0.0,0.0,0.9095,0.962,0.9557,0.0,0.0,0.0,0.0,0.0,0.0,0.0,0.0,0.0,0.0,0.0,0.0,0.0,0.7591,0.8116,0.8237,0.8036,0.8608,0.0,0.0,0.0,0.8499,0.8348,0.8542,0.8736,0.8891,0.8858,0.8869,0.0,0.0,0.0,0.0,1.0135,1.0532,0.0,0.0,0.0,0.0,0.0,0.0,0.0,0.0,0.9545,0.936,0.9117,0.0,0.9425,0.9658,0.9612,0.9475,0.0,0.0,0.0,0.0,0.0,0.0,1.0916,1.2198,1.272,1.1207,1.407,0.0,0.0,0.0,0.0,0.0,0.0,0.0,0.0,0.0,0.0,0.0,0.0,0.9308,0.8038,0.8038,0.8038,0.8038,0.8038,0.8038,0.8038,0.8038,0.8038,0.8038,0.8038,0.8038,0.8038,0.8038,0.8038,0.8038,0.8038,0.8038,0.8038,0.8038,0.8038,0.8038,0.8038,0.8038,0.8038,0.8038,0.8038,0.8038,0.0,0.0,0.0,0.0,0.0,0.0,0.0,0.0,0.0,0.0,0.0,0.0,0.0,0.0,0.0,0.0,0.0,0.0,0.0,0.0,0.0,0.0,0.0,0.0,0.0,0.0,0.0,0.0,0.0,0.847,0.0,0.0,0.0,0.0,0.0,0.8618,0.8542,0.8554,0.87,0.8925,0.9198,0.0,0.0,0.0,0.0,0.0,1.0648,1.0895,0.0,1.1605,1.1683,1.1468,0.0,0.0,0.0,0.0,0.9855,0.9777,0.941,0.9111,0.9036,0.9627,0.9651,0.9652,0.0,0.0,0.0,0.0,0.0,0.0,0.0,0.0,0.0,0.0,1.3783,0.0,0.0,0.0,0.0,0.0,0.0,0.0,0.0,0.0,0.0,0.0,0.0,0.8038,0.8038,0.8038,0.8038,0.8038,0.8038,0.8038,0.8038,0.8038,0.8038,0.8038,0.8038,0.8038,0.8038,0.8038,0.8038,0.8038,0.8038,0.8038,0.8038,0.8038,0.8038,0.8038,0.8038,0.8038,0.8038,0.8038,0.8038,0.8038,0.0,0.0,0.0,0.0,0.0,0.0,0.0,0.0,0.0,0.0,0.0,0.0,0.0,0.0,0.0,0.0,0.0,0.0,0.0,0.0,0.0,0.0,0.0,0.0,0.0,0.0,0.0,0.0,0.0,0.0,0.0,0.0,0.9281,0.0,0.0,0.8542,0.8693,0.8517,0.8624,0.8948,0.9576,0.0,0.0,0.0,0.0,0.0,0.0,0.0,0.0,1.1968,1.1953,1.1732,1.1386,0.0,0.0,0.0,0.0,0.0,1.0046,0.9843,0.9792,1.0142,1.0267,1.0528,0.0,0.0,0.0,0.0,0.0,0.0,0.0,0.0,0.0,0.0,0.0,0.0,0.0,0.0,0.0,0.0,0.0,0.0,0.0,0.0,0.0,0.0,0.0,0.8038,0.8038,0.8038,0.8038,0.8038,0.8038,0.8038,0.8038,0.8038,0.8038,0.8038,0.8038,0.8038,0.8038,0.8038,0.8038,0.8038,0.0,0.0,0.8038,0.8038,0.8038,0.8038,0.8038,0.8038,0.8038,0.8038,0.8038,0.8038,0.0,0.0,0.0,0.0,0.0,0.0,0.0,0.0,0.0,0.0,0.0,0.0,0.0,0.0,0.0,0.0,0.0,0.0,0.0,0.0,0.0,0.0,0.0,0.0,0.0,0.0,0.0,0.0,0.0,0.0,1.1237,1.1513,1.1074,0.9983,0.9067,0.8669,0.8693,0.8669,0.8748,0.8959,0.9684,0.0,0.0,0.0,0.0,0.0,0.0,0.0,0.0,1.1659,1.166,1.1672,1.1386,0.0,0.0,0.0,0.0,0.0,1.0322,1.0972,1.1412,1.0254,1.0661,1.1154,0.0,0.0,0.0,0.0,0.0,0.0,0.0,0.0,0.0,0.0,0.0,0.0,0.0,0.0,0.0,0.0,0.0,0.0,0.0,0.0,0.0,0.0,0.8428,0.8038,0.8038,0.8038,0.8038,0.8038,0.8038,0.8038,0.8038,0.8038,0.8038,0.8038,0.8038,0.8038,0.8038,0.8038,0.8038,0.8038,0.0,0.8038,0.8038,0.8038,0.8038,0.8038,0.8038,0.8038,0.8038,0.8038,0.8038,0.8038,0.0,0.0,0.0,0.0,0.0,0.0,0.0,0.0,0.0,0.0,0.0,0.0,0.0,0.0,0.0,0.0,0.0,0.0,0.0,0.0,0.0,0.0,0.0,0.0,0.0,0.0,0.0,0.0,0.0,1.117,1.1759,1.1538,1.0877,0.9795,0.9109,0.8806,0.8806,0.8806,0.8852,0.8993,0.0,0.0,0.0,0.0,0.0,0.0,0.0,0.0,0.0,0.0,1.1895,1.1389,1.1482,0.0,0.0,0.0,0.0,0.0,1.0667,1.1242,1.1838,1.1728,1.1186,1.086,0.0,0.0,0.0,0.0,0.0,0.0,0.0,0.0,0.0,0.0,0.0,0.0,0.0,0.0,0.0,0.0,0.0,0.0,0.0,0.0,0.0,0.0,0.7736,0.7553,0.7553,0.5099,0.3686,0.3686,0.6524,0.7953,0.8012,0.5134,0.5122,0.8038,0.8038,0.8038,0.8038,0.8038,0.8038,0.8038,0.0,0.8038,0.8038,0.8038,0.8038,0.8038,0.8038,0.8038,0.8038,0.8038,0.8038,0.8038,0.0,0.0,0.0,0.0,0.0,0.0,0.0,0.0,0.0,0.0,0.0,0.0,0.0,0.0,0.0,0.0,0.0,0.0,0.0,0.0,0.0,0.0,0.0,0.0,0.0,0.0,1.059,1.1392,1.1097,1.1196,1.163,1.0967,1.0305,0.0,0.9382,0.9269,0.9286,0.9424,0.9481,0.9589,0.0,0.0,0.0,0.0,0.0,0.0,0.0,0.0,0.0,0.0,0.0,0.0,0.0,0.0,0.0,1.1006,1.0991,1.0849,1.0944,1.1326,1.1827,1.2316,0.0,1.059,1.2662,0.0,0.0,0.0,0.0,0.0,0.0,0.0,0.0,0.0,0.0,0.0,0.0,0.0,0.0,0.0,0.0,0.0,0.0,0.0,0.0,0.0,0.7482,0.7139,0.7139,0.2594,-0.0,-0.0,0.4019,0.6162,0.6161,0.2044,0.2014,0.6126,0.7434,0.8038,0.8038,0.8038,0.8038,0.8038,0.8038,0.8038,0.8038,0.8038,0.8038,0.8038,0.8038,0.8038,0.8038,0.8038,0.8038,0.8038,0.0,0.0,0.0,0.0,0.0,0.0,0.0,0.0,0.0,0.0,0.0,0.0,0.0,0.0,0.0,0.0,0.0,0.0,0.0,0.0,0.0,0.0,0.0,0.0,0.0,1.033,1.0886,1.2307,1.1491,1.1001,1.0875,1.0432,1.0076,0.9811,1.022,1.0383,1.0426,1.0977,1.1229,1.1274,1.1946,0.0,0.0,0.0,0.0,0.0,0.0,0.0,0.0,0.0,0.0,0.0,0.0,0.0,1.0189,1.1395,1.121,1.0705,1.1085,1.1481,1.1525,1.0405,0.0,0.0,1.2554,0.0,0.0,0.0,0.0,0.0,0.0,0.0,0.0,0.0,0.0,0.0,0.0,0.0,0.0,0.0,0.0,0.0,0.0,0.0,0.0,0.0,0.7482,0.7139,0.7139,0.2594,-0.0,-0.0,0.0362,0.0543,0.0539,0.0195,0.0202,0.0605,0.5625,0.8038,0.8038,0.8038,0.8038,0.8038,0.8038,0.8038,0.8038,0.8038,0.8038,0.8038,0.8038,0.8038,0.8038,0.8038,0.8038,0.8038,0.0,0.0,0.0,0.0,0.0,0.0,0.0,0.0,0.0,0.0,0.0,0.0,0.0,0.0,0.0,0.0,0.0,0.0,0.0,0.0,0.0,0.0,0.0,1.0394,1.114,1.0523,1.0672,1.1591,1.1768,1.1542,1.0999,1.1435,0.0,0.0,1.1106,1.1248,1.1255,1.1482,1.151,1.1468,1.2158,1.237,0.0,0.0,0.0,0.0,0.0,0.0,0.0,0.0,1.2397,1.1512,0.0,0.0,1.0694,1.1542,1.1233,1.0729,1.1392,1.252,1.3011,1.1009,0.0,0.0,0.0,0.0,0.0,0.0,0.0,0.0,0.0,0.0,0.0,0.0,0.0,0.0,0.0,0.0,0.0,0.0,0.0,0.0,0.0,0.0,0.0,0.0,0.0,0.7139,0.7139,0.2594,-0.0,-0.0,-0.0,-0.0,-0.0,-0.0,0.1718,0.4968,0.7051,0.8038,0.8038,0.8038,0.8038,0.8038,0.8038,0.8038,0.8038,0.8038,0.8038,0.8038,0.8038,0.8038,0.8038,0.8038,0.5924,0.3017,0.0,0.0,0.0,0.0,0.0,0.0,0.0,0.0,0.0,0.0,0.0,0.0,0.0,0.0,0.0,0.0,0.0,0.0,0.0,0.0,0.0,0.0,0.0,1.0687,1.1082,1.0534,1.0637,1.1485,1.1773,1.1637,1.1096,0.0,0.0,0.0,0.0,0.0,1.2126,1.2377,1.237,1.2231,1.2658,1.277,0.0,0.0,0.0,0.0,0.0,0.0,0.0,0.0,1.2272,0.0,0.0,0.0,0.0,1.1607,1.1324,1.0944,1.1615,1.2688,1.3644,0.0,0.0,0.0,0.0,0.0,0.0,0.0,0.0,0.0,0.0,0.0,0.0,0.0,0.0,0.0,0.0,0.0,0.0,0.0,0.0,0.0,0.0,0.0,0.0,0.0,0.0,0.0,0.0,0.2594,-0.0,-0.0,-0.0,-0.0,-0.0,-0.0,0.1819,0.548,0.7178,0.7153,0.5525,0.5525,0.5525,0.5525,0.5525,0.5525,0.5525,0.5525,0.5525,0.5525,0.5525,0.5525,0.5525,0.5525,0.3118,-0.0,0.0,0.0,0.0,0.0,0.0,0.0,0.0,0.0,0.0,0.0,0.0,0.0,0.0,0.0,0.0,0.0,0.0,0.0,0.0,0.0,0.0,0.0,0.0,1.057,1.0233,1.0291,1.0968,1.228,1.1485,1.111,1.1127,1.126,0.0,0.0,0.0,0.0,0.0,1.3846,1.4078,1.3867,1.3676,1.3526,1.3396,0.0,0.0,0.0,0.0,0.0,0.0,0.0,1.1663,1.0328,0.0,0.0,0.0,0.0,1.1519,1.1293,1.1681,1.1805,0.0,0.0,0.0,0.0,0.0,0.0,0.0,0.0,0.0,0.0,0.0,0.0,0.0,0.0,0.0,0.0,0.0,0.0,0.0,0.0,0.0,0.0,0.0,0.0,0.0,0.0,0.0,0.0,0.0,0.2594,-0.0,-0.0,-0.0,-0.0,-0.0,-0.0,-0.0,0.0101,0.5372,0.5168,-0.0,-0.0,-0.0,-0.0,-0.0,-0.0,-0.0,-0.0,-0.0,-0.0,-0.0,-0.0,-0.0,-0.0,-0.0,-0.0,0.0,0.0,0.0,0.0,0.0,0.0,0.0,0.0,0.0,0.0,0.0,0.0,0.0,0.0,0.0,0.0,0.0,0.0,0.0,0.0,0.0,0.0,0.0,0.0,0.0,0.0,1.1679,1.0894,1.117,1.1571,0.0,0.0,0.0,1.2927,0.0,0.0,1.3858,1.4111,1.4078,1.3881,1.3842,1.3634,1.3396,0.0,0.0,0.0,0.0,0.0,0.0,0.0,0.0,0.0,0.0,0.0,0.0,1.1932,1.1824,1.1622,1.1967,1.2796,0.0,0.0,0.0,0.0,0.0,0.0,0.0,0.0,0.0,0.0,0.0,0.0,0.0,0.0,0.0,0.0,0.0,0.0,0.0,0.0,0.0,0.0,0.0,0.0,0.0,0.0,0.0,0.0,0.0,0.2594,-0.0,-0.0,-0.0,-0.0,-0.0,-0.0,-0.0,-0.0,0.1585,0.1585,-0.0,-0.0,-0.0,-0.0,-0.0,-0.0,-0.0,-0.0,-0.0,-0.0,-0.0,-0.0,-0.0,-0.0,-0.0,-0.0,0.0,0.0,0.0,0.0,0.0,0.0,0.0,0.0,0.0,0.0,0.0,0.0,0.0,0.0,0.0,0.0,0.0,0.0,0.0,0.0,0.0,0.0,0.0,0.0,0.0,1.2877,1.234,0.0,0.0,0.0,0.0,0.0,0.0,1.3524,0.0,1.4143,0.0,1.4384,1.4342,1.4353,1.4037,1.3696,1.3396,0.0,0.0,0.0,0.0,0.0,0.0,0.0,0.0,0.0,0.0,0.0,0.0,1.221,1.1957,1.176,1.2111,0.0,0.0,0.0,0.0,0.0,0.0,0.0,0.0,0.0,0.0,0.0,0.0,0.0,0.0,0.0,0.0,0.0,0.0,0.0,0.0,0.0,0.0,0.0,0.0,0.0,0.0,0.0,0.0,0.0,0.0,0.246,-0.0,-0.0,-0.0,-0.0,-0.0,-0.0,-0.0,-0.0,-0.0,-0.0,-0.0,-0.0,-0.0,-0.0,-0.0,-0.0,-0.0,-0.0,-0.0,-0.0,-0.0,-0.0,-0.0,-0.0,-0.0,-0.0,0.0,0.0,0.0,0.0,0.0,0.0,0.0,0.0,0.0,0.0,0.0,0.0,0.0,0.0,0.0,0.0,0.0,0.0,0.0,0.0,0.0,0.0,0.0,0.0,0.0,0.0,0.0,0.0,0.0,0.0,0.0,0.0,1.3557,1.3413,0.0,1.4285,0.0,1.4603,1.4655,1.4932,1.4164,1.368,1.3396,1.3396,0.0,0.0,0.0,0.0,0.0,0.0,0.0,0.0,1.2956,0.0,1.2827,1.2388,1.1978,1.1704,0.0,0.0,0.0,0.0,0.0,0.0,0.0,0.0,0.0,0.0,0.0,0.0,0.0,0.0,0.0,0.0,0.0,0.0,0.0,0.0,0.0,0.0,0.0,0.0,0.0,0.0,0.0,0.0,0.0,0.0,0.6261,0.2289,-0.0,-0.0,-0.0,-0.0,-0.0,-0.0,-0.0,-0.0,-0.0,-0.0,-0.0,-0.0,-0.0,-0.0,-0.0,-0.0,-0.0,-0.0,-0.0,-0.0,-0.0,-0.0,-0.0,-0.0,-0.0,-0.0,0.0,0.0,0.0,0.0,0.0,0.0,0.0,0.0,0.0,0.0,0.0,0.0,0.0,0.0,0.0,0.0,0.0,0.0,0.0,0.0,0.0,0.0,0.0,0.0,0.0,0.0,0.0,0.0,0.0,0.0,0.0,0.0,0.0,1.3413,0.0,1.3856,1.4158,1.4068,1.4072,1.4129,1.3791,1.3573,1.3396,1.3396,1.3396,0.0,0.0,0.0,0.0,0.0,0.0,0.0,1.3295,1.3173,1.2883,1.2773,1.2071,1.1316,0.0,0.0,0.0,0.0,0.0,0.0,0.0,0.0,0.0,0.0,0.0,0.0,0.0,0.0,0.0,0.0,0.0,0.0,0.0,0.0,0.0,0.0,0.0,0.0,0.0,0.0,0.0,0.0,0.0,0.0,0.6103,0.2314,-0.0,-0.0,-0.0,-0.0,-0.0,-0.0,-0.0,-0.0,-0.0,-0.0,-0.0,-0.0,-0.0,-0.0,-0.0,-0.0,-0.0,-0.0,-0.0,-0.0,-0.0,-0.0,-0.0,-0.0,-0.0,-0.0,0.0,0.0,0.0,0.0,0.0,0.0,0.0,0.0,0.0,0.0,0.0,0.0,0.0,0.0,0.0,0.0,0.0,0.0,0.0,0.0,0.0,0.0,0.0,0.0,0.0,0.0,0.0,0.0,0.0,0.0,0.0,0.0,0.0,1.3413,0.0,1.4021,1.4456,1.4266,1.4352,1.457,1.3982,1.362,1.3396,1.3396,1.3396,1.3346,1.2834,0.0,0.0,0.0,0.0,0.0,0.0,0.0,1.3103,1.2993,1.251,1.1964,0.0,0.0,0.0,0.0,0.0,0.0,0.0,0.0,0.0,0.0,0.0,0.0,0.0,0.0,0.0,0.0,0.0,0.0,0.0,0.0,0.0,0.0,0.0,0.0,0.0,0.0,0.0,0.0,0.0,0.097,0.3198,0.12,-0.0,-0.0,-0.0,-0.0,-0.0,-0.0,-0.0,-0.0,-0.0,-0.0,-0.0,-0.0,-0.0,-0.0,-0.0,-0.0,-0.0,-0.0,-0.0,-0.0,-0.0,-0.0,-0.0,-0.0,-0.0,-0.0,0.0,0.0,0.0,0.0,0.0,0.0,0.0,0.0,0.0,0.0,0.0,0.0,0.0,0.0,0.0,0.0,0.0,0.0,0.0,0.0,0.0,0.0,0.0,0.0,0.0,0.0,0.0,0.0,0.0,0.0,0.0,0.0,0.0,1.3329,0.0,1.4206,1.4876,1.4542,1.4701,1.5121,1.4246,1.3726,1.3446,1.3413,1.3396,1.326,1.2195,1.1918,1.2066,1.1854,0.0,0.0,0.0,0.0,1.3363,1.3138,1.2887,1.2566,0.0,0.0,0.0,0.0,0.0,0.0,0.0,0.0,0.0,0.0,0.0,0.0,0.0,0.0,0.0,0.0,0.0,0.0,0.0,0.0,0.0,0.0,0.0,0.0,0.0,0.0,0.0,0.0,0.0,-0.0,-0.0,-0.0,-0.0,-0.0,-0.0,-0.0,-0.0,-0.0,-0.0,-0.0,-0.0,-0.0,-0.0,-0.0,-0.0,-0.0,-0.0,-0.0,-0.0,-0.0,-0.0,-0.0,-0.0,-0.0,-0.0,-0.0,-0.0,-0.0,0.0,0.0,0.0,0.0,0.0,0.0,0.0,0.0,0.0,0.0,0.0,0.0,0.0,0.0,0.0,0.0,0.0,0.0,1.5189,0.0,0.0,1.4687,1.4567,0.0,0.0,0.0,0.0,0.0,0.0,0.0,0.0,0.0,0.0,1.3067,0.0,0.0,0.0,1.3991,1.4136,1.4332,1.4019,1.3813,1.3632,1.3479,1.3396,1.326,1.2195,1.2396,1.3034,1.2113,1.1805,0.0,0.0,0.0,1.3396,1.3363,1.2638,0.0,0.0,0.0,0.0,0.0,0.0,0.0,0.0,0.0,0.0,0.0,0.0,0.0,0.0,0.0,0.0,0.0,0.0,0.0,0.0,0.0,0.0,0.0,0.0,0.0,0.0,0.0,0.0,0.0,-0.0,-0.0,-0.0,-0.0,-0.0,-0.0,-0.0,-0.0,-0.0,-0.0,-0.0,-0.0,-0.0,-0.0,-0.0,-0.0,-0.0,-0.0,-0.0,-0.0,-0.0,-0.0,-0.0,-0.0,-0.0,-0.0,-0.0,-0.0,-0.0,-0.0,0.0,0.0,0.0,0.0,0.0,0.0,0.0,0.0,0.0,0.0,0.0,0.0,0.0,0.0,0.0,1.3942,1.5157,1.5906,1.5867,1.5295,1.4909,1.4813,1.4747,1.4687,1.4614,0.0,0.0,0.0,0.0,0.0,0.0,1.2922,1.2943,0.0,0.0,0.0,0.0,0.0,1.3646,1.3984,1.3924,1.362,1.3201,1.334,1.3396,1.3346,1.2871,1.2998,1.3243,1.2154,1.1805,1.1805,1.1805,0.0,0.0,0.0,0.0,0.0,0.0,0.0,0.0,0.0,0.0,0.0,0.0,0.0,0.0,0.0,0.0,0.0,0.0,0.0,0.0,0.0,0.0,0.0,0.0,0.0,0.0,0.0,0.0,0.0,0.0,0.0,0.0,0.0,-0.0,-0.0,-0.0,-0.0,-0.0,-0.0,-0.0,-0.0,-0.0,-0.0,-0.0,-0.0,-0.0,-0.0,-0.0,-0.0,-0.0,-0.0,-0.0,-0.0,-0.0,-0.0,-0.0,-0.0,-0.0,-0.0,-0.0,-0.0,-0.0,-0.0,0.0,0.0,0.0,0.0,0.0,0.0,0.0,0.0,0.0,0.0,0.0,0.0,0.0,0.0,0.0,0.0,1.5944,1.6727,1.6476,1.5754,1.5231,1.495,1.4911,1.4841,1.4756,0.0,0.0,0.0,0.0,0.0,1.3518,1.2713,1.2742,0.0,1.3023,0.0,0.0,0.0,0.0,0.0,0.0,1.3071,1.2735,1.2796,1.2975,1.3226,1.3346,1.3226,1.2908,1.2396,1.2045,1.1833,1.2113,1.2762,0.0,0.0,0.0,0.0,0.0,0.0,0.0,0.0,0.0,0.0,0.0,0.0,0.0,0.0,0.0,0.0,0.0,0.0,0.0,0.0,0.0,0.0,0.0,0.0,0.0,0.0,0.0,0.0,0.0,0.0,0.0,0.0,-0.0,-0.0,-0.0,-0.0,-0.0,-0.0,-0.0,-0.0,-0.0,-0.0,-0.0,-0.0,-0.0,-0.0,-0.0,-0.0,-0.0,-0.0,-0.0,-0.0,-0.0,-0.0,-0.0,-0.0,-0.0,-0.0,-0.0,-0.0,-0.0,-0.0,0.0,0.0,0.0,0.0,0.0,0.0,0.0,0.0,0.0,0.0,0.0,0.0,0.0,1.5888,1.6375,1.6361,1.7202,1.7414,1.6636,1.6418,1.5958,1.5139,1.4973,0.0,1.4895,1.4766,0.0,0.0,0.0,0.0,1.5235,1.3754,1.2726,1.2178,1.1654,1.1447,1.1523,0.0,0.0,0.0,0.0,0.0,0.0,0.0,0.0,0.0,0.0,1.2743,1.2045,1.298,1.2649,1.1982,1.2998,1.3363,1.3396,0.0,0.0,0.0,0.0,0.0,0.0,0.0,0.0,0.0,0.0,0.0,0.0,0.0,0.0,0.0,0.0,0.0,0.0,0.0,0.0,0.0,0.0,0.0,0.0,0.0,0.0,0.0,0.0,0.0,0.0,0.0,-0.0,-0.0,-0.0,-0.0,-0.0,-0.0,-0.0,-0.0,-0.0,-0.0,-0.0,-0.0,-0.0,-0.0,-0.0,-0.0,-0.0,-0.0,-0.0,-0.0,-0.0,-0.0,-0.0,-0.0,-0.0,-0.0,-0.0,-0.0,-0.0,-0.0,0.0,0.0,0.0,0.0,0.0,0.0,0.0,0.0,0.0,0.0,0.0,0.0,0.0,1.6323,1.674,1.7279,1.7665,1.7734,1.7447,1.6836,1.6087,1.5195,1.5114,1.5052,1.4973,1.5385,0.0,0.0,0.0,1.4634,1.4532,1.3296,1.198,1.0611,1.0593,1.0438,1.0185,1.0286,0.0,0.0,0.0,0.0,0.0,0.0,0.0,0.0,0.0,0.0,0.0,1.2006,1.2446,1.2843,1.434,1.3949,1.3083,1.3827,1.3623,0.0,0.0,0.0,0.0,0.0,0.0,0.0,0.0,0.0,0.0,0.0,0.0,0.0,0.0,0.0,0.0,0.0,0.0,0.0,0.0,0.0,0.0,0.0,0.0,0.0,0.0,0.0,0.0,0.0,0.0,-0.0,-0.0,-0.0,-0.0,-0.0,-0.0,-0.0,-0.0,-0.0,-0.0,-0.0,-0.0,-0.0,-0.0,-0.0,-0.0,-0.0,-0.0,-0.0,-0.0,-0.0,-0.0,-0.0,-0.0,-0.0,-0.0,-0.0,-0.0,-0.0,0.0,0.0,0.0,0.0,0.0,0.0,0.0,0.0,0.0,0.0,0.0,0.0,0.0,0.0,1.7703,1.8587,1.8728,1.8535,1.7968,1.7326,1.6575,1.5708,1.5382,1.5325,1.5503,1.5635,0.0,0.0,0.0,0.0,0.0,1.3388,1.2053,1.0558,1.0192,0.9677,0.0,0.0,0.0,1.0053,0.0,0.0,0.9581,0.0,0.0,0.0,0.0,0.0,0.0,0.0,1.0458,1.1234,1.358,1.3759,1.3236,1.3816,0.0,0.0,0.0,0.0,0.0,0.0,0.0,0.0,0.0,0.0,0.0,0.0,0.0,0.0,0.0,0.0,0.0,0.0,0.0,0.0,0.0,0.0,0.0,0.0,0.0,0.0,0.0,0.0,0.0,0.0,0.0,0.0,-0.0,-0.0,-0.0,-0.0,-0.0,-0.0,-0.0,-0.0,-0.0,-0.0,-0.0,-0.0,-0.0,-0.0,-0.0,-0.0,-0.0,-0.0,-0.0,-0.0,-0.0,-0.0,-0.0,-0.0,-0.0,-0.0,-0.0,-0.0,0.0,0.0,0.0,0.0,0.0,0.0,0.0,0.0,0.0,0.0,0.0,0.0,0.0,0.0,0.0,2.0316,2.0456,1.9785,1.8144,1.7967,1.7561,1.6683,1.5805,1.5695,1.6484,1.5494,0.0,0.0,0.0,0.0,0.0,0.0,1.3075,0.0,1.0458,0.9213,0.8374,0.0,0.9256,0.9277,0.0,0.7099,0.7925,0.0,0.0,0.0,0.7367,0.7738,0.0,0.7142,0.0,0.0,0.0,1.2754,1.38,1.3336,0.0,0.0,0.0,0.0,0.0,0.0,0.0,0.0,0.0,0.0,0.0,0.0,0.0,0.0,0.0,0.0,0.0,0.0,0.0,0.0,0.0,0.0,0.0,0.0,0.0,0.0,0.0,0.0,0.0,0.0,-0.0,-0.0056,-0.0112,-0.0056,-0.0,-0.0,-0.0,-0.0,-0.0,-0.0,-0.0,-0.0,-0.0,-0.0,-0.0,-0.0,-0.0,-0.0,-0.0,-0.0,-0.0,-0.0,-0.0,-0.0,-0.0,-0.0,-0.0,-0.0,-0.0,-0.0,0.0,0.0,0.0,0.0,0.0,0.0,0.0,0.0,0.0,0.0,0.0,0.0,0.0,0.0,1.9818,2.0224,2.0316,1.9931,1.8921,1.8841,1.8447,1.7587,1.6665,1.6272,1.6509,1.6599,0.0,0.0,0.0,0.0,0.0,0.0,0.0,0.0,1.1343,1.0386,0.9245,0.84,0.0,0.0,0.6865,0.6509,0.0,0.0,0.0,0.0,0.0,0.6868,0.6554,0.0,0.4308,0.5164,0.0,0.0,0.0,0.0,0.0,0.0,1.2224,0.0,0.0,0.0,0.0,0.0,0.0,0.0,0.0,0.0,0.0,0.0,0.0,0.0,0.0,0.0,0.0,0.0,0.0,0.0,0.0,0.0,0.0,0.0,0.0,0.0,0.0,0.0,-0.0,-0.0954,-0.3156,-0.1178,-0.0,-0.0,-0.0,-0.0,-0.0,-0.0,-0.0,-0.0,-0.0,-0.0,-0.0,-0.0,-0.0,-0.0,-0.0,-0.0,-0.0,-0.0,-0.0,-0.0,-0.0,-0.0,-0.0,-0.0,-0.0,-0.0,0.0,0.0,0.0,0.0,0.0,0.0,0.0,0.0,0.0,0.0,0.0,0.0,0.0,0.0,0.0,1.9877,1.9997,1.9779,1.9154,1.9168,1.8964,1.8462,1.7563,1.7234,1.7587,1.7481,1.7378,0.0,0.0,0.0,0.0,0.0,0.0,0.0,0.0,0.0,0.0,0.0,0.0,0.0,0.6206,0.0,0.0,0.5274,0.5301,0.0,0.0,0.0,0.3505,0.2324,0.2944,0.0,0.0,0.0,0.0,0.0,0.0,0.0,0.0,0.0,0.0,0.0,0.0,0.0,0.6131,0.4809,0.347,0.0,0.0,0.0,0.0,0.0,0.0,0.0,0.0,0.0,0.0,0.0,0.0,0.0,0.0,0.0,0.0,-0.0,-0.0505,-0.1797,-0.1852,-0.2357,-0.3487,-0.2467,-0.1287,-0.0056,-0.0,-0.0,-0.0,-0.0,-0.0,-0.0,-0.0,-0.0,-0.0,-0.0,-0.0,-0.0,-0.0,-0.0,-0.0,-0.0,-0.0,-0.0,-0.0,-0.0,-0.0,-0.0,-0.0,-0.0,0.0,0.0,0.0,0.0,0.0,0.0,0.0,0.0,0.0,0.0,0.0,0.0,0.0,0.0,0.0,0.0,1.956,1.9503,1.9152,1.9257,1.9336,1.9336,1.8418,1.8274,1.9084,1.8024,1.7455,0.0,0.0,0.0,0.0,0.0,0.0,0.0,0.0,0.0,0.0,0.0,0.0,0.8296,0.5719,0.4569,0.0,0.0,0.2996,0.3073,0.1765,0.0574,-0.0397,-0.0319,0.1908,0.0,0.0,0.0,0.0,0.0,0.956,0.0,0.0,0.0,0.0,0.0,0.0,0.0,0.6896,0.5956,0.4495,0.3083,0.0,0.0,0.0,0.0,0.0,0.0,0.0,0.0,0.0,0.0,0.0,0.0,0.0,0.0,-0.0,-0.028,-0.1628,-0.43,-0.4518,-0.3878,-0.251,-0.3755,-0.319,-0.0335,-0.0112,-0.0,-0.0,-0.0,-0.0,-0.0,-0.0,-0.0,-0.0,-0.0,-0.0,-0.0,-0.0,-0.0,-0.0,-0.0,-0.0,-0.0,-0.0,-0.0,-0.0,-0.0,-0.0,-0.0,1.1392,0.0,0.0,0.0,0.0,0.0,0.0,0.0,0.0,0.0,0.0,0.0,0.0,0.0,0.0,0.0,1.9181,1.951,1.9864,2.0009,2.0137,2.0234,1.873,1.8309,1.9167,1.7451,1.7118,0.0,0.0,0.0,0.0,0.0,0.0,0.0,0.0,0.0,0.0,0.0,0.0,0.9704,0.7411,0.0,0.4322,0.3676,0.3186,0.2425,-0.0689,-0.2286,-0.2816,-0.2355,-0.0911,0.099,0.0,0.0,0.0,0.0,0.0,0.0,0.0,0.0,0.0,0.0,0.0,0.0,0.5056,0.4668,0.4173,0.0,0.0,0.0,0.0,0.0,0.0,0.0,0.0,0.0,0.0,0.0,0.0,0.0,0.0,0.0,-0.0,-0.2213,-0.384,-0.4458,-0.4507,-0.4379,-0.4082,-0.432,-0.3641,-0.184,-0.0615,-0.0,-0.0,-0.0,-0.0,-0.0,-0.0,-0.0,-0.0,-0.0,-0.0,-0.0,-0.0,-0.0,-0.0,-0.0,-0.0,-0.0,-0.0,-0.0,-0.0,-0.0,-0.0,-0.0,1.2536,0.0,0.0,0.0,0.0,0.0,0.0,0.0,0.0,0.0,0.0,0.0,0.0,0.0,0.0,0.0,0.0,0.0,0.0,0.0,2.0333,2.0391,1.9629,1.9392,1.9842,1.8861,1.8622,0.0,0.0,0.0,0.0,0.0,0.0,0.0,0.0,0.0,0.0,0.0,1.0022,0.8907,0.6507,0.0,0.2825,0.257,0.1977,0.0946,-0.2073,-0.3276,-0.3418,-0.3208,-0.2509,0.0,0.0,0.1117,0.2469,0.0,0.4313,0.5198,0.0,0.0,0.0,0.552,0.0,0.0,0.0,0.5653,0.5233,0.3866,0.3115,0.0,0.0,0.0,0.0,0.0,0.0,0.0,0.0,0.0,0.0,0.0,0.0,0.0,-0.0,-0.1354,-0.287,-0.4386,-0.4501,-0.449,-0.4473,-0.4477,-0.4141,-0.3357,-0.2631,-0.2237,-0.2232,-0.0727,-0.0783,-0.2232,-0.2232,-0.239,-0.2681,-0.2681,-0.2694,-0.2695,-0.2986,-0.1957,-0.0,-0.0,-0.0,-0.0,-0.0,-0.0,-0.0,-0.0,-0.0,-0.0,1.3964,0.0,0.0,0.0,0.0,0.0,0.0,0.0,0.0,0.0,0.0,0.0,0.0,0.0,0.0,0.0,0.0,0.0,0.0,0.0,0.0,1.9651,1.9994,2.029,2.0505,2.0108,1.9909,0.0,0.0,0.0,0.0,0.0,0.0,0.0,0.0,0.0,0.0,0.0,0.0,0.8602,0.0,0.3231,0.2251,0.0872,-0.0069,-0.0944,-0.2892,-0.3445,-0.3296,-0.3488,-0.3328,-0.3127,-0.3427,-0.2043,0.0,0.0,0.0,0.0,0.0,0.0,0.0,0.0,0.0,0.3293,0.0,0.0,0.0,0.3567,0.0,0.0,0.0,0.0,0.0,0.0,0.0,0.0,0.0,0.0,0.0,0.0,0.0,0.0,-0.0,-0.0267,-0.1412,-0.3863,-0.4324,-0.4484,-0.4522,-0.4522,-0.4473,-0.4497,-0.4212,-0.4203,-0.4525,-0.2206,-0.229,-0.4694,-0.4694,-0.4951,-0.5428,-0.5428,-0.5428,-0.5463,-0.6074,-0.3908,-0.0,-0.0,-0.0,-0.0,-0.0,-0.0,-0.0,-0.0,-0.0,-0.0,1.5043,0.0,0.0,0.0,0.0,0.0,0.0,0.0,0.0,0.0,0.0,0.0,0.0,0.0,0.0,0.0,0.0,0.0,1.4667,0.0,0.0,0.0,1.8465,1.9526,2.0483,1.8923,1.8723,0.0,0.0,0.0,0.0,0.0,0.0,0.0,1.5515,0.0,0.0,0.0,0.9701,0.0,0.5305,0.4113,0.0,-0.0644,-0.3106,-0.3243,-0.3497,-0.3413,-0.3147,0.0,-0.3323,-0.3271,0.0,-0.2435,-0.1371,-0.0169,0.0,0.0,0.0,0.0,0.0,0.0,0.1052,0.0,0.0,0.0,0.2236,0.166,0.0,0.0,0.0,0.0,0.0,0.0,0.0,0.0,0.0,0.0,0.0,0.0,0.0,0.0,0.0,-0.1179,-0.2111,-0.2454,-0.3744,-0.448,-0.4477,-0.4477,-0.4484,-0.4497,-0.3195,-0.3137,-0.4494,-0.4686,-0.4941,-0.5325,-0.5325,-0.536,-0.5428,-0.5428,-0.5428,-0.5463,-0.6074,-0.3908,-0.0,-0.0,-0.0,-0.0,-0.0,-0.0,-0.0,-0.0,-0.0,-0.0,1.6725,0.0,0.0,0.0,0.0,0.0,0.0,0.0,0.0,0.0,0.0,0.0,0.0,0.0,0.0,0.0,0.0,1.3297,0.0,0.0,0.0,0.0,1.6251,1.7567,1.818,1.8167,1.8624,1.9596,1.9124,0.0,0.0,0.0,0.0,0.0,1.4546,0.0,0.848,0.0,0.5935,0.0,0.0,0.0,0.0,-0.0333,-0.1957,-0.3581,-0.3458,-0.3413,-0.3395,0.0,-0.3483,0.0,0.0,0.0,0.0,0.0,0.0,0.0,0.0,0.0,0.0,0.0,0.0,0.0,-0.0043,0.0,-0.1379,0.0,0.0,0.0,0.0,0.0,0.0,0.0,0.2956,0.0,0.0,0.0,0.0,0.0,0.0,0.0,0.0,0.0,0.0,0.0,-0.4136,-0.4123,-0.3234,-0.3183,-0.358,-0.4497,-0.3872,-0.3519,-0.3435,-0.4548,-0.5213,-0.5428,-0.5428,-0.5428,-0.5428,-0.5428,-0.5428,-0.5463,-0.6074,-0.5318,-0.3439,-0.1019,-0.0,-0.0,-0.0,-0.0,-0.0,-0.0,-0.0,-0.0,1.839,0.0,0.0,0.0,0.0,0.0,0.0,0.0,0.0,0.0,0.0,0.0,1.3,1.0806,0.0,0.0,0.8919,1.0471,0.0,0.0,0.9875,1.1867,1.4309,0.0,0.0,0.0,1.8101,1.819,1.8378,0.0,0.0,0.0,0.0,0.0,0.0,0.9801,0.5213,0.0,0.0,-0.0937,-0.0623,-0.1738,-0.3353,-0.0937,-0.1506,-0.3575,-0.3456,-0.3487,-0.3585,-0.3581,-0.3581,0.0,-0.3811,0.0,0.0,0.0,0.0,0.0,-0.2321,0.0,0.0,0.0,0.0,0.0,0.0,0.0,0.0,0.0,0.0,0.0,0.0,0.0,0.0,0.0,0.0,0.1983,0.0,0.0,0.0,0.0,0.0,0.0,0.0,0.0,0.0,-0.3092,-0.4015,-0.4015,-0.2903,-0.2065,-0.2514,-0.4445,-0.4497,-0.4122,-0.3271,-0.4389,-0.5054,-0.5298,-0.5342,-0.5428,-0.5428,-0.5428,-0.5473,-0.5511,-0.6034,-0.6264,-0.5954,-0.1723,-0.0,-0.0,-0.0,-0.0,-0.0,-0.0,-0.0,-0.0,1.9907,1.9239,0.0,0.0,0.0,0.0,0.0,0.0,0.0,0.0,0.0,0.0,0.0,0.0,0.0,0.0,0.0,0.0687,0.1554,0.0,0.707,1.0238,1.2987,1.3133,0.0,0.0,1.6544,1.5324,1.6157,1.6216,0.0,0.0,0.0,0.0,0.0,0.7708,0.4962,0.2611,-0.0373,-0.3382,-0.223,-0.2497,-0.3595,0.0,-0.3527,-0.3581,-0.3575,0.0,0.0,-0.3585,-0.3581,0.0,0.0,0.0,0.0,0.0,0.0,0.0,0.0,0.0,0.0,-0.3484,0.0,0.0,0.0,0.0,-0.2488,0.0,0.0,0.0,0.0,0.0,0.0,0.0,0.0,0.0,0.0,0.0,0.0,0.0,0.0,0.0,0.0,0.0,-0.0051,-0.0159,-0.2826,-0.4462,-0.4448,-0.1677,-0.1454,-0.4399,-0.4501,-0.4565,-0.4711,-0.498,-0.513,-0.5138,-0.5291,-0.5428,-0.5428,-0.5428,-0.5518,-0.5806,-0.6122,-0.6274,-0.5977,-0.1725,-0.0,-0.0,-0.0,-0.0,-0.0,-0.0,-0.0,-0.0,0.0,0.0,0.0,0.0,0.0,0.0,0.0,1.3852,0.0,0.0,0.0,0.0,0.0,0.7339,0.1588,0.0,0.0,-0.164,0.0297,0.1754,0.0,0.0,0.0,0.7677,0.0,0.0,1.1584,1.2751,1.32,1.3045,0.0,0.0,0.0,0.0,0.0,0.7406,0.0,0.0,0.0,0.0,0.0,-0.3227,-0.3582,0.0,-0.3585,-0.3544,-0.2993,-0.3126,0.0,-0.3581,-0.3581,-0.3581,-0.3581,-0.3626,-0.3753,-0.3903,-0.4258,0.0,0.0,0.0,-0.5341,-0.484,0.0,0.0,0.0,0.0,0.0,0.0,0.0,0.0,0.0,0.0,0.0,0.0,0.0,0.0,0.0,0.0,0.0,0.0,0.0,0.0,0.0,0.0,0.0,-0.0,-0.097,-0.2381,-0.4392,-0.354,-0.3423,-0.449,-0.4646,-0.4766,-0.4847,-0.4992,-0.5138,-0.5284,-0.5335,-0.5428,-0.5428,-0.5428,-0.5521,-0.582,-0.6142,-0.6288,-0.6217,-0.4789,-0.251,-0.0,-0.0,-0.0,-0.0,-0.0,-0.0,-0.0,1.7559,0.0,0.0,0.0,0.0,0.0,0.0,0.0,0.0,0.0,0.8326,0.0,0.9987,0.0,-0.0243,0.0,-0.3595,-0.2943,-0.1375,-0.0469,0.0,-0.057,0.1137,0.0,0.0,0.0,0.0,0.8514,0.9687,0.9784,0.0,0.0,0.0,0.0,0.0,0.0,0.5518,0.0,-0.2031,0.0,0.0,-0.3579,0.0,0.0,-0.3433,-0.354,0.0,-0.3266,-0.3736,-0.3708,-0.367,-0.3673,-0.3602,-0.3615,-0.3736,-0.4204,-0.4658,-0.5105,-0.5342,-0.5883,0.0,-0.5761,-0.571,0.0,-0.5829,0.0,-0.5467,0.0,0.0,0.0,0.0,0.0,0.0,0.0,0.0,0.0,0.0,-0.0,0.0,0.0,0.0,0.0,0.0,0.0,-0.0,-0.0,-0.0,-0.1333,0.0,-0.4514,-0.4504,-0.448,-0.4687,-0.4838,-0.4918,-0.506,-0.5209,-0.5428,-0.5428,-0.5428,-0.5428,-0.5428,-0.5504,-0.5772,-0.6135,-0.5892,-0.5254,-0.598,-0.3805,-0.0,-0.0,-0.0,-0.0,-0.0,-0.0,-0.0,0.0,0.0,0.0,0.0,1.4642,0.0,0.0,0.0,0.9386,0.0,0.4474,0.3037,-0.0645,-0.2591,-0.3611,-0.3607,-0.3618,-0.3581,-0.3581,-0.2536,0.0,0.0,-0.2049,-0.0975,-0.0176,0.0,0.0,0.0,0.0,0.0,0.0,0.0,0.0,0.0,0.5412,0.0,0.5505,0.1966,-0.11,-0.3605,-0.3595,-0.3592,-0.3538,-0.2994,-0.3097,-0.3656,-0.3829,-0.3949,-0.4,-0.388,-0.3849,-0.386,-0.3663,-0.3739,-0.4018,-0.4901,-0.5283,-0.5587,-0.6252,-0.6468,-0.6472,-0.6297,-0.6293,0.0,0.0,0.0,-0.5341,0.0,0.0,0.0,0.0,0.0,0.0,0.0,0.0,0.0,0.0,0.0,0.0,0.0,0.0,0.0,0.0,-0.0,-0.0,-0.0,-0.0,0.0,0.0,-0.4455,-0.4504,-0.449,-0.4697,-0.4848,-0.4928,-0.507,-0.5216,-0.5428,-0.5428,-0.5428,-0.5428,-0.5428,-0.5538,-0.5751,-0.6101,-0.5087,-0.3276,-0.5185,-0.363,-0.0,-0.0,-0.0,-0.0,-0.0,-0.0,-0.0,1.5023,1.5229,1.5347,0.0,1.425,1.3801,0.0,0.0,0.0,0.0,0.2865,0.0467,-0.2587,-0.3306,-0.3608,-0.3594,-0.3602,0.0,0.0,0.0,0.0,-0.3534,-0.326,-0.2995,-0.2696,-0.1369,0.0,-0.2538,0.0,0.0,0.2179,0.0,0.0,0.0,0.0,0.0,0.468,0.2624,-0.0438,-0.3801,-0.3787,-0.38,-0.3811,0.0,-0.3781,-0.4035,-0.4086,-0.4139,-0.4144,-0.4124,-0.4127,-0.412,-0.3948,-0.4316,-0.4857,-0.5344,-0.6167,-0.6968,-0.7177,-0.7683,-0.8032,-0.7483,-0.7309,-0.71,0.0,0.0,0.0,0.0,0.0,0.0,0.0,0.0,0.0,0.0,0.0,0.0,0.0,0.0,0.0,-0.3056,0.0,0.0,-0.0,-0.0,-0.0,-0.0,-0.0,0.0,0.0,0.0,-0.4541,-0.4633,-0.4785,-0.4935,-0.5074,-0.5226,-0.5321,-0.5428,-0.5428,-0.5428,-0.5428,-0.5428,-0.545,-0.5627,-0.6099,-0.5098,-0.305,-0.2023,-0.0949,-0.0,-0.0,-0.0,-0.0,-0.0,-0.0,-0.0,1.3522,0.0,0.0,1.3584,0.0,0.0,1.1588,0.0,0.0,0.2268,-0.0422,0.0,-0.3949,-0.4062,-0.4056,-0.3965,-0.4355,0.0,-0.4115,0.0,0.0,-0.4195,-0.4195,-0.3985,-0.3615,-0.2802,0.0,-0.4287,0.0,0.0,-0.0367,0.0,0.0,0.0,0.0,0.3845,0.0,0.1477,-0.135,-0.39,-0.3872,-0.3936,0.0,-0.4043,-0.4281,-0.467,-0.4748,-0.4521,-0.4199,-0.4199,-0.4199,-0.4178,-0.406,-0.4311,-0.4782,-0.5311,-0.6241,-0.7188,-0.75,-0.7927,-0.8209,-0.783,-0.7456,-0.702,-0.6308,-0.6091,-0.6166,0.0,-0.677,-0.6837,0.0,0.0,0.0,0.0,0.0,0.0,0.0,0.0,0.0,0.0,-0.2589,0.0,-0.1032,-0.0376,-0.054,-0.1846,-0.1991,0.0,0.0,0.0,-0.4676,-0.4691,-0.4901,-0.505,-0.5131,-0.5284,-0.5428,-0.5428,-0.5428,-0.5428,-0.5428,-0.5428,-0.5504,-0.5762,-0.6005,-0.4914,-0.2914,-0.0857,-0.0,-0.0,-0.0,-0.1261,-0.309,-0.3074,-0.3129,-0.3145,0.0,0.0,0.0,0.0,0.0,0.0,0.0,0.482,0.0,-0.1781,0.0,-0.5227,-0.4809,-0.4763,-0.47,-0.4517,0.0,-0.5515,-0.4809,-0.5105,-0.5242,-0.5069,-0.4866,-0.4408,-0.3626,-0.3755,0.0,0.0,0.0,0.0,0.0,0.0,0.0,0.0,0.0,0.0,0.0,-0.0614,-0.2887,-0.3983,-0.4006,-0.4138,-0.4379,-0.4379,-0.4846,-0.5488,-0.5595,-0.5073,-0.4379,-0.4379,-0.433,-0.42,-0.4121,-0.422,-0.4481,-0.5157,-0.6014,-0.6858,-0.7396,-0.7616,-0.767,-0.745,-0.6907,-0.6258,-0.5542,-0.5433,-0.5706,-0.6421,-0.6696,-0.6966,0.0,0.0,0.0,0.0,0.0,0.0,0.0,0.0,0.0,0.0,0.0,0.0,-0.2623,-0.1142,-0.1355,-0.3987,0.0,0.0,0.0,0.0,-0.4749,-0.4721,-0.4969,-0.5131,-0.5189,-0.5304,-0.5439,-0.5459,-0.5435,-0.5439,-0.5459,-0.5459,-0.5593,-0.5942,-0.5835,-0.4938,-0.3344,-0.1249,-0.0235,-0.0079,-0.0716,-0.3425,-0.7139,-0.7139,-0.7139,-0.7231,0.0,0.0,0.0,0.0,0.0,0.2751,0.0342,0.0146,-0.1021,-0.4683,-0.552,-0.5636,-0.5232,-0.5203,-0.5178,-0.513,-0.5303,0.0,0.0,0.0,0.0,-0.5247,-0.5203,-0.4705,-0.3622,-0.453,-0.5474,0.0,0.0,0.0,0.0,0.0,0.0,0.0,0.0,0.0,-0.2872,-0.2401,0.0,-0.4358,-0.4222,-0.4605,-0.5279,-0.5279,-0.5716,-0.6372,-0.6406,-0.5905,-0.5279,-0.5279,-0.4907,-0.4419,-0.4392,-0.483,-0.5279,-0.5441,-0.644,-0.7396,-0.6912,-0.7235,-0.7396,-0.6195,-0.5814,-0.5487,-0.4842,-0.5109,-0.5706,-0.6421,-0.7074,-0.7563,-0.767,0.0,0.0,0.0,0.0,0.0,0.0,0.0,0.0,0.0,0.0,-0.5665,0.0,-0.272,0.0,0.0,0.0,0.0,0.0,0.0,-0.4629,0.0,-0.4928,0.0,0.0,0.0,-0.5423,-0.5549,-0.542,-0.543,-0.5549,-0.5549,-0.565,-0.5837,-0.5902,-0.5751,-0.5327,-0.3332,-0.1565,-0.0395,-0.4329,-0.634,-0.7139,-0.7139,-0.7139,-0.7227,0.0,0.0,0.0,0.0,0.0,0.0,0.0,-0.3609,0.0,-0.5543,-0.6163,-0.6316,-0.5914,-0.607,-0.6081,-0.5787,-0.6039,-0.6076,-0.5787,-0.6039,-0.6161,-0.6161,-0.6161,0.0,-0.5389,-0.5905,-0.6465,-0.6979,0.0,0.0,0.0,0.0,0.0,0.0,0.0,-0.2724,0.0,0.0,0.0,-0.523,-0.4946,-0.5362,-0.6091,-0.6091,-0.6529,-0.7182,-0.7182,-0.6961,-0.6578,-0.6199,-0.5878,-0.5609,-0.5609,-0.5823,-0.6091,-0.6091,-0.6853,-0.7616,-0.7289,-0.7128,-0.6961,-0.6253,-0.5546,-0.4893,-0.457,-0.4732,-0.5277,-0.6372,-0.6858,-0.7343,-0.8156,-0.767,0.0,0.0,0.0,0.0,0.0,0.0,0.0,0.0,0.0,0.0,0.0,0.0,0.0,0.0,0.0,0.0,0.0,0.0,-0.4772,0.0,0.0,0.0,-0.5586,0.0,-0.5552,-0.5698,-0.5549,-0.5555,-0.5698,-0.5623,-0.5711,-0.5925,-0.6003,-0.6084,-0.6093,-0.5148,-0.4318,-0.3895,-0.6227,-0.7139,-0.7139,-0.7139,-0.7139,-0.7183,0.0,0.1316,0.0,0.0,-0.2891,0.0,-0.5052,-0.6222,-0.6747,-0.6035,-0.6542,-0.686,-0.6582,-0.681,-0.681,-0.6392,-0.6768,-0.681,-0.6392,-0.6768,-0.6979,-0.6979,-0.6979,-0.6979,-0.6979,-0.7101,-0.7168,0.0,0.0,0.0,0.0,0.0,0.0,0.0,0.0,0.0,0.0,0.0,-0.5301,-0.6009,-0.5823,-0.6199,-0.6858,-0.6858,-0.7289,-0.7943,-0.7943,-0.7943,-0.783,-0.7235,-0.675,-0.6367,-0.6534,-0.6372,-0.6204,-0.6534,-0.702,-0.745,-0.745,-0.702,-0.6588,-0.6421,-0.5441,-0.4519,-0.4519,-0.4519,-0.4897,-0.6317,-0.6858,-0.7402,-0.8593,-0.8321,0.0,0.0,0.0,0.0,0.0,0.0,0.0,0.0,0.0,0.0,-0.576,0.0,0.0,0.0,0.0,0.0,-0.4567,0.0,0.0,0.0,0.0,-0.5355,-0.5538,0.0,-0.5661,-0.58,-0.5657,-0.5681,-0.5844,-0.5701,-0.5796,-0.6078,-0.6078,-0.6169,-0.6315,-0.6298,-0.6585,-0.7049,-0.7042,-0.7139,-0.7146,-0.7214,-0.7278,-0.7329,0.0,0.0,0.0,0.0,0.0,0.0,-0.5898,-0.6906,-0.7668,-0.7367,-0.7121,-0.6999,-0.6934,-0.6999,-0.6979,-0.6937,-0.6979,-0.6979,-0.6937,-0.6979,-0.6979,-0.6979,-0.6979,-0.6979,-0.6979,-0.7368,-0.7649,0.0,0.0,-0.6897,0.0,0.0,0.0,0.0,0.0,0.0,0.0,-0.5686,-0.6064,-0.6539,-0.6534,-0.6966,-0.7616,-0.7616,-0.8049,-0.8699,-0.8699,-0.8699,-0.8699,-0.8593,-0.7278,-0.5706,-0.6367,-0.5719,-0.4952,-0.6209,-0.6642,-0.6696,-0.6696,-0.6642,-0.6421,-0.576,-0.5058,-0.4519,-0.4519,-0.4519,-0.4897,-0.6317,-0.767,-0.8646,-0.8752,-0.8752,-0.848,0.0,0.0,0.0,0.0,0.0,-0.5715,-0.5715,0.0,0.0,0.0,-0.648,0.0,0.0,-0.4842,0.0,0.0,0.0,0.0,-0.4911,-0.4945,-0.5098,-0.5449,-0.5521,-0.5661,-0.58,-0.5657,-0.5739,-0.6003,-0.585,-0.5949,-0.624,-0.624,-0.6322,-0.6444,-0.6318,-0.6503,-0.6785,-0.7017,-0.7139,-0.7173,-0.7455,-0.7726,-0.7953,0.0,0.0,0.0,0.0,0.0,0.0,0.0,-0.7401,-0.7687,-0.717,-0.7045,-0.6979,-0.6979,-0.6979,-0.6852,-0.6562,-0.681,-0.6852,-0.6562,-0.681,-0.7101,-0.7281,-0.7288,-0.7375,-0.7516,-0.7595,-0.7769,0.0,0.0,0.0,0.0,0.0,0.0,0.0,0.0,-0.6128,-0.5937,-0.6218,-0.6701,-0.7235,-0.7235,-0.7723,-0.8374,-0.8374,-0.8533,-0.8804,-0.8804,-0.8804,-0.8804,-0.8804,-0.8203,-0.7551,-0.783,-0.7557,-0.7176,-0.7777,-0.7937,-0.783,-0.7396,-0.6912,-0.6421,-0.5706,-0.5003,-0.4519,-0.4519,-0.4519,-0.4897,-0.6317,-0.7402,-0.8156,-0.8156,-0.8156,-0.8049,-0.7723,0.0,0.0,0.0,0.0,0.0,-0.6691,0.0,-0.7897,0.0,0.0,0.0,0.0,0.0,0.0,0.0,0.0,0.0,-0.4779,0.0,-0.524,-0.5425,-0.5511,-0.5661,-0.58,-0.5742,-0.5827,-0.6027,-0.5966,-0.6057,-0.6268,-0.6349,-0.6441,-0.6529,-0.6586,-0.6749,-0.6976,-0.7095,-0.7255,-0.7424,-0.7482,-0.7729,-0.8038,-0.6874,0.0,-0.682,0.0,-0.7128,-0.7261,-0.7214,-0.7623,-0.77,-0.7066,-0.702,-0.6979,-0.6979,-0.6979,-0.6852,-0.6477,-0.6471,-0.6514,-0.6625,-0.6875,-0.7194,-0.7589,-0.756,0.0,-0.7875,-0.7862,-0.7976,-0.827,-0.8631,0.0,0.0,0.0,0.0,0.0,-0.6455,-0.6766,-0.6465,-0.6745,-0.7289,-0.8049,-0.8049,-0.8321,-0.8804,-0.8804,-0.8804,-0.8804,-0.8804,-0.8804,-0.8804,-0.8804,-0.8804,-0.8804,-0.8804,-0.848,-0.8262,-0.8699,-0.8646,-0.8427,-0.8103,-0.7509,-0.6799,-0.6249,-0.5601,-0.5117,-0.5117,-0.5117,-0.5391,-0.6372,-0.7182,-0.7723,-0.7723,-0.7883,-0.8049,-0.8049,0.0,0.0,0.0,-0.7645,0.0,0.0,-0.808,-0.8417,-0.8497,-0.8341,0.0,0.0,0.0,0.0,0.0,0.0,0.0,0.0,0.0,0.0,-0.5294,-0.5802,-0.5983,-0.58,-0.5847,-0.5949,-0.6098,-0.6098,-0.6159,-0.6349,-0.6427,-0.6539,-0.6614,-0.6773,-0.6959,-0.7139,-0.7139,-0.7309,-0.7543,-0.7468,-0.7638,-0.7923,-0.6912,-0.7777,-0.815,-0.6244,-0.7492,-0.8352,-0.6996,-0.7449,-0.7822,-0.7508,-0.7208,-0.6979,-0.6979,-0.6979,-0.6979,-0.6979,-0.5947,-0.5952,-0.7484,-0.7235,-0.7244,0.0,0.0,-0.7615,-0.7875,-0.8216,-0.842,-0.8377,0.0,0.0,-0.8758,0.0,-0.7348,-0.7348,-0.6357,-0.6573,-0.767,-0.7456,-0.7943,-0.8804,-0.8804,-0.8804,-0.8804,-0.8804,-0.8804,-0.8804,-0.8804,-0.8804,-0.8804,-0.8804,-0.8804,-0.8804,-0.8804,-0.7777,-0.6912,-0.8374,-0.8262,-0.7883,-0.8593,-0.8262,-0.767,-0.767,-0.7128,-0.6588,-0.6588,-0.6588,-0.6588,-0.6588,-0.7182,-0.7723,-0.7723,-0.8321,-0.8804,-0.8804,0.0,0.0,0.0,-0.8416,0.0,-0.8416,-0.865,-0.8871,-0.9157,-0.8565,0.0,0.0,0.0,0.0,0.0,0.0,0.0,-0.5114,-0.5947,0.0,-0.5131,-0.6394,-0.6651,-0.5803,-0.5956,-0.6108,-0.6257,-0.6257,-0.6335,-0.6349,-0.6471,-0.6614,-0.6705,-0.68,-0.6959,-0.7139,-0.7139,-0.7265,-0.7441,-0.7441,-0.7509,-0.7648,-0.8209,-0.767,-0.7235,-0.6961,-0.6848,-0.6919,-0.7145,-0.7617,-0.7693,-0.7107,-0.7013,-0.6979,-0.6979,-0.6979,-0.6859,0.0,-0.5739,-0.5696,0.0,-0.762,-0.815,-0.7888,-0.8029,-0.8223,-0.8524,-0.8624,-0.8671,-0.8671,0.0,0.0,0.0,-0.848,-0.8374,-0.8321,-0.8043,-0.8096,-0.8427,-0.8374,-0.854,-0.8804,-0.8804,-0.8804,-0.8804,-0.8804,-0.8804,-0.8804,-0.8804,-0.8804,-0.8804,-0.8804,-0.8804,-0.8804,-0.8804,-0.848,-0.8209,-0.8646,-0.8646,-0.8374,-0.8103,-0.7883,-0.7563,-0.7074,-0.6924,-0.6809,-0.6192,-0.6578,-0.6927,-0.6323,-0.7321,-0.8303,-0.8303,-0.8335,-0.8607,-0.9316,-0.9323,0.0,-0.9515,0.0,-0.9541,-0.9541,-0.963,-0.9733,-0.9826,-0.9597,0.0,0.0,0.0,0.0,0.0,0.0,0.0,0.0,-0.6311,0.0,-0.7205,-0.7741,-0.7572,-0.6789,-0.6968,-0.678,-0.6338,-0.6338,-0.6315,-0.641,-0.6515,-0.6671,-0.6865,-0.6993,-0.7082,-0.7149,-0.7255,-0.7356,-0.7455,-0.7594,-0.7753,-0.7913,-0.8804,-0.8049,-0.7182,-0.6421,-0.6686,-0.7224,-0.783,-0.7898,-0.7732,-0.7277,-0.7071,-0.7065,-0.7291,-0.7118,0.0,-0.652,-0.6167,-0.6206,-0.6817,-0.7798,-0.8323,-0.8263,-0.833,-0.851,-0.8798,-0.8804,0.0,-0.8804,-0.8804,-0.8804,-0.8804,-0.8804,-0.8804,-0.8804,-0.8804,-0.8804,-0.8804,-0.8804,-0.8804,-0.8804,-0.8804,-0.8804,-0.8804,-0.8804,-0.8804,-0.8804,-0.8804,-0.8804,-0.8804,-0.8804,-0.8804,-0.8804,-0.8804,-0.8804,-0.8804,-0.8804,-0.8804,-0.8699,-0.8262,-0.8176,-0.8142,-0.7701,-0.7605,-0.7381,-0.6513,-0.6783,-0.7131,-0.6585,-0.7608,-0.861,-0.861,-0.871,-0.8947,-0.9595,-0.9773,-0.9913,-1.0094,0.0,-1.0114,0.0,0.0,0.0,0.0,-1.0114,-0.9899,0.0,0.0,0.0,0.0,0.0,-0.5918,-0.6865,-0.7505,-0.7946,-0.8275,-0.8858,-0.8749,-0.7964,-0.7729,-0.7399,-0.6958,-0.6599,-0.6441,-0.6566,-0.6715,-0.6837,-0.6946,-0.7143,-0.7227,-0.7238,-0.7353,-0.7461,-0.755,-0.7526,-0.7736,-0.8038,-0.8804,-0.8804,-0.7937,0.0,-0.7015,0.0,-0.8804,-0.8323,-0.7902,-0.7902,-0.7364,-0.7204,-0.7795,-0.737,-0.7038,-0.7038,0.0,0.0,-0.7842,-0.7756,-0.7989,-0.8744,-0.8537,-0.853,-0.8798,-0.8804,-0.8804,-0.8804,-0.8804,-0.8804,-0.8804,-0.8804,-0.8804,-0.8804,-0.8804,-0.8804,-0.8804,-0.8804,-0.8804,-0.8804,-0.8804,-0.8804,-0.8804,-0.8804,-0.8804,-0.8804,-0.8804,-0.8804,-0.8804,-0.8804,-0.8804,-0.8811,-0.8831,-0.8838,-0.8838,-0.8838,-0.8838,-0.8844,-0.8864,-0.9065,-0.9216,-0.9216,-0.8782,-0.8145,-0.7379,-0.727,-0.7389,-0.7434,-0.8108,-0.8723,-0.8723,-0.9311,-0.9719,-0.974,-0.9953,-1.0127,-1.0147,-1.0147,-1.0147,0.0,0.0,0.0,-1.0147,-1.018,-1.0294,0.0,0.0,0.0,0.0,0.0,-0.6931,-0.8081,-0.9113,-0.9321,-0.8648,-0.9873,-1.0052,-0.9202,-0.8298,-0.7949,-0.797,-0.7024,-0.663,-0.6732,-0.7017,-0.7065,-0.6966,-0.7251,-0.7363,-0.7363,-0.7434,-0.7556,-0.7658,-0.7326,-0.7556,-0.8038,0.0,0.0,-0.8593,-0.7883,-0.8368,-0.8804,-0.8804,-0.8437,-0.8156,-0.8156,-0.7488,-0.7188,-0.7635,-0.7702,-0.7669,-0.7669,-0.7244,-0.7238,-0.7842,-0.8023,-0.8196,-0.8464,-0.8624,-0.8738,-0.8804,-0.8804,-0.8804,-0.8804,-0.8804,-0.8804,-0.8804,-0.8804,-0.8804,-0.8804,-0.8804,-0.8804,-0.8804,-0.8804,-0.8804,-0.8804,-0.8804,-0.8804,-0.8804,-0.8804,-0.8804,-0.8804,-0.8804,-0.8804,-0.8804,-0.8804,-0.8804,-0.8844,-0.9065,-0.9084,-0.9084,-0.9084,-0.9084,-0.9185,-0.9419,-0.9526,-0.9579,-0.9579,-0.8652,-0.7854,-0.8409,-0.8183,-0.8007,-0.851,-0.9439,-1.0161,-1.0161,-1.0038,-1.0087,-1.0376,-1.0221,-1.0194,-1.0421,-1.0454,-1.0454,0.0,-1.0456,-1.0468,-1.0755,-1.0788,-1.0815,0.0,0.0,0.0,-1.0562,-0.9563,-0.9009,-0.9011,-0.9454,-1.0013,-1.0691,-1.1256,-1.1166,-1.0399,-0.9417,-0.8639,-0.7974,-0.717,-0.681,-0.6885,-0.7061,-0.7122,-0.7105,-0.7292,-0.7302,-0.7227,-0.7543,-0.7509,-0.7326,-0.7692,-0.7916,-0.8038,-0.8804,-0.8804,-0.8804,-0.8804,-0.8804,-0.8804,-0.8804,-0.8477,-0.819,-0.8054,-0.7424,-0.7208,-0.7702,-0.8096,-0.8257,-0.8034,-0.7762,-0.7629,-0.7769,-0.8103,-0.8377,-0.8564,-0.8724,-0.8804,-0.8804,-0.8804,-0.8804,-0.8804,-0.8804,-0.8804,-0.8804,-0.8804,-0.8804,-0.8804,-0.8804,-0.8804,-0.8804,-0.8804,-0.8804,-0.8804,-0.8804,-0.8804,-0.8804,-0.8804,-0.8804,-0.8824,-0.8958,-0.8918,-0.8844,-0.9118,-0.9118,-0.9058,-0.9345,-0.9446,-0.9466,-0.9599,-0.9546,-0.9479,-0.9639,-0.978,-0.9794,-0.9564,-0.8889,-0.8354,-0.8543,-0.8584,-0.8709,-0.908,-0.9932,-1.0624,-1.0624,-1.0428,-1.0374,-1.0598,-1.0421,-1.0374,-1.0598,-1.0624,-1.0672,-1.0742,-1.0755,-1.0868,-1.1162,-1.1189,-1.1189,-1.1189,-1.0779,0.0,-1.1189,-1.0779,-1.0508,-1.0296,-1.0553,-1.0981,-1.163,-1.1924,-1.1991,-1.1734,-1.0673,-1.0006,-0.9756,-0.8309,-0.7695,-0.7805,-0.7281,-0.7139,-0.7156,-0.7383,-0.7428,-0.7387,-0.774,-0.7743,-0.759,-0.7919,-0.8038,-0.8038,-0.8804,-0.8804,-0.8804,-0.8804,-0.8804,-0.8804,-0.8804,-0.8524,-0.825,-0.8034,-0.7609,-0.7488,-0.7961,-0.851,-0.8671,-0.8337,-0.823,-0.8049,-0.7742,-0.8116,-0.849,-0.8791,-0.8804,-0.8804,-0.8804,-0.8804,-0.8804,-0.8804,-0.8804,-0.8804,-0.8804,-0.8804,-0.8804,-0.8804,-0.8804,-0.8804,-0.8804,-0.8804,-0.8804,-0.8804,-0.8804,-0.8804,-0.8804,-0.8804,-0.8804,-0.8838,-0.9085,-0.9045,-0.8951,-0.9452,-0.9479,-0.9359,-0.9659,-0.9746,-0.9806,-1.01,-1.0007,-0.9813,-0.9813,-0.9993,-1.0056,-0.9603,-0.9402,-0.9139,-0.8544,-0.8877,-0.9338,-0.9466,-1.011,-1.0624,-1.0624,-1.0624,-1.0624,-1.0624,-1.0624,-1.0624,-1.0624,0.0,-1.0715,-1.0962,-1.1035,-1.1176,-1.1463,-1.149,-1.153,-1.1617,-1.1583,-1.1577,-1.1623,-1.1583,-1.1557,-1.1557,-1.1764,-1.1911,-1.1997,-1.2245,-1.2518,-1.2819,-1.1958,-1.1659,-1.1863,-0.9863,-0.8893,-0.884,-0.7676,-0.7153,-0.7193,-0.7458,-0.7587,-0.7648,-0.7929,-0.8038,-0.8038,-0.8038,-0.8038,-0.8038,-0.8804,-0.8804,-0.8804,-0.8804,-0.8804,-0.8804,-0.8804,-0.8758,-0.8704,-0.8677,-0.8591,-0.8564,-0.8664,-0.8751,-0.8784,-0.8724,-0.8263,-0.8056,-0.8243,-0.825,-0.841,-0.8791,-0.8804,-0.8804,-0.8804,-0.8804,-0.8804,-0.8804,-0.8804,-0.8804,-0.8804,-0.8804,-0.8804,-0.8804,-0.8804,-0.8804,-0.8804,-0.8804,-0.8804,-0.8804,-0.8804,-0.8804,-0.8804,-0.8804,-0.8804,-0.8811,-0.8858,-0.9005,-0.913,-0.9223,-0.9446,-0.9666,-0.996,-1.0047,-1.0107,-1.0408,-1.0461,-1.049,-1.049,-1.0517,-1.0501,-1.0421,-0.9849,-0.9466,-1.004,-0.9722,-0.953,-1.0238,-1.0498,-1.0624,-1.0624,-1.0624,-1.0624,-1.0624,-1.0624,-1.0624,-1.0624,0.0,-1.0942,-1.0989,-1.1209,-1.1476,-1.177,-1.1797,-1.2004,-1.2505,-1.2305,-1.2271,-1.26,-1.2305,-1.2164,-1.2164,-1.1971,-1.2104,-1.2681,-1.2728,-1.2832,-1.314,-1.2975,-1.2574,-1.1863,-1.0533,-0.9647,-0.9016,-0.7634,-0.7214,-0.7339,-0.7387,-0.7529,-0.774,-0.7953,-0.8038,-0.8038,-0.8038,-0.8038,-0.8038,-0.8804,-0.8804,-0.8804,-0.8804,-0.8804,-0.8804,-0.8804,-0.8804,-0.8804,-0.8804,-0.8804,-0.8804,-0.8804,-0.8804,-0.8804,-0.8804,-0.8557,-0.8323,-0.815,-0.839,-0.8617,-0.8798,-0.8804,-0.8804,-0.8804,-0.8804,-0.8804,-0.8804,-0.8804,-0.8804,-0.8804,-0.8804,-0.8804,-0.8804,-0.8804,-0.8804,-0.8804,-0.8804,-0.8804,-0.8804,-0.8804,-0.8804,-0.8824,-0.8978,-0.9038,-0.9085,-0.9399,-0.9499,-0.9526,-0.9846,-0.9933,-0.9967,-1.0261,-1.0354,-1.0381,-1.0521,-1.0624,-1.0624,-1.0624,-1.0624,-1.0658,-1.0755,-1.0529,-1.0373,-1.0923,-1.0691,-1.0552,-1.0963,-1.1022,-1.1022,-1.1022,-1.1022,-1.1022,-1.1022,-1.1022,-1.1022,-1.1022,-1.1142,-1.1283,-1.1443,-1.1583,-1.1844,-1.2372,-1.2412,-1.2526,-1.2802,-1.2772,-1.2779,-1.2829,-1.2772,-1.2792,-1.2792,-1.2498,-1.2627,-1.2993,-1.2999,-1.3146,-1.3447,-1.3447,-1.3261,-1.3027,-1.2043,-1.1009,-0.9961,-0.8898,-0.8055,-0.7499,-0.7577,-0.7675,-0.7794,-0.797,-0.8038,-0.8038,-0.8038,-0.8038,-0.8038,-0.8804,-0.8804,-0.8804,-0.8804,-0.8804,-0.8804,-0.8804,-0.8804,-0.8804,-0.8804,-0.8804,-0.8804,-0.8804,-0.8804,-0.8804,-0.8804,-0.8804,-0.8617,-0.8163,-0.8557,-0.8804,-0.8804,-0.8804,-0.8804,-0.8804,-0.8804,-0.8804,-0.8804,-0.8804,-0.8804,-0.8804,-0.8804,-0.8804,-0.8804,-0.8804,-0.8804,-0.8804,-0.8804,-0.8804,-0.8804,-0.8804,-0.8804,-0.8838,-0.907,-0.9183,-0.9256,-0.9826,-0.9913,-0.9853,-1.0301,-1.0347,-1.0261,-1.0488,-1.0672,-1.0661,-1.0661,-1.0708,-1.0748,-1.0681,-1.0715,-1.0815,-1.1035,-1.1096,-1.1149,-1.1376,-1.1423,-1.1423,-1.1423,-1.1423,-1.1423,-1.1423,-1.1423,-1.1423,-1.1423,0.0,-1.1423,-1.1423,-1.1483,-1.1617,-1.1844,-1.1931,-1.2178,-1.2768,-1.2822,-1.2882,-1.2946,-1.3113,-1.3133,-1.2966,-1.312,-1.324,-1.3307,-1.3013,-1.2999,-1.3307,-1.3313,-1.346,-1.3748,-1.3814,-1.3794,-1.3756,-1.3142,-1.2215,-1.0925,-1.0301,-0.9274,-0.8121,-0.82,-0.8065,-0.7824,-0.794,-0.8007,-0.8038,-0.8038,-0.8038,-0.8038,-0.8804,-0.8804,-0.8804,-0.8804,-0.8804,-0.8804,-0.8804,-0.8804,-0.8804,-0.8804,-0.8804,-0.8804,-0.8804,-0.8804,-0.8804,-0.8804,-0.8804,-0.8791,-0.8744,-0.8784,-0.8804,-0.8804,-0.8804,-0.8804,-0.8804,-0.8804,-0.8804,-0.8804,-0.8804,-0.8804,-0.8804,-0.8804,-0.8804,-0.8804,-0.8804,-0.8804,-0.8804,-0.8804,-0.8804,-0.8804,-0.8804,-0.8804,-0.8838,-0.907,-0.9183,-0.9223,-0.9599,-0.9873,-1.0094,-1.0134,-1.0314,-1.0598,-1.0618,-1.0742,-1.0962,-1.0962,-1.1149,-1.1303,-1.1035,-1.1156,-1.1369,-1.139,-1.1396,-1.1403,-1.1423,-1.1423,-1.1423,-1.1423,-1.1423,-1.1423,-1.1423,-1.1423,-1.1423,-1.1423,0.0,0.0,-1.1423,-1.1663,-1.1844,-1.1864,-1.2104,-1.2398,-1.2795,-1.2822,-1.2979,-1.3534,-1.3347,-1.332,-1.3567,-1.3347,-1.3333,-1.3519,-1.3327,-1.3313,-1.3607,-1.3614,-1.3761,-1.4055,-1.4329,-1.3841,-1.2709,-1.3064,-1.2567,-1.1442,-1.1349,-1.0739,-0.9589,-0.9422,-0.871,-0.7814,-0.7824,-0.7916,-0.8038,-0.8038,-0.8038,-0.8038,-0.8804,-0.8804,-0.8804,-0.8804,-0.8804,-0.8804,-0.8804,-0.8804,-0.8804,-0.8804,-0.8804,-0.8804,-0.8804,-0.8804,-0.8804,-0.8804,-0.8804,-0.8804,-0.8804,-0.8804,-0.8804,-0.8804,-0.8804,-0.8804,-0.8804,-0.8804,-0.8804,-0.8804,-0.8804,-0.8804,-0.8804,-0.8804,-0.8804,-0.8804,-0.8804,-0.8911,-0.9072,-0.9072,-0.9178,-0.9352,-0.9352,-0.9352,-0.9385,-0.9673,-0.9786,-0.982,-1.012,-1.0294,-1.0421,-1.0601,-1.0735,-1.0862,-1.1042,-1.1176,-1.1263,-1.1263,-1.1874,-1.2567,-1.2445,-1.1888,-1.147,-1.1657,-1.2186,-1.2438,-1.2067,-1.2877,-1.3567,-1.2948,-1.3294,-1.3575,-1.2948,-1.2971,-1.2961,-1.2391,0.0,-1.2532,-1.2532,-1.2632,-1.2699,-1.2699,-1.2799,-1.2979,-1.3273,-1.33,-1.3394,-1.3546,-1.3714,-1.3721,-1.3647,-1.3714,-1.3808,-1.3915,-1.3814,-1.3808,-1.3915,-1.3915,-1.4068,-1.4355,-1.4469,-1.4346,-1.4072,-1.4449,-1.3871,-1.2731,-1.2892,-1.2305,-1.1042,-1.0477,-0.982,-0.9116,-0.8245,-0.7987,-0.8038,-0.8038,-0.8038,-0.8038,-1.0079,-0.9368,-0.8804,-0.8804,-0.8804,-0.8804,-0.8804,-0.8804,-0.9113,-0.9984,-1.0079,-0.9925,-0.9465,-0.9061,-0.8804,-0.8804,-0.8804,-0.8804,-0.8804,-0.8804,-0.8804,-0.8804,-0.8804,-0.8804,-0.8804,-0.8804,-0.8804,-0.8804,-0.8804,-0.8804,-0.8811,-0.8898,-0.8945,-0.8945,-0.9038,-0.9192,-0.9379,-0.9379,-0.9499,-0.9686,-0.9686,-0.9686,-0.9713,-1.0007,-1.0114,-1.0167,-1.0561,-1.0759,-1.0742,-1.1035,-1.1329,-1.1622,-1.1831,-1.2161,-1.2459,-1.2553,-1.3229,-1.3902,-1.3902,-1.3244,-1.2639,-1.2863,-1.3409,-1.3846,-1.3455,-1.4462,-1.5217,-1.4676,-1.513,-1.5348,-1.4699,-1.4456,-1.4168,-1.3557,-1.3294,-1.3213,-1.3213,-1.3213,-1.3213,-1.3213,-1.3213,-1.3327,-1.3532,-1.3559,-1.3681,-1.3774,-1.3975,-1.4001,-1.3794,-1.4062,-1.4222,-1.4222,-1.4315,-1.4362,-1.4362,-1.4269,-1.4369,-1.4663,-1.475,-1.4718,-1.4546,-1.5206,-1.4765,-1.362,-1.4183,-1.3782,-1.2522,-1.2328,-1.1453,-0.9993,-0.8528,-0.8038,-0.8038,-0.8038,-0.8038,-0.8038,-1.2881,-1.0694,-0.8804,-0.8804,-0.8804,-0.8804,-0.8804,-0.8804,-0.9777,-1.252,-1.2881,-1.2363,-1.0973,-0.9614,-0.8804,-0.8804,-0.8804,-0.8804,-0.8804,-0.8804,-0.8804,-0.8804,-0.8804,-0.8804,-0.8804,-0.8804,-0.8804,-0.8804,-0.8804,-0.8804,-0.8818,-0.905,-0.919,-0.9196,-0.9552,-0.9686,-0.9686,-0.9686,-0.9686,-0.9693,-0.9693,-0.9693,-0.9726,-1.0013,-1.0127,-1.02,-1.0788,-1.0995,-1.1042,-1.1329,-1.2105,-1.2916,-1.2916,-1.3739,-1.4761,-1.5126,-1.5234,-1.5234,-1.5234,-1.5234,-1.5234,-1.5234,-1.5234,-1.5333,-1.5682,-1.5838,-1.5946,-1.6296,-1.6447,-1.6447,-1.6447,-1.5549,-1.4802,-1.4802,-1.3902,-1.322,-1.3227,-1.3227,-1.3227,-1.3227,-1.3227,-1.334,-1.3539,-1.3654,-1.3774,-1.4068,-1.4088,-1.4088,-1.4088,-1.4362,-1.4522,-1.4522,-1.481,-1.4963,-1.497,-1.4669,-1.4669,-1.497,-1.5257,-1.4731,-1.3496,-1.5113,-1.514,-1.3974,-1.5242,-1.5045,-1.3974,-1.5242,-1.3782,-1.0476,-0.8726,-0.8038,-0.8038,-0.8038,-0.8038,-0.8038,-1.2881,-1.0694,-0.8804,-0.8804,-0.8804,-0.8804,-0.8804,-0.8804,-0.9113,-0.9925,-1.1701,-1.2725,-1.2314,-1.1909,-1.166,-1.166,-1.166,-1.0846,-0.891,-0.8804,-0.8804,-0.8804,-0.8804,-0.8804,-0.8804,-0.8804,-0.8804,-0.8804,-0.8804,-0.8951,-0.9218,-0.9305,-0.9419,-0.9552,-0.9646,-0.9793,-0.9987,-0.9987,-1.0107,-1.0362,-1.0362,-1.0362,-1.0327,-1.0621,-1.0728,-1.0782,-1.1162,-1.1296,-1.1404,-1.2386,-1.291,-1.3362,-1.4212,-1.4776,-1.5093,-1.5201,-1.5658,-1.621,-1.621,-1.6845,-1.7211,-1.5584,-1.5934,-1.6445,-1.5894,-1.7078,-1.8073,-1.7591,-1.7989,-1.8212,-1.7543,-1.7595,-1.7242,-1.5648,-1.5634,-1.5433,-1.4609,-1.4442,-1.4442,-1.4442,-1.4442,-1.4396,-1.4275,-1.4255,-1.4208,-1.4095,-1.4275,-1.4389,-1.4389,-1.4669,-1.483,-1.483,-1.4917,-1.5064,-1.5264,-1.4977,-1.4977,-1.5264,-1.5357,-1.5312,-1.5119,-1.5596,-1.5629,-1.5242,-1.5635,-1.554,-1.5242,-1.5635,-1.4076,-1.1263,-0.892,-0.8038,-0.8038,-0.8038,-0.8038,-0.8038,-1.2881,-1.1551,-1.0438,-1.0438,-1.0438,-1.0438,-1.0438,-1.0438,-1.0438,-1.0438,-1.1859,-1.2881,-1.2881,-1.2881,-1.2881,-1.2881,-1.2412,-1.1141,-0.8962,-0.8804,-0.8804,-0.8804,-0.8804,-0.8804,-0.8804,-0.8804,-0.8804,-0.8804,-0.9272,-0.9499,-0.9506,-0.9586,-0.9686,-0.9806,-0.996,-1.0127,-1.0294,-1.0294,-1.0394,-1.0631,-1.0752,-1.0728,-1.0762,-1.1056,-1.1162,-1.1202,-1.1496,-1.1874,-1.2262,-1.313,-1.394,-1.4805,-1.5939,-1.6298,-1.6298,-1.6298,-1.6824,-1.7381,-1.7381,-1.8123,-1.8533,-1.718,-1.7451,-1.7897,-1.7512,-1.8499,-1.948,-1.9278,-1.9669,-1.9955,-1.9571,-1.951,-1.9,-1.7664,-1.7523,-1.7288,-1.6521,-1.6433,-1.6433,-1.6433,-1.6433,-1.636,-1.6161,-1.5712,-1.5127,-1.4536,-1.4596,-1.4696,-1.4696,-1.4977,-1.5137,-1.5137,-1.5244,-1.5391,-1.5565,-1.5391,-1.5391,-1.5565,-1.5565,-1.5658,-1.5832,-1.5832,-1.5832,-1.5832,-1.5832,-1.5832,-1.5832,-1.5832,-1.4854,-1.3307,-1.1741,-1.0284,-0.9015,-0.8821,-0.8432,-0.8038,-1.2881,-1.2881,-1.2881,-1.2881,-1.2881,-1.2881,-1.2881,-1.2881,-1.2881,-1.2881,-1.2881,-1.2881,-1.2881,-1.2881,-1.2881,-1.2881,-1.1742,-1.0474,-0.9263,-0.9166,-0.9061,-0.8811,-0.8911,-0.8965,-0.8965,-0.8965,-0.8965,-0.8965,-1.0033,-1.0349,-0.9766,-0.9947,-1.0027,-1.0047,-1.0463,-1.0645,-1.0608,-1.0665,-1.0678,-1.0661,-1.0922,-1.1035,-1.1062,-1.1417,-1.1532,-1.1503,-1.2009,-1.2678,-1.3419,-1.3784,-1.5226,-1.6853,-1.7725,-1.8008,-1.8008,-1.8008,-1.8301,-1.8562,-1.8562,-1.8984,-1.9346,-1.9394,-1.9404,-1.9502,-1.9883,-2.0,-2.0273,-2.1123,-2.1289,-2.1416,-2.1816,-2.1108,-2.0343,-2.0259,-1.9427,-1.8765,-1.8687,-1.8679,-1.8679,-1.8679,-1.8679,-1.8671,-1.8637,-1.7565,-1.6338,-1.5225,-1.5073,-1.5003,-1.5003,-1.5277,-1.5438,-1.5438,-1.5691,-1.5832,-1.5832,-1.5832,-1.5832,-1.5832,-1.5832,-1.5832,-1.5832,-1.5832,-1.5832,-1.5832,-1.5832,-1.5832,-1.5832,-1.5832,-1.5832,-1.5832,-1.5832,-1.3686,-1.0672,-1.019,-0.9118,-0.8038,-1.2881,-1.2881,-1.2881,-1.2881,-1.2881,-1.2881,-1.2881,-1.2881,-1.2881,-1.2881,-1.2881,-1.2881,-1.2881,-1.2881,-1.2881,-1.2881,-1.2618,-1.2314,-1.2008,-1.2008,-1.1049,-0.891,-0.9686,-1.018,-1.018,-1.018,-1.018,-1.018,-1.0497,-1.0557,-1.0436,-1.0477,-1.0497,-1.0497,-1.0584,-1.0728,-1.1002,-1.0929,-1.1029,-1.1243,-1.1309,-1.1329,-1.1431,-1.2484,-1.2396,-1.2022,-1.3869,-1.4126,-1.3856,-1.5413,-1.6715,-1.7716,-1.794,-1.8008,-1.8008,-1.8008,-1.8301,-1.8562,-1.8562,-1.9199,-1.9863,-2.0205,-2.0283,-2.0312,-2.041,-2.0693,-2.1103,-2.1631,-2.1748,-2.1777,-2.1865,-2.1981,-2.1655,-2.0762,-2.0667,-2.0412,-1.9437,-1.9257,-1.9257,-1.9257,-1.9257,-1.9239,-1.9046,-1.7619,-1.6675,-1.6426,-1.5694,-1.5304,-1.5304,-1.5578,-1.5732,-1.5732,-1.5798,-1.5832,-1.5832,-1.5832,-1.5832,-1.5832,-1.5832,-1.5832,-1.5832,-1.5832,-1.5832,-1.5832,-1.5832,-1.5832,-1.5832,-1.5832,-1.5832,-1.5832,-1.5832,-1.4082,-1.1458,-1.0386,-0.9118,-0.8038,-1.2881,-1.2881,-1.2881,-1.2881,-1.2881,-1.2881,-1.2881,-1.2881,-1.2881,-1.2881,-1.2881,-1.2881,-1.2881,-1.2881,-1.2881,-1.2881,-1.171,-1.0947,-1.0947,-1.2166,-1.2619,-1.1994,-1.2521,-1.287,-1.287,-1.287,-1.2143,-1.0624,-1.0624,-1.0624,-1.0624,-1.0624,-1.1206,-1.23,-1.1121,-1.1332,-1.2587,-1.2365,-1.2431,-1.2766,-1.2459,-1.2586,-1.302,-1.3364,-1.3484,-1.3648,-1.4806,-1.5155,-1.5296,-1.6784,-1.7569,-1.8008,-1.8008,-1.8144,-1.8311,-1.8311,-1.876,-1.9297,-1.9502,-2.0039,-2.0644,-2.1084,-2.1201,-2.1201,-2.1201,-2.1211,-2.1416,-2.2051,-2.2187,-2.2246,-2.2441,-2.2656,-2.2544,-2.1995,-2.1989,-2.1943,-2.1311,-2.1221,-2.1221,-2.1221,-2.1221,-2.0953,-2.0217,-1.8856,-1.7858,-1.7244,-1.6239,-1.5605,-1.5605,-1.5745,-1.5832,-1.5832,-1.5832,-1.5832,-1.5832,-1.5832,-1.5832,-1.5832,-1.5832,-1.5832,-1.5832,-1.5832,-1.5832,-1.5832,-1.5832,-1.5832,-1.5832,-1.5832,-1.5832,-1.5832,-1.5832,-1.4465,-1.2328,-1.0872,-0.9312,-0.8038,-1.2881,-1.2881,-1.2881,-1.2881,-1.2881,-1.2881,-1.2881,-1.2881,-1.2881,-1.2881,-1.2881,-1.2881,-1.2881,-1.3145,-1.3193,-1.29,-1.0795,-0.9611,-0.9929,-1.205,-1.3936,-1.5352,-1.541,-1.541,-1.541,-1.541,-1.3837,-1.0624,-1.0624,-1.0624,-1.0624,-1.117,-1.2507,-1.4393,-1.2644,-1.2938,-1.4689,-1.4077,-1.4042,-1.443,-1.3846,-1.4095,-1.4742,-1.434,-1.4593,-1.5242,-1.5655,-1.636,-1.7195,-1.7937,-1.8232,-1.8232,-1.8232,-1.8467,-1.875,-1.875,-1.9355,-2.0098,-2.0469,-2.0947,-2.1455,-2.1885,-2.1934,-2.1924,-2.207,-2.1768,-2.168,-2.2461,-2.2617,-2.2725,-2.3076,-2.3135,-2.3135,-2.3135,-2.3135,-2.3135,-2.3135,-2.3135,-2.3135,-2.3135,-2.3135,-2.2677,-2.1658,-2.0305,-1.9139,-1.8048,-1.6662,-1.5832,-1.5832,-1.5832,-1.5832,-1.5832,-1.5832,-1.5832,-1.5832,-1.5832,-1.5832,-1.5832,-1.5832,-1.5832,-1.5832,-1.5832,-1.5832,-1.5832,-1.5832,-1.5832,-1.5832,-1.5832,-1.5832,-1.5832,-1.5832,-1.4657,-1.2716,-1.0867,-0.9213,-0.8038,-1.2881,-1.2881,-1.2881,-1.2881,-1.2881,-1.2881,-1.2881,-1.2881,-1.2881,-1.2881,-1.2881,-1.2881,-1.2881,-1.4189,-1.4482,-1.3008,-1.2578,-1.2964,-1.443,-1.483,-1.5166,-1.54,-1.541,-1.541,-1.541,-1.541,-1.3837,-1.0624,-1.0624,-1.0624,-1.0681,-1.3476,-1.4921,-1.5279,-1.6504,-1.6769,-1.6294,-1.5059,-1.4759,-1.5093,-1.5002,-1.5018,-1.523,-1.5913,-1.579,-1.5488,-1.7398,-1.8495,-1.8957,-1.9111,-1.9111,-1.9111,-1.9111,-1.915,-1.9199,-1.9199,-1.9805,-2.0488,-2.0547,-2.1172,-2.1894,-2.2324,-2.2158,-2.207,-2.2803,-2.2646,-2.248,-2.2959,-2.3057,-2.3076,-2.3125,-2.3135,-2.3135,-2.3135,-2.3135,-2.3135,-2.3135,-2.3135,-2.3135,-2.3135,-2.3135,-2.3047,-2.2862,-2.0854,-1.9397,-1.9314,-1.7117,-1.5832,-1.5832,-1.5832,-1.5832,-1.5832,-1.5832,-1.5832,-1.5832,-1.5832,-1.5832,-1.5832,-1.5832,-1.5832,-1.5832,-1.5832,-1.5832,-1.5832,-1.5832,-1.5832,-1.5832,-1.5832,-1.5832,-1.5832,-1.5832,-1.4274,-1.175,-0.9312,-0.8237,-0.8038,-1.2881,-1.3643,-1.3994,-1.3047,-1.2881,-1.2881,-1.2881,-1.2881,-1.3223,-1.417,-1.4297,-1.4297,-1.4297,-1.4961,-1.5107,-1.4355,-1.4297,-1.4609,-1.5361,-1.541,-1.541,-1.541,-1.541,-1.5644,-1.6143,-1.6152,-1.5448,-1.3992,-1.3498,-1.3295,-1.3287,-1.4746,-1.5928,-1.6894,-1.7666,-1.7803,-1.7385,-1.6803,-1.6629,-1.6724,-1.6219,-1.6289,-1.6724,-1.6636,-1.6781,-1.7248,-1.8552,-1.9121,-1.9287,-1.9287,-1.9287,-1.9287,-1.9287,-1.9443,-1.9687,-1.9932,-2.0449,-2.1045,-2.1523,-2.1943,-2.2334,-2.2754,-2.2725,-2.2685,-2.3057,-2.2998,-2.292,-2.3096,-2.3135,-2.3135,-2.3135,-2.3135,-2.3213,-2.3467,-2.3301,-2.3223,-2.3467,-2.3291,-2.3135,-2.3135,-2.3135,-2.3135,-2.3135,-2.1489,-2.0215,-1.9579,-1.866,-1.7856,-1.6958,-1.7918,-1.8043,-1.6864,-1.7108,-1.6742,-1.5832,-1.5832,-1.5832,-1.5832,-1.5832,-1.5832,-1.5832,-1.5832,-1.5832,-1.5832,-1.5832,-1.5832,-1.5832,-1.5832,-1.5832,-1.5832,-1.5832,-1.3295,-0.9604,-0.8432,-0.8038,-0.8038]},{"header":{"parameterUnit":"m.s-1","parameterCategory":1,"la1":30.6,"la2":28.766,"lo1":-90.7593,"lo2":-88.6598,"dy":0.0162,"dx":0.0183,"nx":116,"ny":114,"refTime":"2023-07-24T06:00:00:Z","depth":0,"parameterNumber":3,"parameterNumberName":"V-component_of_WINDS"},"data":[0.0,0.0,0.0,0.0,0.0,0.0,0.0,0.0,0.0,0.0,0.0,0.0,0.0,0.0,0.0,0.0,0.0,0.0,0.0,0.0,0.0,0.0,0.0,0.0,0.0,0.0,0.0,0.0,0.0,0.0,0.0,0.0,0.0,0.0,0.0,0.0,0.0,0.0,0.0,0.0,0.0,0.0,0.0,0.0,0.0,0.0,0.0,0.0,0.0,0.0,0.0,0.0,0.0,0.0,0.0,0.0,0.0,0.0,0.0,0.0,0.0,0.0,0.0,0.0,0.0,0.0,0.0,0.0,0.0,0.0,0.0,0.0,0.0,0.0,0.0,0.0,0.0,0.0,0.0,0.0,0.0,0.0,0.0,0.0,0.0,0.0,0.0,0.0,0.0,0.0,0.0,0.0,0.0,0.0,0.0,0.0,0.0,0.0,0.0,0.0,0.0,0.0,0.0,0.0,0.0,0.0,0.0,0.0,0.0,0.0,0.0,0.0,0.0,0.0,0.0,0.0,0.0,0.0,0.0,0.0,0.0,0.0,0.0,0.0,0.0,0.0,0.0,0.0,0.0,0.0,0.0,0.0,0.0,0.0,0.0,0.0,0.0,0.0,0.0,0.0,0.0,0.0,0.0,0.0,0.0,0.0,0.0,0.0,0.0,0.0,0.0,0.0,0.0,0.0,0.0,0.0,0.0,0.0,0.0,0.0,0.0,0.0,0.0,0.0,0.0,0.0,0.0,0.0,0.0,0.0,0.0,0.0,0.0,0.0,0.0,0.0,0.0,0.0,0.0,0.0,0.0,0.0,0.0,0.0,0.0,0.0,0.0,0.0,0.0,0.0,0.0,0.0,0.0,0.0,0.0,0.0,0.0,0.0,0.0,0.0,0.0,0.0,0.0,0.0,0.0,0.0,0.0,0.0,0.0,0.0,0.0,0.0,0.0,0.0,0.0,0.0,0.0,0.0,0.0,0.0,0.0,0.0,0.0,0.0,0.0,0.0,0.0,0.0,0.0,0.0,0.0,0.0,0.0,0.0,0.0,0.0,0.0,0.0,0.0,0.0,0.0,0.0,0.0,0.0,0.0,0.0,0.0,0.0,0.0,0.0,0.0,0.0,0.0,0.0,0.0,0.0,0.0,0.0,0.0,0.0,0.0,0.0,0.0,0.0,0.0,0.0,0.0,0.0,0.0,0.0,0.0,0.0,0.0,0.0,0.0,0.0,0.0,0.0,0.0,0.0,0.0,0.0,0.0,0.0,0.0,0.0,0.0,0.0,0.0,0.0,0.0,0.0,0.0,0.0,0.0,0.0,0.0,0.0,0.0,0.0,0.0,0.0,0.0,0.0,0.0,0.0,0.0,0.0,0.0,0.0,0.0,0.0,0.0,0.0,0.0,0.0,0.0,0.0,0.0,0.0,0.0,0.0,0.0,0.0,0.0,0.0,0.0,0.0,0.0,0.0,0.0,0.0,0.0,0.0,0.0,0.0,0.0,0.0,0.0,0.0,0.0,0.0,0.0,0.0,0.0,0.0,0.0,0.0,0.0,0.0,0.0,0.0,0.0,0.0,0.0,0.0,0.0,0.0,0.0,0.0,0.0,0.0,0.0,0.0,0.0,0.0,0.0,0.0,0.0,0.0,0.0,0.0,0.0,0.0,0.0,0.0,0.0,0.0,0.0,0.0,0.0,0.0,0.0,0.0,0.0,0.0,0.0,0.0,0.0,0.0,0.0,0.0,0.0,0.0,0.0,0.0,0.0,0.0,0.0,0.0,0.0,0.0,0.0,0.0,0.0,0.0,0.0,0.0,0.0,0.0,0.0,0.0,0.0,0.0,0.0,0.0,0.0,0.0,0.0,0.0,0.0,0.0,0.0,0.0,0.0,0.0,0.0,0.0,0.0,0.0,0.0,0.0,0.0,0.0,0.0,0.0,0.0,0.0,0.0,0.0,0.0,0.0,0.0,0.0,0.0,0.0,0.0,0.0,0.0,0.0,0.0,0.0,0.0,0.0,0.0,0.0,0.0,0.0,0.0,0.0,0.0,0.0,0.0,0.0,0.0,0.0,0.0,0.0,0.0,0.0,0.0,0.0,0.0,0.0,0.0,0.0,0.0,0.0,0.0,0.0,0.0,0.0,0.0,0.0,0.0,0.0,0.0,0.0,0.0,0.0,0.0,0.0,0.0,0.0,0.0,0.0,0.0,0.0,0.0,0.0,0.0,0.0,0.0,0.0,0.0,0.0,0.0,0.0,0.0,0.0,0.0,0.0,0.0,0.0,0.0,0.0,0.0,0.0,0.0,0.0,0.0,0.0,0.0,0.0,0.0,0.0,0.0,0.0,0.0,0.0,0.0,0.0,0.0,0.0,0.0,0.0,0.0,0.0,0.0,0.0,0.0,0.0,0.0,0.0,0.0,0.0,0.0,0.0,0.0,0.0,0.0,0.0,0.0,0.0,0.0,0.0,0.0,0.0,0.0,0.0,0.0,0.0,0.0,0.0,0.0,0.0,0.0,0.0,0.0,0.0,0.0,0.0,0.0,0.0,0.0,0.0,0.0,0.0,0.0,0.0,0.0,0.0,0.0,0.0,0.0,0.0,0.0,0.0,0.0,0.0,0.0,0.0,0.0,0.0,0.0,0.0,0.0,0.0,0.0,0.0,0.0,0.0,0.0,0.0,0.0,0.0,0.0,0.0,0.0,0.0,0.0,0.0,0.0,0.0,0.0,0.0,0.0,0.0,0.0,0.0,0.0,0.0,0.0,0.0,0.0,0.0,0.0,0.0,0.0,0.0,0.0,0.0,0.0,0.0,0.0,0.0,0.0,0.0,0.0,0.0,0.0,0.0,0.0,0.0,0.0,0.0,0.0,0.0,0.0,0.0,0.0,0.0,0.0,0.0,0.0,0.0,0.0,0.0,0.0,0.0,0.0,0.0,0.0,0.0,0.0,0.0,0.0,0.0,0.0,0.0,0.0,0.0,0.0,0.0,0.0,0.0,0.0,0.0,0.0,0.0,0.0,0.0,0.0,0.0,0.0,0.0,0.0,0.0,0.0,0.0,0.0,0.0,0.0,0.0,0.0,0.0,0.0,0.0,0.0,0.0,0.0,0.0,0.0,0.0,0.0,0.0,0.0,0.0,0.0,0.0,0.0,0.0,0.0,0.0,0.0,0.0,0.0,0.0,0.0,0.0,0.0,0.0,0.0,0.0,0.0,0.0,0.0,0.0,0.0,0.0,0.0,0.0,0.0,0.0,0.0,0.0,0.0,0.0,0.0,0.0,0.0,0.0,0.0,0.0,0.0,0.0,0.0,0.0,0.0,0.0,0.0,0.0,0.0,0.0,0.0,0.0,0.0,0.0,0.0,0.0,0.0,0.0,0.0,0.0,0.0,0.0,0.0,0.0,0.0,0.0,0.0,0.0,0.0,0.0,0.0,0.0,0.0,0.0,0.0,0.0,0.0,0.0,0.0,0.0,0.0,0.0,0.0,0.0,0.0,0.0,0.0,0.0,0.0,0.0,0.0,0.0,0.0,0.0,0.0,0.0,0.0,0.0,0.0,0.0,0.0,0.0,0.0,0.0,0.0,0.0,0.0,0.0,0.0,0.0,0.0,0.0,0.0,0.0,0.0,0.0,0.0,0.0,0.0,0.0,0.0,0.0,0.0,0.0,0.0,0.0,0.0,0.0,0.0,0.0,0.0,0.0,0.0,0.0,0.0,0.0,0.0,0.0,0.0,0.0,0.0,0.0,0.0,0.0,0.0,0.0,0.0,0.0,0.0,0.0,0.0,0.0,0.0,0.0,0.0,0.0,0.0,0.0,0.0,0.0,0.0,0.0,0.0,0.0,0.0,0.0,0.0,0.0,0.0,0.0,0.0,0.0,0.0,0.0,0.0,0.0,0.0,0.0,0.0,0.0,0.0,0.0,0.0,0.0,0.0,0.0,0.0,0.0,0.0,0.0,0.0,0.0,0.0,0.0,0.0,0.0,0.0,0.0,0.0,0.0,0.0,0.0,0.0,0.0,0.0,0.0,0.0,0.0,0.0,0.0,0.0,0.0,0.0,0.0,0.0,0.0,0.0,0.0,0.0,0.0,0.0,0.0,0.0,0.0,0.0,0.0,0.0,0.0,0.0,0.0,0.0,0.0,0.0,0.0,0.0,0.0,0.0,0.0,0.0,0.0,0.0,0.0,0.0,0.0,0.0,0.0,0.0,0.0,0.0,0.0,0.0,0.0,0.0,0.0,0.0,0.0,0.0,0.0,0.0,0.0,0.0,0.0,0.0,0.0,0.0,0.0,0.0,0.0,0.0,0.0,0.0,0.0,0.0,0.0,0.0,0.0,0.0,0.0,0.0,0.0,0.0,0.0,0.0,0.0,0.0,0.0,0.0,0.0,0.0,0.0,0.0,0.0,0.0,0.0,0.0,0.0,0.0,0.0,0.0,0.0,0.0,0.0,0.0,0.0,0.0,0.0,0.0,0.0,0.0,0.0,0.0,0.0,0.0,0.0,0.0,0.0,0.0,0.0,0.0,0.0,0.0,0.0,0.0,0.0,0.0,0.0,0.0,0.0,0.0,0.0,0.0,0.0,0.0,0.0,0.0,0.0,0.0,0.0,0.0,0.0,0.0,0.0,0.0,0.0,0.0,0.0,0.0,0.0,0.0,0.0,0.0,0.0,0.0,0.0,0.0,0.0,0.0,0.0,0.0,0.0,0.0,0.0,0.0,0.0,0.0,0.0,0.0,0.0,0.0,0.0,0.0,0.0,0.0,0.0,0.0,0.0,0.0,0.0,0.0,0.0,0.0,0.0,0.0,0.0,0.0,0.0,0.0,0.0,0.0,0.0,0.0,0.0,0.0,0.0,0.0,0.0,0.0,0.0,0.0,0.0,0.0,0.0,0.0,0.0,0.0,0.0,0.0,0.0,0.0,0.0,0.0,0.0,0.0,0.0,0.0,0.0,0.0,0.0,0.0,0.0,0.0,0.0,0.0,0.0,0.0,0.0,0.0,0.0,0.0,0.0,0.0,0.0,0.0,0.0,0.0,0.0,0.0,0.0,0.0,0.0,0.0,0.0,0.0,0.0,0.0,0.0,0.0,0.0,0.0,0.0,0.0,0.0,0.0,0.0,0.0,0.0,0.0,0.0,0.0,0.0,0.0,0.0,0.0,0.0,0.0,0.0,0.0,0.0,0.0,0.0,0.0,0.0,0.0,0.0,0.0,0.0,0.0,0.0,0.0,0.0,0.0,0.0,0.0,0.0,0.0,0.0,0.0,0.0,0.0,0.0,0.0,0.0,0.0,0.0,0.0,0.0,0.0,0.0,0.0,0.0,0.0,0.0,0.0,0.0,0.0,0.0,0.0,0.0,0.0,0.0,0.0,0.0,0.0,0.0,0.0,0.0,0.0,0.0,0.0,0.0,0.0,0.0,0.0,0.0,0.0,0.0,0.0,0.0,0.0,0.0,0.0,0.0,0.0,0.0,0.0,0.0,0.0,0.0,0.0,0.0,0.0,0.0,0.0,0.0,0.0,0.0,0.0,0.0,0.0,0.0,0.0,0.0,0.0,0.0,0.0,0.0,0.0,0.0,0.0,0.0,0.0,0.0,0.0,0.0,0.0,0.0,0.0,0.0,0.0,0.0,0.0,0.0,0.0,0.0,0.0,0.0,0.0,0.0,0.0,0.0,0.0,0.0,0.0,0.0,0.0,0.0,0.0,0.0,0.0,0.0,0.0,0.0,0.0,0.0,0.0,0.0,0.0,0.0,0.0,0.0,0.0,0.0,0.0,0.0,0.0,0.0,0.0,0.0,0.0,0.0,0.0,0.0,0.0,0.0,0.0,0.0,0.0,0.0,0.0,0.0,0.0,0.0,0.0,0.0,0.0,0.0,0.0,0.0,0.0,0.0,0.0,0.0,0.0,0.0,0.0,0.0,0.0,0.0,0.0,0.0,0.0,0.0,0.0,0.0,0.0,0.0,0.0,0.0,0.0,0.0,0.0,0.0,0.0,0.0,0.0,0.0,0.0,0.0,0.0,0.0,0.0,0.0,0.0,0.0,0.0,0.0,0.0,0.0,0.0,0.0,0.0,0.0,0.0,0.0,0.0,0.0,-1.4065,0.0,0.0,0.0,0.0,0.0,0.0,0.0,0.0,0.0,0.0,0.0,0.0,0.0,0.0,0.0,0.0,0.0,0.0,0.0,0.0,0.0,0.0,0.0,0.0,0.0,0.0,0.0,0.0,0.0,0.0,0.0,0.0,0.0,0.0,0.0,0.0,0.0,0.0,0.0,0.0,0.0,0.0,0.0,0.0,0.0,0.0,0.0,0.0,0.0,0.0,0.0,0.0,0.0,0.0,0.0,0.0,0.0,0.0,0.0,0.0,0.0,0.0,0.0,0.0,0.0,0.0,0.0,0.0,0.0,0.0,0.0,0.0,0.0,0.0,0.0,0.0,0.0,0.0,0.0,0.0,0.0,0.0,0.0,0.0,0.0,0.0,0.0,0.0,0.0,0.0,0.0,0.0,0.0,0.0,0.0,0.0,0.0,0.0,0.0,0.0,0.0,0.0,0.0,0.0,0.0,0.0,0.0,0.0,0.0,0.0,0.0,0.0,0.0,0.0,0.0,0.0,-1.6093,0.0,0.0,0.0,0.0,0.0,0.0,0.0,0.0,0.0,0.0,0.0,0.0,0.0,0.0,0.0,0.0,0.0,0.0,0.0,0.0,0.0,0.0,0.0,0.0,0.0,0.0,0.0,0.0,0.0,0.0,0.0,0.0,0.0,0.0,0.0,0.0,0.0,0.0,0.0,0.0,0.0,0.0,0.0,0.0,0.0,0.0,0.0,0.0,0.0,0.0,0.0,0.0,0.0,0.0,0.0,0.0,0.0,0.0,0.0,0.0,0.0,0.0,0.0,0.0,0.0,0.0,0.0,0.0,0.0,0.0,0.0,0.0,0.0,0.0,0.0,0.0,0.0,0.0,0.0,0.0,0.0,0.0,0.0,0.0,0.0,0.0,0.0,0.0,0.0,0.0,0.0,0.0,0.0,0.0,0.0,0.0,0.0,0.0,0.0,0.0,0.0,0.0,0.0,0.0,0.0,0.0,0.0,0.0,-2.3933,-2.3866,-2.3866,-2.3866,-2.3562,-2.2895,-1.9821,-1.8515,-1.8792,-2.1278,0.0,0.0,0.0,0.0,0.0,0.0,0.0,0.0,0.0,0.0,0.0,0.0,0.0,0.0,0.0,0.0,0.0,0.0,0.0,0.0,0.0,0.0,0.0,0.0,0.0,0.0,0.0,0.0,0.0,0.0,0.0,0.0,0.0,0.0,0.0,0.0,0.0,0.0,-0.4191,-0.5561,-0.6131,-0.5981,0.0,0.0,0.0,0.0,0.0,0.0,0.0,0.0,0.0,0.0,0.0,0.0,0.0,0.0,0.0,0.0,0.0,0.0,0.0,0.0,0.0,0.0,0.0,0.0,0.0,0.0,0.0,0.0,0.0,0.0,0.0,0.0,0.0,0.0,0.0,0.0,0.0,0.0,0.0,0.0,0.0,0.0,0.0,0.0,-1.5495,-2.1266,0.0,0.0,0.0,0.0,0.0,0.0,0.0,0.0,0.0,0.0,0.0,0.0,0.0,-2.1379,-2.1945,-2.1945,-2.3412,-2.6332,-2.8831,-3.0023,-3.0023,-3.0023,-2.8602,-2.6234,-2.8269,0.0,-2.1752,-2.2158,0.0,0.0,0.0,0.0,0.0,0.0,0.0,0.0,0.0,0.0,0.0,0.0,0.0,0.0,0.0,0.0,0.0,0.0,0.0,0.0,0.0,0.0,0.0,0.0,0.0,0.0,0.0,0.0,0.0,0.0,0.0,0.0,0.0,0.0,0.0,0.0,-0.4208,-0.4815,-0.5508,-0.6387,-0.6727,-0.6666,-0.6936,-0.6304,-0.4922,-0.3439,0.0,0.0,0.0,0.0,0.0,0.0,0.0,0.0,0.0,0.0,0.0,0.0,0.0,0.0,0.0,0.0,0.0,0.0,0.0,0.0,0.0,0.0,0.0,0.0,0.0,0.0,0.0,0.0,0.0,0.0,0.0,0.0,0.0,0.0,0.0,0.0,0.0,0.0,0.0,-1.2448,-1.493,-2.1528,-2.2316,-2.1611,0.0,0.0,0.0,0.0,0.0,0.0,0.0,0.0,0.0,-2.2237,-2.3917,-2.5592,-2.73,-2.73,-2.7943,-2.9262,-3.2256,-3.2797,-3.119,-3.119,-3.048,-2.9296,-3.0632,-2.9719,-2.7046,-2.368,-2.231,-2.231,0.0,0.0,0.0,0.0,-1.8679,-1.7714,0.0,0.0,0.0,0.0,0.0,0.0,0.0,0.0,0.0,0.0,0.0,0.0,0.0,0.0,0.0,-0.1967,0.0,0.0,0.0,0.0,0.0,0.0,0.0,0.0,0.0,0.0,0.0,0.0,-0.5001,-0.5742,-0.6434,-0.7103,-0.7423,-0.7448,-0.8495,-0.7878,-0.5961,-0.4805,-0.3956,0.0,0.0,0.0,0.0,0.0,0.0,0.0,0.0,0.0,0.0,0.0,0.0,0.0,0.0,0.0,0.0,0.0,0.0,0.0,0.0,0.0,0.0,0.0,0.0,0.0,0.0,0.0,0.0,0.0,0.0,0.0,0.0,0.0,0.0,0.0,0.0,0.0,0.0,-1.3487,-1.5931,-2.1614,-2.231,-2.161,0.0,0.0,0.0,0.0,0.0,0.0,-2.3393,-2.4171,-2.4932,-2.5693,-2.7841,-3.0057,-3.2307,-3.2324,-3.1952,-3.1224,-3.344,-3.3322,-3.119,-3.119,-3.119,-3.119,-3.119,-3.119,-3.0852,-2.6404,-2.412,-2.3444,-2.3444,-2.3444,-2.3444,-2.3444,-2.2006,-2.0399,0.0,0.0,0.0,0.0,0.0,0.0,0.0,0.0,0.0,0.0,0.0,0.0,0.0,0.0,-0.1978,-0.244,-0.2181,-0.2143,0.0,0.0,0.0,0.0,0.0,0.0,0.0,0.0,0.0,-0.4193,-0.5499,-0.6169,-0.6256,-0.7858,-0.8559,-0.8463,-0.9863,-0.8954,-0.6355,-0.622,-0.4938,-0.3043,0.0,0.0,0.0,0.0,0.0,0.0,0.0,0.0,0.0,0.0,0.0,0.0,0.0,0.0,0.0,0.0,0.0,0.0,0.0,0.0,0.0,0.0,0.0,0.0,0.0,0.0,0.0,0.0,0.0,0.0,0.0,0.0,0.0,0.0,0.0,0.0,0.0,0.0,0.0,-2.2044,-2.2304,0.0,0.0,0.0,0.0,-2.2015,-2.2209,-2.3528,-2.6319,-2.9194,-3.2036,-3.4861,-3.5098,-3.525,-3.5402,-3.5402,-3.3981,-3.119,-3.1343,-3.1326,-3.119,-3.119,-3.119,-3.119,-3.119,-3.119,-3.1173,-3.0869,-2.9059,-2.6471,-2.6471,-2.6471,-2.6471,-2.6471,-2.637,-2.6268,0.0,0.0,0.0,0.0,0.0,0.0,0.0,0.0,0.0,0.0,0.0,0.0,0.0,-0.2023,-0.2114,-0.2299,-0.2483,-0.251,-0.2327,0.0,0.0,0.0,0.0,0.0,0.0,0.0,-0.5446,-0.575,-0.662,-0.7306,-0.7846,-0.8854,-0.9338,-0.9342,-1.0913,-1.0394,-0.8276,-0.7281,-0.5968,-0.4409,-0.3716,-0.3383,0.0,0.0,0.0,0.0,0.0,0.0,0.0,0.0,0.0,0.0,0.0,0.0,0.0,0.0,0.0,0.0,0.0,0.0,0.0,0.0,0.0,0.0,0.0,0.0,0.0,0.0,0.0,0.0,0.0,0.0,0.0,0.0,0.0,0.0,0.0,0.0,0.0,-2.7362,-2.4644,0.0,-2.4097,-2.4779,-2.5933,-2.7892,-2.9803,-3.1343,-3.2374,-3.4727,-3.6502,-3.7542,-3.7578,-3.6964,-3.5622,-3.5622,-3.5081,-3.4032,-3.4032,-3.4032,-3.3981,-3.207,-3.2239,-3.4032,-3.4032,-3.4032,-3.3897,-3.1985,-3.0565,-2.9583,-2.9583,-2.9583,-2.9583,-2.9583,-2.9583,-2.9583,0.0,0.0,0.0,0.0,0.0,0.0,0.0,0.0,0.0,0.0,0.0,-0.1772,-0.1987,-0.2077,-0.2217,-0.2415,-0.2566,-0.2589,-0.2445,0.0,0.0,0.0,0.0,0.0,0.0,-0.5493,-0.6232,-0.641,-0.7339,-0.7903,-0.8078,-0.9307,-0.9875,-0.9976,-1.1519,-1.1479,-1.0106,-0.8651,-0.7083,-0.5453,-0.4314,-0.3745,-0.3551,0.0,0.0,0.0,0.0,0.0,0.0,0.0,0.0,0.0,0.0,0.0,0.0,0.0,0.0,0.0,0.0,0.0,0.0,0.0,0.0,0.0,0.0,0.0,0.0,0.0,0.0,0.0,0.0,0.0,0.0,0.0,0.0,0.0,0.0,0.0,-2.6701,-3.1173,-2.9685,-2.8095,-2.752,-2.8841,-3.0532,-3.2502,-3.4506,-3.5898,-3.6626,-3.7964,-3.8707,-3.8707,-3.8707,-3.805,-3.6666,-3.6666,-3.6666,-3.6666,-3.6666,-3.6666,-3.6596,-3.4629,-3.4414,-3.5622,-3.5622,-3.5064,-3.4049,-3.3085,-3.2679,-3.2679,-3.2679,-3.2454,-3.2021,-3.1428,-3.119,-3.119,0.0,0.0,0.0,0.0,0.0,0.0,0.0,0.0,0.0,0.0,-0.1434,-0.1644,-0.1953,-0.2018,-0.2287,-0.2849,-0.25,-0.2432,-0.2908,-0.2486,0.0,0.0,0.0,0.0,-0.4836,-0.6285,-0.6702,-0.6073,-0.7663,-0.7877,-0.6906,-0.9156,-1.0253,-1.0446,-1.1668,-1.2016,-1.1657,-1.03,-0.8322,-0.6,-0.5236,-0.4393,-0.3619,0.0,0.0,0.0,0.0,0.0,0.0,0.0,0.0,0.0,0.0,0.0,0.0,0.0,0.0,0.0,0.0,0.0,0.0,0.0,0.0,0.0,0.0,0.0,0.0,0.0,0.0,0.0,0.0,0.0,0.0,0.0,0.0,0.0,-3.4539,-3.5673,-3.4912,-3.3017,-3.711,-3.7212,-2.9888,-3.3085,-3.5622,-3.5622,-3.5622,-3.6504,-3.8596,-3.8707,-3.8707,-3.8707,-3.8707,-3.8676,-3.8596,-3.8676,-3.8707,-3.8707,-3.8707,-3.8707,-3.8707,-3.8707,-3.7578,-3.5694,-3.5694,-3.4024,-3.1562,-3.4438,-3.5622,-3.5622,-3.565,-3.4929,-3.365,-3.1962,-3.1275,-3.119,0.0,0.0,0.0,0.0,0.0,0.0,0.0,0.0,0.0,0.0,-0.1713,-0.2016,-0.1991,-0.2654,-0.312,-0.3178,-0.3168,-0.3307,-0.3661,0.0,0.0,0.0,0.0,0.0,-0.593,-0.6898,-0.7465,-0.7756,-0.8362,-0.854,-0.8294,-0.938,-0.9926,-1.0027,-1.1317,-1.1626,-1.1065,-1.0645,-0.9511,-0.7791,-0.5849,-0.4887,-0.4609,0.0,0.0,0.0,0.0,0.0,0.0,0.0,0.0,0.0,0.0,0.0,0.0,0.0,0.0,0.0,0.0,0.0,0.0,0.0,0.0,0.0,0.0,0.0,0.0,0.0,0.0,0.0,0.0,0.0,0.0,0.0,0.0,-3.6045,-3.8514,-3.6992,-3.5419,-3.4895,-3.7939,-3.843,-3.4201,-3.4912,-3.5622,-3.5622,-3.5622,-3.6504,-3.8596,-3.8707,-3.8707,-3.8707,-3.8707,-3.7982,-3.6464,-3.7929,-3.8707,-3.8707,-3.8707,-3.8707,-3.8707,-3.8707,-3.8401,-3.7861,-3.7861,-3.6526,-3.4455,-3.5284,-3.5622,-3.5739,-3.7268,-3.6698,-3.5054,-3.4585,-3.3051,-3.119,0.0,0.0,0.0,0.0,0.0,0.0,0.0,0.0,0.0,0.0,-0.1917,-0.2118,-0.193,-0.2723,-0.3138,-0.2851,-0.3341,-0.3722,-0.386,0.0,0.0,0.0,0.0,-0.6041,-0.6784,-0.7516,-0.7931,-0.8081,-0.8561,-0.8646,-0.8374,-0.9354,-0.9814,-0.9865,-1.1216,-1.1566,-1.1225,-1.1447,-1.1036,-1.0113,-0.7933,-0.6556,-0.5631,-0.4881,-0.4732,-0.4969,-0.5376,-0.5694,-0.5834,-0.5508,0.0,0.0,0.0,0.0,0.0,0.0,0.0,0.0,0.0,0.0,0.0,0.0,0.0,0.0,0.0,0.0,0.0,0.0,0.0,0.0,0.0,0.0,0.0,0.0,-3.139,-3.843,-3.9089,-3.7483,-3.6383,-3.6823,-3.7669,-3.8024,-3.7533,-3.6349,-3.5622,-3.5622,-3.6399,-3.7433,-3.8627,-3.8707,-3.8707,-3.8707,-3.7861,-3.723,-3.6886,-3.944,-4.0029,-3.8726,-4.0065,-4.0199,-3.9263,-3.8885,-3.8707,-3.8707,-3.8707,-3.7506,-3.5622,-3.5622,-3.5622,0.0,0.0,0.0,0.0,0.0,-3.2679,-3.119,0.0,0.0,0.0,0.0,0.0,0.0,0.0,0.0,0.0,0.0,0.0,-0.2089,-0.184,-0.2459,-0.2741,-0.2343,-0.3271,-0.3908,0.0,0.0,0.0,-0.5553,-0.6774,-0.7572,-0.7821,-0.8405,-0.8466,-0.7988,-0.8666,-0.8666,-0.7988,-0.9325,-0.9909,-0.9969,-1.1266,-1.1814,-1.1841,-1.2326,-1.248,-1.2314,-1.0755,-0.8858,-0.6999,-0.6712,-0.6547,-0.6622,-0.7341,-0.7494,-0.7331,-0.727,0.0,0.0,0.0,0.0,0.0,0.0,0.0,0.0,0.0,0.0,0.0,0.0,0.0,0.0,0.0,0.0,0.0,0.0,0.0,0.0,0.0,0.0,0.0,0.0,-3.2154,-3.6129,-3.7601,-3.7381,-3.7398,-3.8328,-3.6772,-3.6654,-3.9309,-3.7178,-3.5622,-3.5622,-3.7542,-3.8707,-3.8707,0.0,0.0,0.0,0.0,-3.7023,-3.9208,-4.1699,-4.1699,-3.9276,-4.2139,-4.2426,-4.0443,-3.9265,-3.8707,-3.8707,-3.8707,-3.7649,-3.5968,-3.5968,-3.5623,-3.4861,-3.2222,-3.119,-3.119,-3.119,-3.119,-3.119,0.0,0.0,0.0,0.0,0.0,0.0,0.0,0.0,0.0,-0.1344,-0.1867,-0.2089,-0.1838,-0.2453,-0.2909,-0.2923,-0.3421,-0.4252,0.0,0.0,-0.7479,-0.8723,-0.9009,-0.9567,-1.054,-1.0393,-1.0108,-0.9699,-1.0171,-1.0171,-0.9748,-1.033,-1.0618,-1.0669,-1.1466,-1.1814,-1.1841,-1.2326,-1.2256,-1.193,-1.2025,-1.1094,-0.9496,-0.8149,-0.7952,-0.8421,-0.8663,-0.904,-0.9276,-0.8842,-0.8707,-0.8595,-0.751,0.0,0.0,0.0,0.0,0.0,0.0,0.0,0.0,0.0,0.0,0.0,0.0,0.0,0.0,0.0,0.0,0.0,0.0,0.0,0.0,-3.2954,-3.4861,-3.6011,-3.7094,-3.7009,-3.6975,-3.7347,-3.6332,-3.5842,-3.6417,-3.596,-3.5622,-3.5622,-3.7542,-3.8707,-3.8707,-3.8707,-3.8707,-3.8707,-3.8318,-3.9537,-4.2543,-4.0616,-4.0616,-4.258,0.0,0.0,-4.2739,-3.9977,-3.8707,-3.8707,-3.8707,-3.8465,-3.8083,-3.8083,-3.5722,-3.1985,-3.141,-3.119,-3.119,-3.119,-3.119,-3.119,0.0,0.0,0.0,0.0,0.0,0.0,0.0,0.0,0.0,0.0,-0.1991,-0.223,-0.2065,-0.2462,-0.2768,-0.2842,-0.3743,0.0,0.0,-0.8317,-0.9664,-1.0833,-1.1407,-1.1963,-1.2542,-1.1705,-1.1085,-1.0634,-1.0774,-1.0488,-0.9888,-1.0787,-1.0997,-1.0557,-1.1764,-1.2101,-1.1859,-1.2846,-1.3152,-1.2969,-1.3079,-1.2746,-1.2057,-1.0509,-0.9888,-0.9907,-1.0331,-1.0467,-1.0516,-1.0305,-1.0177,-0.9883,-0.8782,-0.8361,-0.8014,0.0,0.0,0.0,0.0,0.0,0.0,0.0,0.0,0.0,0.0,0.0,0.0,0.0,0.0,-2.1003,0.0,0.0,-2.8478,-3.4594,-3.5622,-3.5791,-3.6282,-3.6265,-3.6518,-3.7398,-3.6383,-3.5622,-3.5622,-3.5622,-3.6037,-3.7079,-3.8117,-3.8707,-3.8707,-3.8707,-3.8707,-3.8707,-4.0267,-4.1864,-4.3461,-4.1901,-4.1901,-4.3497,-4.3497,-4.3497,-4.3442,-4.1827,-4.1093,-4.1001,-3.9405,-3.8707,-3.8707,-3.8707,-3.663,-3.332,-3.2739,-3.25,-3.25,-3.25,-3.195,-3.119,0.0,0.0,0.0,0.0,0.0,0.0,0.0,0.0,0.0,0.0,0.0,-0.2301,-0.2348,-0.2475,-0.2685,0.0,0.0,0.0,0.0,-0.9984,-1.1545,-1.2697,-1.3516,-1.4094,-1.4448,-1.3099,-1.2184,-1.1832,-1.1657,-1.1186,-1.0383,-1.1743,-1.1959,-1.1267,-1.2681,-1.3032,-1.2618,-1.3937,-1.434,-1.4031,-1.4071,-1.3957,-1.3729,-1.2565,-1.1599,-1.0997,-1.147,-1.1291,-1.0903,-1.1122,-1.1111,-1.0857,-0.9996,-0.9943,-0.9953,-0.8471,-0.8543,0.0,0.0,0.0,0.0,0.0,0.0,0.0,0.0,0.0,-2.0563,-2.1704,-2.3505,-2.5298,-2.6582,-2.6656,-2.8497,-3.4594,-3.5622,-3.5622,-3.5622,-3.5622,-3.6079,-3.7313,-3.6383,-3.5622,-3.5622,-3.5968,-3.6886,-3.8578,-3.8318,-3.8267,-3.8676,-3.8707,-3.8707,-3.8707,-4.1809,-4.3497,-4.3497,-4.3497,-4.3497,-4.3497,-4.3497,-4.3497,-4.3497,-4.3497,-4.3497,-4.3314,-4.0102,-3.8707,-3.8676,-3.8267,-3.736,-3.6046,-3.4424,-3.3807,-3.3807,-3.3807,-3.2916,-3.1714,0.0,0.0,0.0,0.0,0.0,0.0,0.0,0.0,0.0,0.0,0.0,0.0,0.0,0.0,0.0,0.0,0.0,0.0,-0.9716,-1.0389,-1.1979,-1.4988,-1.4736,-1.5226,-1.6788,-1.5213,-1.4384,-1.439,-1.4201,-1.3876,-1.3449,-1.4441,-1.4862,-1.4731,-1.5057,-1.5182,-1.5106,-1.5729,-1.5131,-1.3945,-1.5153,-1.4623,-1.3018,-1.286,-1.2155,-1.1302,-1.114,-1.0481,-0.9772,-1.0242,-1.1047,-1.1891,-1.2449,-1.2699,-1.2623,-1.1701,0.0,-0.905,-0.8866,-0.96,-1.0843,-1.2467,-1.3692,-1.5778,0.0,0.0,-2.5428,-2.5271,-2.713,-2.9006,-2.9675,-3.0222,-3.1645,-3.5036,-3.5622,-3.5622,-3.5622,-3.5622,-3.569,-3.5859,-3.5723,-3.5622,-3.5622,-3.7268,-3.8433,-3.8676,-3.7002,-3.6729,-3.8596,-3.8707,-3.8707,-3.8707,-4.1809,-4.3497,-4.3497,-4.3497,-4.3497,-4.3497,-4.3497,-4.3497,-4.3497,-4.3497,-4.3497,-4.3314,-4.0102,-3.8707,-3.8546,-3.6706,-3.6886,-3.8041,-3.4971,-3.3807,-3.3807,-3.3807,-3.368,-3.3504,0.0,0.0,0.0,0.0,0.0,0.0,0.0,0.0,0.0,0.0,0.0,0.0,0.0,0.0,0.0,0.0,0.0,0.0,-0.9431,-1.0824,-1.2646,-1.5159,-1.571,-1.6459,-1.7588,-1.6323,-1.572,-1.585,-1.5703,-1.5374,-1.4915,-1.6179,-1.6571,-1.6251,-1.6678,-1.686,-1.6883,-1.6338,-1.598,-1.5686,-1.5225,-1.4374,-1.3311,-1.248,-1.112,-0.9736,-1.0371,-1.0008,0.0,0.0,-0.9838,-1.0359,-1.116,-1.1598,-1.1659,-1.1075,-1.1132,0.0,-1.2225,-1.2413,0.0,0.0,-1.7203,-1.9347,-2.2615,-2.5253,-2.7257,-2.7876,-2.9987,-3.1767,-3.1841,-3.2894,-3.4167,0.0,-3.5622,-3.5622,-3.5622,-3.5622,-3.5622,-3.5622,-3.6666,-3.7396,-3.7396,-3.8201,-3.9478,-4.135,-3.8958,-3.8618,-4.1354,-4.1479,-4.1479,-4.1479,-4.28,-4.3497,-4.3497,-4.3497,-4.3497,-4.3497,-4.3497,-4.3497,-4.3497,-4.3497,-4.247,-4.0634,-3.9276,-3.8707,-3.8546,-3.6464,-3.6122,-3.6763,-3.537,-3.381,-3.24,-3.3447,-3.3807,-3.3807,0.0,0.0,0.0,0.0,0.0,0.0,0.0,0.0,0.0,0.0,0.0,0.0,0.0,0.0,0.0,0.0,0.0,0.0,0.0,-1.0713,-1.2477,-1.4745,-1.5701,-1.6727,-1.7934,-1.7008,-1.6808,-1.7422,-1.7006,-1.6688,-1.6459,-1.7675,-1.7999,-1.7617,-1.82,-1.8503,-1.845,-1.7467,-1.707,-1.6934,-1.5375,-1.4168,-1.3082,-1.1516,-0.9808,-0.8348,-0.9292,-0.8878,0.0,0.0,-0.8683,-0.9076,-1.0006,-1.0798,-1.1325,-1.1091,-1.2099,-1.3425,-1.4204,0.0,0.0,-1.8009,-2.0653,-2.3183,-2.509,-2.7476,-2.9627,-3.0733,-3.2586,-3.3943,-3.3752,-3.4739,-3.5622,-3.5622,-3.6079,-3.6481,-3.6481,-3.6481,-3.611,-3.522,-3.5654,-3.6163,-3.6573,-3.789,-3.9662,-4.1992,-4.0836,-4.0653,-4.2084,-4.2176,-4.258,-4.3461,-4.3497,-4.3497,-4.3497,-4.3497,-4.3497,-4.3497,-4.3497,-4.3497,-4.3497,-4.3497,-4.2231,-4.0029,-4.0029,-3.9515,-3.8578,-3.7097,-3.6122,-3.5622,-3.5622,-3.4303,-3.2593,-3.3842,-3.4667,-3.5018,0.0,0.0,0.0,0.0,0.0,0.0,0.0,0.0,0.0,0.0,0.0,0.0,0.0,0.0,0.0,0.0,0.0,0.0,0.0,-0.9742,-1.0981,-1.4098,-1.4261,-1.5492,-1.8037,-1.7441,-1.7856,-1.9504,-1.8411,-1.8091,-1.8519,-1.9094,-1.9321,-1.9353,-1.9893,-2.0138,-2.0116,-1.9657,-1.8547,-1.7005,-1.6028,-1.4147,-1.1759,-0.9964,-0.8676,-0.7832,-0.7857,0.0,0.0,0.0,-0.7844,-0.8921,-1.0191,-1.1586,0.0,-1.3273,-1.3691,0.0,0.0,0.0,-1.8806,-2.0701,-2.3937,-2.7113,-2.894,-3.1533,-3.376,-3.4233,-3.4968,-3.5509,-3.5526,-3.5543,-3.5622,-3.5622,-3.7268,-3.8596,-3.8596,-3.8596,-3.7406,-3.422,-3.1151,-2.9854,0.0,-3.584,-3.8744,-3.8836,-4.1644,-4.2029,-3.9019,-3.8854,-4.0286,-4.3387,-4.3497,-4.3497,-4.3497,-4.3497,-4.3497,-4.3497,-4.3497,-4.3497,-4.3497,-4.3497,-4.3442,-4.3332,-4.3332,-4.157,-3.8707,-3.8627,-3.7433,-3.5622,-3.5622,-3.5571,-3.5487,-3.5514,-3.6823,-3.8102,0.0,0.0,0.0,0.0,0.0,0.0,0.0,0.0,0.0,0.0,0.0,0.0,0.0,0.0,0.0,0.0,0.0,0.0,0.0,-0.9128,-1.0152,-1.2061,-1.3512,-1.4934,-1.6331,-1.694,-1.7704,-1.8679,-1.8071,-1.8014,-1.8452,-1.8326,-1.8346,-1.8473,-1.8532,-1.8713,-1.8919,-1.7709,-1.7436,-1.749,-1.4262,-1.249,-1.1469,-0.8936,-0.7095,-0.5937,0.0,0.0,0.0,0.0,-0.6455,-0.736,-0.801,0.0,0.0,-1.3263,-1.4259,-1.5155,0.0,0.0,-2.2041,-2.4365,-2.7115,-2.9803,-3.1836,-3.3363,-3.4479,-3.5118,-3.5424,-3.5318,-3.4336,-3.4962,-3.4979,-3.3,-3.6078,-3.8707,-3.8707,-3.8707,-3.7477,-3.4192,-3.2834,0.0,0.0,0.0,0.0,-3.8707,-3.9698,-4.0763,-4.1827,-4.1882,-4.2378,-4.3461,-4.3497,-4.3497,-4.3497,-4.3497,-4.3497,-4.3497,-4.3497,-4.3497,-4.3497,-4.3497,-4.3497,-4.3497,-4.3497,-4.2873,-4.1717,-3.9588,-3.8285,-3.7667,-3.7667,-3.7667,-3.7667,-3.7667,-3.8083,-3.8542,0.0,0.0,0.0,0.0,0.0,0.0,0.0,0.0,0.0,0.0,0.0,0.0,0.0,0.0,0.0,0.0,0.0,0.0,0.0,0.0,-0.9118,-1.0256,-1.2225,-1.3776,-1.4782,-1.5973,-1.6933,-1.7702,-1.694,-1.6774,-1.7215,-1.6589,-1.6394,-1.6491,-1.6506,-1.6681,-1.6877,-1.5502,-1.5432,-1.5945,-1.2332,-1.0681,-1.0112,-0.7649,-0.5984,0.0,0.0,0.0,0.0,0.0,0.0,0.0,-0.731,-0.9259,-1.1717,-1.381,-1.5597,-1.7548,-2.0765,-2.3342,-2.5708,-2.7918,-3.063,-3.3029,-3.4153,-3.5126,-3.5858,-3.6072,-3.5866,-3.5334,-3.437,-3.4117,-3.3051,-3.0074,-3.4738,-3.8707,-3.8707,-3.8707,-3.7918,-3.5807,-3.4504,-3.3954,0.0,0.0,0.0,-3.7048,-3.8046,-4.0102,-4.3314,-4.3497,-4.3497,-4.3497,-4.3986,-4.4243,-4.4243,-4.3758,-4.3497,-4.3497,-4.3497,-4.3497,-4.3497,-4.3497,-4.3497,-4.3497,-4.3497,-4.3497,-4.324,-4.0029,-3.8707,-3.8707,-3.8707,-3.8707,-3.8836,-3.9992,-3.9698,-3.8707,0.0,0.0,0.0,0.0,0.0,0.0,0.0,0.0,0.0,0.0,0.0,0.0,0.0,0.0,0.0,0.0,0.0,0.0,0.0,0.0,0.0,-0.8803,-1.0516,-1.21,-1.3462,-1.4584,-1.563,-1.6652,-1.5155,-1.4609,-1.4924,-1.4066,-1.366,-1.3633,-1.4,-1.4192,-1.409,-1.3183,-1.2838,-1.2671,-1.0349,-0.8827,-0.7792,-0.6216,0.0,0.0,0.0,0.0,0.0,0.0,0.0,0.0,0.0,-1.1392,-1.4556,-1.5218,-1.7827,-2.1054,-2.3608,-2.6763,-2.972,-3.1332,-3.4273,-3.6568,-3.5797,-3.6674,-3.7532,-3.7039,-3.6056,-3.5301,0.0,0.0,-2.9753,-2.6725,-3.2836,-3.7973,-3.7973,-3.8542,-3.8891,0.0,0.0,0.0,0.0,0.0,0.0,-3.4707,0.0,-4.0178,-4.3314,-4.3582,-4.3597,-4.3597,-4.4905,-4.5586,-4.5586,-4.4204,-4.3497,-4.3497,-4.3497,-4.3497,-4.3497,-4.3497,-4.3497,-4.3497,-4.3497,-4.3497,-4.3259,-4.027,-3.9019,-3.8946,-3.8946,-3.8946,-3.9331,-4.2359,-4.146,-3.8707,0.0,0.0,0.0,0.0,0.0,0.0,0.0,0.0,0.0,0.0,0.0,0.0,0.0,0.0,0.0,0.0,0.0,0.0,0.0,0.0,0.0,0.0,0.0,0.0,0.0,0.0,0.0,0.0,0.0,-1.3336,-1.2791,-1.2265,-1.1689,-1.1125,-1.1226,-1.1155,-1.0929,-1.0339,-1.0421,-1.0678,0.0,-0.7115,-0.719,0.0,0.0,0.0,0.0,0.0,0.0,0.0,0.0,0.0,0.0,-1.4681,-1.6606,-1.8908,-2.1904,-2.5009,-2.7597,-3.0398,-3.295,-3.4358,-3.5735,-3.6605,-3.5837,-3.512,-3.4615,-3.4877,-3.2648,-3.1004,0.0,0.0,0.0,-2.0568,-2.4474,0.0,-2.7897,-3.6193,0.0,-3.9001,0.0,-4.1549,-4.2885,-4.3797,0.0,0.0,-4.0997,-4.1057,-4.3364,-4.4489,-4.5058,-4.5058,-4.54,-4.5586,-4.5586,-4.4204,-4.3497,-4.3497,-4.3497,-4.3497,-4.3497,-4.3497,-4.3497,-4.3497,-4.3497,-4.3497,-4.3508,-4.3737,-4.322,-4.2268,-4.2268,-4.2268,-4.2378,-4.3185,-4.146,-3.8707,0.0,0.0,0.0,0.0,0.0,0.0,0.0,0.0,0.0,0.0,0.0,0.0,0.0,0.0,0.0,0.0,0.0,0.0,0.0,0.0,0.0,0.0,0.0,0.0,0.0,0.0,0.0,0.0,0.0,0.0,0.0,-0.9653,-0.9068,-0.8609,-0.8495,-0.8359,-0.818,0.0,0.0,0.0,0.0,0.0,0.0,0.0,0.0,0.0,0.0,0.0,0.0,0.0,0.0,-1.3364,-1.6014,-1.8479,-2.0874,-2.3477,0.0,-2.8974,-3.1341,-3.3788,-3.5812,-3.65,-3.7237,-3.7324,-3.5564,-3.3991,-3.29,-3.2866,-3.0801,0.0,0.0,0.0,0.0,0.0,0.0,0.0,-3.0558,-3.8028,-4.2818,0.0,-4.2396,0.0,-4.5457,-4.5586,-4.5586,0.0,-4.3816,-4.3235,-4.4369,-4.5163,-4.5586,-4.5586,-4.5586,-4.5586,-4.5586,-4.4834,-4.4409,-4.4409,-4.4409,-4.4409,-4.4409,-4.4409,-4.4409,-4.4409,0.0,-4.4409,-4.4489,-4.5264,-4.5142,-4.4409,-4.4409,-4.4409,-4.4409,-4.4409,-4.3269,-4.1506,0.0,0.0,0.0,0.0,0.0,0.0,0.0,0.0,0.0,0.0,0.0,0.0,0.0,0.0,0.0,0.0,0.0,0.0,0.0,0.0,0.0,0.0,0.0,0.0,0.0,0.0,0.0,0.0,0.0,0.0,0.0,0.0,0.0,0.0,0.0,0.0,0.0,0.0,0.0,0.0,0.0,0.0,0.0,0.0,0.0,0.0,0.0,0.0,0.0,0.0,-1.5257,-1.6767,-1.909,-2.253,-2.6022,-2.8035,-3.04,-3.2788,-3.4554,-3.6626,-3.8236,-3.8116,-3.8507,-3.8048,-3.4932,-3.2894,-3.1427,-3.0497,0.0,-2.5228,-1.7285,-1.7233,-2.0145,-2.5487,0.0,-3.8212,-3.8652,-4.146,-4.3497,-4.3497,-4.3497,-4.3986,-4.5203,-4.5495,-4.5586,-4.5586,-4.5586,-4.5586,-4.5586,-4.5586,-4.5586,-4.5586,-4.5586,-4.5586,-4.5586,-4.5586,-4.5586,-4.5586,-4.5586,-4.5586,-4.5586,-4.5586,-4.5586,-4.5586,-4.5586,-4.5586,-4.5586,-4.5586,-4.5586,-4.5586,-4.5586,-4.5586,-4.5586,-4.5586,-4.5586,-4.5105,0.0,0.0,0.0,0.0,0.0,0.0,0.0,0.0,0.0,0.0,0.0,0.0,0.0,0.0,0.0,0.0,0.0,0.0,0.0,0.0,0.0,0.0,0.0,0.0,0.0,0.0,0.0,0.0,0.0,0.0,0.0,0.0,0.0,0.0,0.0,0.0,0.0,0.0,0.0,0.0,0.0,0.0,0.0,0.0,0.0,0.0,0.0,0.0,0.0,0.0,-1.709,-2.0135,-2.2876,-2.6391,-2.9708,-3.0629,-3.3295,-3.6017,-3.6357,-3.8066,-3.975,-3.9714,-3.8907,-3.7131,-3.3515,-3.0555,0.0,0.0,0.0,-1.9718,-1.6422,-1.8945,0.0,-2.4275,0.0,0.0,0.0,0.0,-4.3497,0.0,0.0,0.0,0.0,0.0,0.0,0.0,0.0,-4.5586,-4.5586,-4.5586,-4.5586,-4.5586,-4.5586,-4.5586,-4.5586,-4.5586,-4.5586,-4.5586,-4.5586,-4.5586,-4.5586,-4.5586,-4.5586,-4.5586,-4.5586,0.0,-4.5586,-4.5586,-4.5586,-4.5586,-4.5586,-4.5586,-4.5586,-4.5586,-4.5586,-4.5105,0.0,0.0,0.0,0.0,0.0,0.0,0.0,0.0,0.0,0.0,-0.5478,0.0,0.0,0.0,0.0,0.0,0.0,0.0,0.0,0.0,0.0,0.0,0.0,0.0,0.0,0.0,0.0,0.0,0.0,0.0,0.0,0.0,0.0,0.0,0.0,0.0,0.0,0.0,0.0,0.0,0.0,0.0,0.0,0.0,0.0,0.0,0.0,0.0,0.0,0.0,-1.734,-2.1822,-2.5123,-2.8576,-3.1782,-3.3533,-3.5539,-3.7445,-3.8486,-3.9874,-4.0984,-4.0984,-3.9043,-3.62,-3.241,0.0,0.0,0.0,0.0,-1.7847,-1.6118,0.0,0.0,0.0,0.0,0.0,0.0,0.0,0.0,0.0,0.0,0.0,0.0,0.0,0.0,0.0,0.0,-4.5586,-4.5586,-4.5586,-4.5586,-4.5586,-4.5586,-4.5586,-4.5586,-4.5586,-4.5586,-4.5586,-4.5586,-4.5586,-4.5586,-4.5586,-4.5586,-4.5586,-4.5586,-4.5586,-4.5531,-4.4811,-4.4928,-4.5586,-4.5586,-4.5586,-4.5586,-4.5586,-4.5586,-4.5355,0.0,0.0,0.0,0.0,0.0,0.0,0.0,-0.4098,-0.4731,-0.547,-0.5848,-0.6117,-0.6271,-0.6088,0.0,0.0,0.0,0.0,0.0,0.0,0.0,0.0,0.0,0.0,0.0,0.0,0.0,0.0,0.0,0.0,0.0,0.0,0.0,0.0,0.0,0.0,0.0,0.0,0.0,0.0,0.0,0.0,0.0,0.0,0.0,0.0,0.0,0.0,0.0,0.0,-1.6866,-2.1538,-2.5121,-2.894,-3.2479,-3.4455,-3.6163,-3.7802,-3.9498,-4.075,-4.1621,-4.175,-3.9006,-3.5327,-3.1708,-2.856,0.0,0.0,-1.8552,-1.7408,-1.6052,0.0,0.0,0.0,0.0,0.0,0.0,0.0,0.0,0.0,0.0,0.0,0.0,0.0,0.0,0.0,0.0,0.0,-4.5586,-4.5586,-4.5586,-4.5586,-4.5586,-4.5586,-4.5586,-4.5586,-4.5586,-4.5586,-4.5586,-4.5586,-4.5586,-4.5586,-4.5586,-4.5586,-4.5586,-4.5586,-4.5513,-4.4409,-4.4594,-4.5586,-4.5586,-4.5586,-4.5586,-4.5586,-4.5586,-4.5586,0.0,0.0,0.0,0.0,0.0,0.0,0.0,-0.4565,-0.5288,-0.6035,-0.6354,-0.6547,-0.6564,-0.6336,0.0,0.0,0.0,0.0,0.0,0.0,0.0,0.0,0.0,0.0,0.0,0.0,0.0,0.0,0.0,0.0,0.0,0.0,0.0,0.0,0.0,0.0,0.0,0.0,0.0,0.0,0.0,0.0,0.0,0.0,0.0,0.0,0.0,0.0,0.0,0.0,0.0,-1.8175,-2.1192,-2.6372,-3.1207,-3.0789,0.0,0.0,-3.7672,-3.9425,-4.1133,-4.1664,-3.862,-3.47,-3.1586,0.0,0.0,-1.8482,-1.7602,-1.7408,-1.6052,-1.7957,0.0,0.0,0.0,0.0,0.0,0.0,0.0,0.0,0.0,0.0,0.0,0.0,0.0,0.0,0.0,0.0,-4.5586,-4.5586,-4.5586,-4.5586,-4.5586,-4.5586,-4.5586,-4.5586,-4.5586,-4.5586,-4.5586,-4.5586,-4.5586,-4.5586,-4.5586,-4.5586,-4.5586,-4.5586,0.0,-4.5457,-4.5475,-4.5586,-4.5586,-4.5586,-4.5586,-4.5586,-4.5586,-4.5586,0.0,0.0,0.0,0.0,0.0,0.0,0.0,-0.454,-0.5134,-0.6071,-0.6289,-0.6423,-0.6591,-0.6248,0.0,0.0,0.0,0.0,0.0,0.0,0.0,0.0,0.0,0.0,0.0,0.0,0.0,0.0,0.0,0.0,0.0,0.0,0.0,0.0,0.0,0.0,0.0,0.0,0.0,0.0,0.0,0.0,0.0,0.0,0.0,0.0,0.0,0.0,0.0,0.0,0.0,0.0,-1.6598,-2.0307,0.0,0.0,-3.1288,-3.4409,-3.679,-3.9315,-4.1439,-4.2177,-3.8579,-3.4581,-3.3538,0.0,0.0,-1.8358,-1.7027,-1.6905,-1.7964,-1.7717,-1.7882,0.0,0.0,0.0,0.0,0.0,0.0,0.0,0.0,0.0,0.0,0.0,0.0,0.0,0.0,0.0,-4.5549,-4.5586,-4.5586,-4.5586,-4.5586,-4.5586,-4.5586,-4.5586,-4.5586,-4.5586,-4.5586,-4.5586,-4.5586,-4.5586,-4.5586,-4.5586,-4.5586,-4.5586,0.0,-4.5586,-4.5586,-4.5586,-4.5586,-4.5586,-4.5586,-4.5586,-4.5586,-4.5586,0.0,0.0,0.0,0.0,0.0,0.0,-0.3263,-0.4147,-0.4972,-0.6035,-0.613,-0.6183,-0.6359,-0.6088,-0.5918,-0.5986,0.0,0.0,0.0,0.0,0.0,0.0,0.0,0.0,0.0,0.0,0.0,0.0,0.0,0.0,0.0,0.0,0.0,0.0,0.0,0.0,0.0,0.0,0.0,0.0,0.0,0.0,0.0,0.0,0.0,0.0,0.0,0.0,0.0,0.0,0.0,0.0,0.0,0.0,0.0,0.0,-2.8201,-3.1498,-3.5013,-3.8079,-4.0526,-4.1596,-3.799,-3.3997,0.0,0.0,-2.1478,-1.8624,-1.7456,-1.7282,-1.8362,-1.7043,-1.6398,0.0,0.0,0.0,0.0,0.0,0.0,0.0,0.0,0.0,0.0,0.0,0.0,0.0,0.0,0.0,-4.555,-4.5586,-4.5586,-4.5586,-4.5586,-4.5586,-4.5586,-4.5586,-4.5586,-4.5586,-4.5586,-4.5586,-4.5586,-4.5586,-4.5586,-4.5586,-4.5586,-4.5586,0.0,-4.5142,-4.5223,-4.5586,-4.5586,-4.5586,-4.5586,-4.5586,-4.5586,-4.5586,0.0,0.0,0.0,0.0,0.0,0.0,0.0,-0.3397,-0.4962,-0.5968,-0.5991,-0.5911,-0.5911,-0.5911,-0.58,-0.553,0.0,0.0,0.0,0.0,0.0,0.0,0.0,0.0,0.0,0.0,0.0,0.0,0.0,0.0,0.0,0.0,0.0,0.0,0.0,0.0,0.0,0.0,0.0,0.0,0.0,0.0,0.0,0.0,0.0,0.0,0.0,0.0,0.0,0.0,0.0,0.0,0.0,0.0,0.0,0.0,-2.4091,-2.8561,-3.1933,-3.5029,-3.7756,-3.9506,-3.6577,-3.2647,0.0,0.0,-2.1608,-1.9108,-1.9155,-1.8886,-1.6308,-1.5829,-1.5814,-1.5844,0.0,0.0,0.0,0.0,0.0,0.0,0.0,0.0,0.0,0.0,0.0,0.0,0.0,0.0,-4.5586,-4.5586,-4.5586,-4.5586,-4.5586,-4.5586,-4.5586,-4.5586,-4.5586,-4.5586,-4.5586,-4.5586,-4.5586,-4.5586,-4.5586,-4.5586,-4.5586,-4.5586,0.0,-4.4106,-4.4327,-4.5586,-4.5586,-4.5586,-4.5586,-4.5586,-4.5586,-4.5586,0.0,0.0,0.0,0.0,0.0,0.0,0.0,-0.1432,-0.2878,-0.5119,-0.5585,-0.5611,-0.5384,-0.5184,-0.504,-0.4971,0.0,0.0,0.0,0.0,0.0,0.0,0.0,0.0,0.0,0.0,0.0,0.0,0.0,0.0,0.0,0.0,0.0,0.0,0.0,0.0,0.0,0.0,0.0,0.0,0.0,0.0,0.0,0.0,0.0,0.0,0.0,0.0,0.0,0.0,0.0,0.0,0.0,0.0,0.0,0.0,0.0,0.0,-2.686,-2.9376,-3.1311,-3.288,-3.0828,-2.9134,-3.181,-2.6139,-1.9887,-1.837,-1.8235,-1.7866,-1.6135,-1.5799,-1.5799,-1.5799,-1.8454,0.0,0.0,0.0,0.0,0.0,0.0,0.0,0.0,0.0,0.0,0.0,0.0,-4.4594,-4.555,-4.5586,-4.5586,-4.5586,-4.5586,-4.5586,-4.5586,-4.5586,-4.5586,-4.5586,-4.5586,-4.5586,-4.5586,-4.5586,-4.5586,-4.5586,-4.5586,-4.5586,-4.5568,-4.512,-4.5203,-4.5586,-4.5586,-4.5586,-4.5586,-4.5586,-4.5586,-4.5586,0.0,0.0,0.0,0.0,0.0,0.0,0.0,-0.0319,-0.1349,-0.3565,-0.427,-0.4639,-0.4779,-0.4736,-0.4706,-0.4706,0.0,0.0,0.0,0.0,0.0,0.0,0.0,0.0,0.0,0.0,0.0,0.0,0.0,0.0,0.0,0.0,0.0,0.0,0.0,0.0,0.0,0.0,0.0,0.0,0.0,0.0,-0.5127,0.0,0.0,0.0,0.0,0.0,0.0,0.0,0.0,0.0,0.0,0.0,0.0,0.0,-1.535,0.0,0.0,-2.5122,-2.6871,-2.8241,-2.7082,0.0,0.0,-2.4718,-1.9569,-1.8087,-1.7811,-1.7408,-1.6052,-1.5799,-1.5799,-1.5799,-1.8002,0.0,0.0,0.0,0.0,0.0,0.0,0.0,0.0,0.0,0.0,0.0,0.0,-4.4117,-4.5531,-4.5586,-4.5586,-4.5586,-4.5586,-4.5586,-4.5586,-4.5586,-4.5586,-4.5586,-4.5586,-4.5586,-4.5586,-4.5586,-4.5586,-4.5586,-4.5586,-4.5586,0.0,-4.5586,-4.5586,-4.5586,-4.5586,-4.5586,-4.5586,-4.5586,-4.5586,-4.5586,0.0,0.0,0.0,0.0,0.0,0.0,0.0,0.0,0.0,0.0,-0.2437,-0.3233,-0.4107,-0.4446,-0.4626,0.0,0.0,0.0,0.0,0.0,0.0,0.0,0.0,0.0,0.0,0.0,0.0,-0.753,-0.7557,-0.8013,-0.8826,0.0,0.0,0.0,0.0,0.0,0.0,-0.5954,-0.5566,-0.5127,-0.5368,-0.533,0.0,0.0,0.0,0.0,0.0,0.0,0.0,0.0,0.0,0.0,0.0,0.0,0.0,0.0,0.0,0.0,0.0,0.0,0.0,0.0,0.0,0.0,0.0,-2.179,0.0,-1.8217,-1.7811,-1.7432,-1.6176,-1.5856,-1.5827,-1.5926,-1.8067,0.0,0.0,0.0,0.0,0.0,0.0,0.0,0.0,0.0,0.0,0.0,0.0,-4.4233,-4.5531,-4.5586,-4.5586,-4.5586,-4.5586,-4.5586,-4.5586,-4.5586,-4.5586,-4.5586,-4.5586,-4.5586,-4.5586,-4.5586,-4.5586,0.0,-4.5586,-4.5586,0.0,-4.5586,-4.5586,-4.5586,-4.5586,-4.5586,-4.5586,-4.5586,-4.5586,-4.5586,0.0,0.0,0.0,0.0,0.0,0.0,0.0,0.0,0.0,0.0,0.0,-0.2977,-0.3195,-0.355,0.0,0.0,0.0,0.0,0.0,0.0,0.0,0.0,0.0,0.0,0.0,0.0,0.0,-0.6835,-0.7244,-0.7748,-0.8286,-0.8349,0.0,0.0,0.0,-0.6791,-0.5954,-0.5708,-0.5406,-0.5108,-0.5166,-0.5146,0.0,0.0,0.0,0.0,-0.6,-0.684,0.0,0.0,0.0,0.0,0.0,0.0,0.0,0.0,-1.2272,-1.2535,-1.4107,0.0,-1.6659,-1.7513,-1.7983,-1.8496,0.0,0.0,0.0,0.0,0.0,0.0,-1.7384,-1.6485,-1.6136,-1.7175,-1.8671,0.0,0.0,0.0,0.0,0.0,0.0,0.0,0.0,0.0,0.0,0.0,0.0,-4.5244,-4.5586,-4.5586,-4.5586,-4.5586,-4.5586,-4.5586,-4.5586,-4.5586,-4.5586,-4.5586,-4.5586,-4.5586,-4.5586,-4.5586,-4.5586,-4.5586,-4.5586,-4.5586,-4.5586,-4.5586,-4.5586,-4.5586,-4.5586,-4.5586,-4.5586,-4.5586,-4.5586,-4.5586,0.0,0.0,0.0,0.0,0.0,0.0,0.0,0.0,0.0,0.0,0.0,0.0,0.0,0.0,0.0,0.0,0.0,0.0,0.0,0.0,0.0,0.0,0.0,0.0,0.0,0.0,0.0,0.0,0.0,-0.7493,0.0,0.0,0.0,0.0,0.0,-0.6348,-0.5708,-0.5689,-0.5463,-0.5127,-0.5472,0.0,0.0,0.0,0.0,0.0,-0.6398,-0.7143,0.0,-0.8548,-0.9377,-1.0235,0.0,0.0,0.0,0.0,-1.1796,-1.1861,-1.2154,-1.3195,-1.4321,-1.4824,-1.5296,-1.5984,0.0,0.0,0.0,0.0,0.0,0.0,0.0,0.0,0.0,0.0,-1.8884,0.0,0.0,0.0,0.0,0.0,0.0,0.0,0.0,0.0,0.0,0.0,0.0,-4.5586,-4.5586,-4.5586,-4.5586,-4.5586,-4.5586,-4.5586,-4.5586,-4.5586,-4.5586,-4.5586,-4.5586,-4.5586,-4.5586,-4.5586,-4.5586,-4.5586,-4.5586,-4.5586,-4.5586,-4.5586,-4.5586,-4.5586,-4.5586,-4.5586,-4.5586,-4.5586,-4.5586,-4.5586,0.0,0.0,0.0,0.0,0.0,0.0,0.0,0.0,0.0,0.0,0.0,0.0,0.0,0.0,0.0,0.0,0.0,0.0,0.0,0.0,0.0,0.0,0.0,0.0,0.0,0.0,0.0,0.0,0.0,0.0,0.0,0.0,-0.8139,0.0,0.0,-0.5708,-0.5511,-0.5745,-0.5547,-0.5166,-0.5868,0.0,0.0,0.0,0.0,0.0,0.0,0.0,0.0,-0.8978,-0.9508,-0.9932,-1.0297,0.0,0.0,0.0,0.0,0.0,-1.1659,-1.3003,-1.4315,-1.4285,-1.446,-1.4897,0.0,0.0,0.0,0.0,0.0,0.0,0.0,0.0,0.0,0.0,0.0,0.0,0.0,0.0,0.0,0.0,0.0,0.0,0.0,0.0,0.0,0.0,0.0,-4.5586,-4.5586,-4.5586,-4.5586,-4.5586,-4.5586,-4.5586,-4.5586,-4.5586,-4.5586,-4.5586,-4.5586,-4.5586,-4.5586,-4.5586,-4.5586,-4.5586,0.0,0.0,-4.5586,-4.5586,-4.5586,-4.5586,-4.5586,-4.5586,-4.5586,-4.5586,-4.5586,-4.5586,0.0,0.0,0.0,0.0,0.0,0.0,0.0,0.0,0.0,0.0,0.0,0.0,0.0,0.0,0.0,0.0,0.0,0.0,0.0,0.0,0.0,0.0,0.0,0.0,0.0,0.0,0.0,0.0,0.0,0.0,-0.8126,-0.8834,-0.873,-0.7906,-0.629,-0.5549,-0.5511,-0.5549,-0.5387,-0.5146,-0.5648,0.0,0.0,0.0,0.0,0.0,0.0,0.0,0.0,-0.824,-0.9028,-0.9881,-1.0297,0.0,0.0,0.0,0.0,0.0,-1.1363,-1.2847,-1.4031,-1.2606,-1.3106,-1.3712,0.0,0.0,0.0,0.0,0.0,0.0,0.0,0.0,0.0,0.0,0.0,0.0,0.0,0.0,0.0,0.0,0.0,0.0,0.0,0.0,0.0,0.0,-4.5475,-4.5586,-4.5586,-4.5586,-4.5586,-4.5586,-4.5586,-4.5586,-4.5586,-4.5586,-4.5586,-4.5586,-4.5586,-4.5586,-4.5586,-4.5586,-4.5586,-4.5586,0.0,-4.5586,-4.5586,-4.5586,-4.5586,-4.5586,-4.5586,-4.5586,-4.5586,-4.5586,-4.5586,-4.5586,0.0,0.0,0.0,0.0,0.0,0.0,0.0,0.0,0.0,0.0,0.0,0.0,0.0,0.0,0.0,0.0,0.0,0.0,0.0,0.0,0.0,0.0,0.0,0.0,0.0,0.0,0.0,0.0,0.0,-0.7185,-0.7783,-0.8004,-0.7723,-0.6987,-0.5803,-0.5291,-0.5291,-0.5291,-0.5214,-0.5166,0.0,0.0,0.0,0.0,0.0,0.0,0.0,0.0,0.0,0.0,-0.8682,-0.9305,-0.9893,0.0,0.0,0.0,0.0,0.0,-1.1094,-1.2056,-1.3205,-1.3793,-1.3331,-1.2942,0.0,0.0,0.0,0.0,0.0,0.0,0.0,0.0,0.0,0.0,0.0,0.0,0.0,0.0,0.0,0.0,0.0,0.0,0.0,0.0,0.0,0.0,-4.3874,-4.2835,-4.2835,-4.3078,-4.3222,-4.3222,-4.4998,-4.5105,-4.3229,-4.506,-4.5847,-4.5586,-4.5586,-4.5586,-4.5586,-4.5586,-4.5586,-4.5586,0.0,-4.5586,-4.5586,-4.5586,-4.5586,-4.5586,-4.5586,-4.5586,-4.5586,-4.5586,-4.5586,-4.5586,0.0,0.0,0.0,0.0,0.0,0.0,0.0,0.0,0.0,0.0,0.0,0.0,0.0,0.0,0.0,0.0,0.0,0.0,0.0,0.0,0.0,0.0,0.0,0.0,0.0,0.0,-0.575,-0.6478,-0.6635,-0.6962,-0.7445,-0.6886,-0.6471,0.0,-0.539,-0.5033,-0.5042,-0.5197,-0.5255,-0.5342,0.0,0.0,0.0,0.0,0.0,0.0,0.0,0.0,0.0,0.0,0.0,0.0,0.0,0.0,0.0,-1.0675,-1.0801,-1.0944,-1.0849,-1.113,-1.1982,-1.4293,0.0,-1.3313,-1.6576,0.0,0.0,0.0,0.0,0.0,0.0,0.0,0.0,0.0,0.0,0.0,0.0,0.0,0.0,0.0,0.0,0.0,0.0,0.0,0.0,0.0,-4.2431,-4.0489,-4.0489,-4.0953,-4.1191,-4.1191,-4.3741,-4.3846,-4.1222,-4.4582,-4.6128,-4.5764,-4.5648,-4.5586,-4.5586,-4.5586,-4.5586,-4.5586,-4.5586,-4.5586,-4.5586,-4.5586,-4.5586,-4.5586,-4.5586,-4.5586,-4.5586,-4.5586,-4.5586,-4.5586,0.0,0.0,0.0,0.0,0.0,0.0,0.0,0.0,0.0,0.0,0.0,0.0,0.0,0.0,0.0,0.0,0.0,0.0,0.0,0.0,0.0,0.0,0.0,0.0,0.0,-0.515,-0.5819,-0.6682,-0.6502,-0.6643,-0.7029,-0.5993,-0.5672,-0.5895,-0.5152,-0.4814,-0.4862,-0.5473,-0.5753,-0.5837,-0.669,0.0,0.0,0.0,0.0,0.0,0.0,0.0,0.0,0.0,0.0,0.0,0.0,0.0,-1.0057,-0.9993,-1.0545,-1.1085,-1.0705,-1.0338,-1.0377,-1.1761,0.0,0.0,-2.0688,0.0,0.0,0.0,0.0,0.0,0.0,0.0,0.0,0.0,0.0,0.0,0.0,0.0,0.0,0.0,0.0,0.0,0.0,0.0,0.0,0.0,-4.2431,-4.0489,-4.0489,-4.0953,-4.1191,-4.1191,-4.1444,-4.1442,-4.1207,-4.4589,-4.6289,-4.6246,-4.5808,-4.5586,-4.5586,-4.5586,-4.5586,-4.5586,-4.5586,-4.5586,-4.5586,-4.5586,-4.5586,-4.5586,-4.5586,-4.5586,-4.5586,-4.5586,-4.5586,-4.5586,0.0,0.0,0.0,0.0,0.0,0.0,0.0,0.0,0.0,0.0,0.0,0.0,0.0,0.0,0.0,0.0,0.0,0.0,0.0,0.0,0.0,0.0,0.0,-0.4792,-0.5224,-0.5333,-0.5764,-0.6524,-0.6726,-0.6765,-0.6609,-0.6241,0.0,0.0,-0.5297,-0.5037,-0.507,-0.5324,-0.5583,-0.5843,-0.6464,-0.6892,0.0,0.0,0.0,0.0,0.0,0.0,0.0,0.0,-0.8128,-0.8211,0.0,0.0,-1.0463,-1.0033,-1.0521,-1.1062,-1.0348,-1.0693,-1.126,-1.1252,0.0,0.0,0.0,0.0,0.0,0.0,0.0,0.0,0.0,0.0,0.0,0.0,0.0,0.0,0.0,0.0,0.0,0.0,0.0,0.0,0.0,0.0,0.0,0.0,0.0,-4.0489,-4.0489,-4.0953,-4.1191,-4.1191,-4.1191,-4.1191,-4.1191,-4.459,-4.6296,-4.6297,-4.5808,-4.5586,-4.5586,-4.5586,-4.5586,-4.5586,-4.5586,-4.5586,-4.5586,-4.5586,-4.5586,-4.5586,-4.5586,-4.5586,-4.5586,-4.5586,-4.577,-4.6034,0.0,0.0,0.0,0.0,0.0,0.0,0.0,0.0,0.0,0.0,0.0,0.0,0.0,0.0,0.0,0.0,0.0,0.0,0.0,0.0,0.0,0.0,0.0,-0.504,-0.5525,-0.5396,-0.5746,-0.6631,-0.6797,-0.6719,-0.6406,0.0,0.0,0.0,0.0,0.0,-0.5273,-0.5382,-0.5637,-0.6065,-0.6519,-0.6934,0.0,0.0,0.0,0.0,0.0,0.0,0.0,0.0,-0.7818,0.0,0.0,0.0,0.0,-0.9957,-1.0422,-1.0849,-1.0097,-1.0646,-1.1602,0.0,0.0,0.0,0.0,0.0,0.0,0.0,0.0,0.0,0.0,0.0,0.0,0.0,0.0,0.0,0.0,0.0,0.0,0.0,0.0,0.0,0.0,0.0,0.0,0.0,0.0,0.0,0.0,-4.0953,-4.1191,-4.1191,-4.1191,-4.1191,-4.1191,-4.459,-4.6292,-4.6298,-4.5966,-4.5812,-4.582,-4.582,-4.582,-4.582,-4.582,-4.582,-4.582,-4.582,-4.582,-4.582,-4.582,-4.582,-4.582,-4.582,-4.6027,-4.6308,0.0,0.0,0.0,0.0,0.0,0.0,0.0,0.0,0.0,0.0,0.0,0.0,0.0,0.0,0.0,0.0,0.0,0.0,0.0,0.0,0.0,0.0,0.0,-0.4734,-0.5384,-0.5272,-0.5832,-0.709,-0.6631,-0.6382,-0.6392,-0.6114,0.0,0.0,0.0,0.0,0.0,-0.577,-0.6121,-0.654,-0.6931,-0.7344,-0.7695,0.0,0.0,0.0,0.0,0.0,0.0,0.0,-0.761,-0.6901,0.0,0.0,0.0,0.0,-1.0236,-1.0485,-1.0021,-0.9905,0.0,0.0,0.0,0.0,0.0,0.0,0.0,0.0,0.0,0.0,0.0,0.0,0.0,0.0,0.0,0.0,0.0,0.0,0.0,0.0,0.0,0.0,0.0,0.0,0.0,0.0,0.0,0.0,0.0,-4.0953,-4.1191,-4.1191,-4.1191,-4.1191,-4.1191,-4.4551,-4.625,-4.625,-4.6251,-4.6255,-4.625,-4.625,-4.6269,-4.6308,-4.6308,-4.6308,-4.6308,-4.6308,-4.6308,-4.6308,-4.6308,-4.6308,-4.6308,-4.6308,-4.6308,-4.6308,0.0,0.0,0.0,0.0,0.0,0.0,0.0,0.0,0.0,0.0,0.0,0.0,0.0,0.0,0.0,0.0,0.0,0.0,0.0,0.0,0.0,0.0,0.0,0.0,0.0,0.0,-0.5728,-0.5762,-0.5908,-0.6153,0.0,0.0,0.0,-0.6765,0.0,0.0,-0.574,-0.5845,-0.6121,-0.651,-0.6639,-0.7098,-0.7695,0.0,0.0,0.0,0.0,0.0,0.0,0.0,0.0,0.0,0.0,0.0,0.0,-0.9534,-0.9791,-0.997,-0.9647,-1.0454,0.0,0.0,0.0,0.0,0.0,0.0,0.0,0.0,0.0,0.0,0.0,0.0,0.0,0.0,0.0,0.0,0.0,0.0,0.0,0.0,0.0,0.0,0.0,0.0,0.0,0.0,0.0,0.0,0.0,-4.0953,-4.1191,-4.1191,-4.1191,-4.1191,-4.1191,-4.2207,-4.2715,-4.2715,-4.2705,-4.2705,-4.2715,-4.2715,-4.4023,-4.6308,-4.6308,-4.6308,-4.6308,-4.6308,-4.6308,-4.6308,-4.6308,-4.6308,-4.6308,-4.6308,-4.6308,-4.6308,0.0,0.0,0.0,0.0,0.0,0.0,0.0,0.0,0.0,0.0,0.0,0.0,0.0,0.0,0.0,0.0,0.0,0.0,0.0,0.0,0.0,0.0,0.0,0.0,0.0,-0.57,-0.5656,0.0,0.0,0.0,0.0,0.0,0.0,-0.7305,0.0,-0.6408,0.0,-0.5848,-0.6051,-0.6655,-0.6546,-0.6978,-0.7695,0.0,0.0,0.0,0.0,0.0,0.0,0.0,0.0,0.0,0.0,0.0,0.0,-0.9369,-0.9597,-0.9868,-1.0118,0.0,0.0,0.0,0.0,0.0,0.0,0.0,0.0,0.0,0.0,0.0,0.0,0.0,0.0,0.0,0.0,0.0,0.0,0.0,0.0,0.0,0.0,0.0,0.0,0.0,0.0,0.0,0.0,0.0,0.0,-4.0218,-4.1191,-4.1191,-4.1191,-4.1191,-4.1191,-4.1191,-4.1191,-4.1191,-4.1191,-4.1191,-4.1191,-4.1191,-4.2324,-4.4355,-4.5703,-4.6308,-4.6308,-4.6308,-4.6308,-4.6308,-4.6308,-4.6308,-4.6308,-4.6308,-4.6308,-4.6308,0.0,0.0,0.0,0.0,0.0,0.0,0.0,0.0,0.0,0.0,0.0,0.0,0.0,0.0,0.0,0.0,0.0,0.0,0.0,0.0,0.0,0.0,0.0,0.0,0.0,0.0,0.0,0.0,0.0,0.0,0.0,0.0,-0.7285,-0.7666,0.0,-0.6661,0.0,-0.5826,-0.5958,-0.6844,-0.6643,-0.7008,-0.7695,-0.7695,0.0,0.0,0.0,0.0,0.0,0.0,0.0,0.0,-0.7442,0.0,-0.8611,-0.9166,-0.9571,-1.0085,0.0,0.0,0.0,0.0,0.0,0.0,0.0,0.0,0.0,0.0,0.0,0.0,0.0,0.0,0.0,0.0,0.0,0.0,0.0,0.0,0.0,0.0,0.0,0.0,0.0,0.0,0.0,0.0,0.0,0.0,-3.5507,-3.8819,-4.0723,-4.0723,-4.0723,-4.0723,-4.0723,-4.0723,-4.0723,-4.0723,-4.0723,-4.0898,-4.1191,-4.1191,-4.1191,-4.1387,-4.4824,-4.6308,-4.6308,-4.6308,-4.6308,-4.6308,-4.6308,-4.6308,-4.6308,-4.6308,-4.6308,-4.6308,0.0,0.0,0.0,0.0,0.0,0.0,0.0,0.0,0.0,0.0,0.0,0.0,0.0,0.0,0.0,0.0,0.0,0.0,0.0,0.0,0.0,0.0,0.0,0.0,0.0,0.0,0.0,0.0,0.0,0.0,0.0,0.0,0.0,-0.7666,0.0,-0.6833,-0.6564,-0.6337,-0.6376,-0.6626,-0.6876,-0.7255,-0.7695,-0.7695,-0.7695,0.0,0.0,0.0,0.0,0.0,0.0,0.0,-0.7637,-0.8072,-0.8527,-0.8656,-0.9516,-1.046,0.0,0.0,0.0,0.0,0.0,0.0,0.0,0.0,0.0,0.0,0.0,0.0,0.0,0.0,0.0,0.0,0.0,0.0,0.0,0.0,0.0,0.0,0.0,0.0,0.0,0.0,0.0,0.0,0.0,0.0,-3.5515,-3.6528,-3.7129,-3.7129,-3.7129,-3.7129,-3.7129,-3.7129,-3.7129,-3.7129,-3.7129,-3.8555,-4.1191,-4.1191,-4.1191,-4.1387,-4.4824,-4.6308,-4.6308,-4.6308,-4.6308,-4.6308,-4.6308,-4.6308,-4.6308,-4.6308,-4.6308,-4.6308,0.0,0.0,0.0,0.0,0.0,0.0,0.0,0.0,0.0,0.0,0.0,0.0,0.0,0.0,0.0,0.0,0.0,0.0,0.0,0.0,0.0,0.0,0.0,0.0,0.0,0.0,0.0,0.0,0.0,0.0,0.0,0.0,0.0,-0.7666,0.0,-0.6763,-0.6664,-0.6129,-0.6129,-0.6411,-0.6707,-0.7166,-0.7695,-0.7695,-0.7695,-0.7783,-0.8495,0.0,0.0,0.0,0.0,0.0,0.0,0.0,-0.8148,-0.8358,-0.8965,-0.9775,0.0,0.0,0.0,0.0,0.0,0.0,0.0,0.0,0.0,0.0,0.0,0.0,0.0,0.0,0.0,0.0,0.0,0.0,0.0,0.0,0.0,0.0,0.0,0.0,0.0,0.0,0.0,0.0,0.0,-3.4205,-3.5658,-3.4354,-3.4316,-3.5957,-3.5996,-3.5996,-3.5996,-3.5996,-3.5996,-3.5996,-3.5996,-3.6953,-3.8769,-4.0449,-4.1191,-4.1308,-4.3086,-4.4785,-4.6308,-4.6308,-4.6308,-4.6308,-4.6308,-4.6308,-4.6308,-4.6308,-4.6308,-4.6308,0.0,0.0,0.0,0.0,0.0,0.0,0.0,0.0,0.0,0.0,0.0,0.0,0.0,0.0,0.0,0.0,0.0,0.0,0.0,0.0,0.0,0.0,0.0,0.0,0.0,0.0,0.0,0.0,0.0,0.0,0.0,0.0,0.0,-0.7773,0.0,-0.6738,-0.6779,-0.5875,-0.5791,-0.6263,-0.6417,-0.6918,-0.7569,-0.7666,-0.7695,-0.7889,-0.9357,-0.9738,-0.9555,-0.9816,0.0,0.0,0.0,0.0,-0.7754,-0.8091,-0.8449,-0.9088,0.0,0.0,0.0,0.0,0.0,0.0,0.0,0.0,0.0,0.0,0.0,0.0,0.0,0.0,0.0,0.0,0.0,0.0,0.0,0.0,0.0,0.0,0.0,0.0,0.0,0.0,0.0,0.0,0.0,-3.1875,-3.4101,-3.1543,-3.1562,-3.5019,-3.5117,-3.5117,-3.5117,-3.5703,-3.5996,-3.5996,-3.5996,-3.6328,-3.6973,-3.9258,-4.0625,-4.1191,-4.1191,-4.2812,-4.5469,-4.6055,-4.6308,-4.6308,-4.6308,-4.6308,-4.6308,-4.6308,-4.6308,-4.6308,0.0,0.0,0.0,0.0,0.0,0.0,0.0,0.0,0.0,0.0,0.0,0.0,0.0,0.0,0.0,0.0,0.0,0.0,-0.2712,0.0,0.0,-0.4666,-0.5087,0.0,0.0,0.0,0.0,0.0,0.0,0.0,0.0,0.0,0.0,-0.8205,0.0,0.0,0.0,-0.6413,-0.6183,-0.5973,-0.6352,-0.67,-0.7059,-0.751,-0.7695,-0.7889,-0.9357,-0.9089,-0.8184,-0.9463,-0.9905,0.0,0.0,0.0,-0.7695,-0.7754,-0.8646,0.0,0.0,0.0,0.0,0.0,0.0,0.0,0.0,0.0,0.0,0.0,0.0,0.0,0.0,0.0,0.0,0.0,0.0,0.0,0.0,0.0,0.0,0.0,0.0,0.0,0.0,0.0,0.0,0.0,-3.0898,-2.9785,-2.7207,-2.6641,-2.7988,-3.1465,-3.1582,-3.1582,-3.1582,-3.4512,-3.5996,-3.5996,-3.5996,-3.7578,-4.043,-3.7851,-3.834,-4.1191,-4.1191,-4.1465,-4.2109,-4.5078,-4.6308,-4.6308,-4.6308,-4.6308,-4.6308,-4.6308,-4.6308,-4.6308,0.0,0.0,0.0,0.0,0.0,0.0,0.0,0.0,0.0,0.0,0.0,0.0,0.0,0.0,0.0,-0.2584,-0.2673,-0.2697,-0.2691,-0.3286,-0.3821,-0.4248,-0.4473,-0.4666,-0.489,0.0,0.0,0.0,0.0,0.0,0.0,-0.8432,-0.9063,0.0,0.0,0.0,0.0,0.0,-0.6729,-0.619,-0.6419,-0.6424,-0.6439,-0.7357,-0.7695,-0.7783,-0.8439,-0.8241,-0.7918,-0.941,-0.9905,-0.9905,-0.9905,0.0,0.0,0.0,0.0,0.0,0.0,0.0,0.0,0.0,0.0,0.0,0.0,0.0,0.0,0.0,0.0,0.0,0.0,0.0,0.0,0.0,0.0,0.0,0.0,0.0,0.0,0.0,0.0,0.0,0.0,0.0,0.0,0.0,-2.7988,-2.7324,-2.5781,-2.5703,-2.6855,-2.9355,-3.0391,-3.0898,-3.0898,-3.2383,-3.4101,-3.5996,-3.5996,-3.6797,-3.8301,-3.8711,-3.9746,-4.1191,-4.1191,-4.1191,-4.1328,-4.2812,-4.457,-4.6308,-4.6308,-4.6308,-4.6308,-4.6308,-4.6308,-4.6308,0.0,0.0,0.0,0.0,0.0,0.0,0.0,0.0,0.0,0.0,0.0,0.0,0.0,0.0,0.0,0.0,-0.2704,-0.2762,-0.272,-0.2991,-0.3307,-0.3658,-0.3891,-0.4151,-0.4441,0.0,0.0,0.0,0.0,0.0,-0.8406,-0.9152,-1.0272,0.0,-1.0546,0.0,0.0,0.0,0.0,0.0,0.0,-0.6305,-0.5871,-0.713,-0.7758,-0.7947,-0.7783,-0.7947,-0.8382,-0.9089,-0.9581,-0.9841,-0.9463,-0.8568,0.0,0.0,0.0,0.0,0.0,0.0,0.0,0.0,0.0,0.0,0.0,0.0,0.0,0.0,0.0,0.0,0.0,0.0,0.0,0.0,0.0,0.0,0.0,0.0,0.0,0.0,0.0,0.0,0.0,0.0,0.0,0.0,-2.5703,-2.5703,-2.5703,-2.5703,-2.6426,-2.8027,-2.9629,-3.0605,-3.0898,-3.0898,-3.2187,-3.4707,-3.5586,-3.5996,-3.6094,-3.8691,-3.9883,-3.9922,-4.082,-4.1191,-4.1269,-4.2148,-4.4004,-4.6308,-4.6308,-4.6308,-4.6308,-4.6308,-4.6308,-4.6308,0.0,0.0,0.0,0.0,0.0,0.0,0.0,0.0,0.0,0.0,0.0,0.0,0.0,-0.2801,-0.285,-0.2701,-0.2879,-0.2914,-0.2709,-0.2711,-0.2742,-0.2772,-0.356,0.0,-0.4026,-0.4409,0.0,0.0,0.0,0.0,-0.8885,-0.9676,-1.1112,-1.2946,-1.2069,-1.0863,-0.9541,0.0,0.0,0.0,0.0,0.0,0.0,0.0,0.0,0.0,0.0,-0.8595,-0.9581,-0.8269,-0.8734,-0.9659,-0.8241,-0.7754,-0.7695,0.0,0.0,0.0,0.0,0.0,0.0,0.0,0.0,0.0,0.0,0.0,0.0,0.0,0.0,0.0,0.0,0.0,0.0,0.0,0.0,0.0,0.0,0.0,0.0,0.0,0.0,0.0,0.0,0.0,0.0,0.0,-2.5703,-2.5703,-2.5703,-2.5703,-2.623,-2.7402,-2.8633,-2.9805,-3.0898,-3.0898,-3.0996,-3.1191,-3.4453,-3.5996,-3.6016,-3.6191,-3.6269,-3.6445,-3.9766,-4.1191,-4.1445,-4.4707,-4.6133,-4.6308,-4.6308,-4.6308,-4.6308,-4.6308,-4.6308,-4.6308,0.0,0.0,0.0,0.0,0.0,0.0,0.0,0.0,0.0,0.0,0.0,0.0,0.0,-0.2805,-0.2801,-0.2892,-0.2286,-0.1864,-0.1795,-0.1993,-0.2297,-0.2679,-0.3006,-0.3303,-0.356,-0.4158,0.0,0.0,0.0,-0.7416,-0.8731,-0.9974,-1.1123,-1.2152,-1.2348,-1.2275,-1.1978,-1.1474,0.0,0.0,0.0,0.0,0.0,0.0,0.0,0.0,0.0,0.0,0.0,-1.3812,-1.3523,-1.29,-0.9581,-0.8929,-0.9204,-0.8349,-0.8679,0.0,0.0,0.0,0.0,0.0,0.0,0.0,0.0,0.0,0.0,0.0,0.0,0.0,0.0,0.0,0.0,0.0,0.0,0.0,0.0,0.0,0.0,0.0,0.0,0.0,0.0,0.0,0.0,0.0,0.0,-2.5703,-2.5703,-2.5703,-2.5898,-2.6309,-2.6738,-2.8223,-3.0879,-3.0898,-3.0898,-3.0918,-3.2148,-3.3887,-3.5996,-3.5996,-3.5996,-3.6074,-3.7324,-3.9121,-4.1289,-4.2519,-4.3027,-4.3242,-4.5449,-4.4961,-4.3281,-4.5488,-4.6308,-4.6308,0.0,0.0,0.0,0.0,0.0,0.0,0.0,0.0,0.0,0.0,0.0,0.0,0.0,0.0,-0.2843,-0.2612,-0.1515,-0.085,-0.0863,-0.163,-0.233,-0.2805,-0.2747,-0.284,-0.3154,-0.3898,0.0,0.0,0.0,0.0,0.0,-1.0273,-1.1388,-1.2146,-1.3104,-1.3442,0.0,0.0,0.0,-1.1264,0.0,0.0,-1.032,0.0,0.0,0.0,0.0,0.0,0.0,0.0,-1.6495,-1.5182,-1.1496,-1.0463,-1.0341,-0.9275,0.0,0.0,0.0,0.0,0.0,0.0,0.0,0.0,0.0,0.0,0.0,0.0,0.0,0.0,0.0,0.0,0.0,0.0,0.0,0.0,0.0,0.0,0.0,0.0,0.0,0.0,0.0,0.0,0.0,0.0,0.0,0.0,-2.5703,-2.5703,-2.582,-2.6133,-2.5859,-2.7363,-3.0879,-3.0898,-3.0898,-3.0898,-3.0898,-3.209,-3.4336,-3.5488,-3.5996,-3.5996,-3.5996,-3.7988,-4.1191,-4.1191,-4.1191,-4.1426,-4.3691,-4.3203,-4.1601,-4.5039,-4.6308,-4.6308,0.0,0.0,0.0,0.0,0.0,0.0,0.0,0.0,0.0,0.0,0.0,0.0,0.0,0.0,0.0,-0.1956,-0.0714,-0.0043,-0.0079,-0.1691,-0.2742,-0.3017,-0.2822,-0.2768,-0.2907,-0.3648,0.0,0.0,0.0,0.0,0.0,0.0,-1.1981,0.0,-1.4395,-1.4255,-1.3145,0.0,-1.439,-1.3127,0.0,-1.2612,-1.3125,0.0,0.0,0.0,-1.3156,-1.269,0.0,-1.6232,0.0,0.0,0.0,-1.2209,-1.1076,-1.0466,0.0,0.0,0.0,0.0,0.0,0.0,0.0,0.0,0.0,0.0,0.0,0.0,0.0,0.0,0.0,0.0,0.0,0.0,0.0,0.0,0.0,0.0,0.0,0.0,0.0,0.0,0.0,0.0,0.0,0.0,-2.5703,-2.5703,-2.5703,-2.5703,-2.6094,-2.6934,-2.6133,-2.7324,-3.0703,-3.0859,-3.0898,-3.0898,-3.0898,-3.0898,-3.1016,-3.4336,-3.5898,-3.5996,-3.5996,-3.793,-4.1055,-4.1152,-4.1191,-4.1191,-4.1191,-4.1191,-4.1601,-4.4922,-4.6211,-4.6308,0.0,0.0,0.0,0.0,0.0,0.0,0.0,0.0,0.0,0.0,0.0,0.0,0.0,0.0,-0.3987,-0.3158,-0.1198,-0.0652,-0.2156,-0.1317,-0.1047,-0.1771,-0.2528,-0.2869,-0.2763,-0.3985,0.0,0.0,0.0,0.0,0.0,0.0,0.0,0.0,-1.376,-1.423,-1.4582,-1.5552,0.0,0.0,-1.533,-1.506,0.0,0.0,0.0,0.0,0.0,-1.3926,-1.472,0.0,-1.6659,-1.7435,0.0,0.0,0.0,0.0,0.0,0.0,-1.3224,0.0,0.0,0.0,0.0,0.0,0.0,0.0,0.0,0.0,0.0,0.0,0.0,0.0,0.0,0.0,0.0,0.0,0.0,0.0,0.0,0.0,0.0,0.0,0.0,0.0,0.0,0.0,-2.5703,-2.5705,-2.5705,-2.5696,-2.5801,-2.6055,-2.582,-2.6152,-2.7129,-2.9648,-3.0898,-3.0898,-3.0898,-3.0898,-3.0937,-3.1875,-3.3652,-3.5996,-3.5996,-3.6543,-3.7637,-4.0156,-4.1191,-4.1191,-4.1191,-4.1191,-4.1308,-4.2266,-4.418,-4.6308,0.0,0.0,0.0,0.0,0.0,0.0,0.0,0.0,0.0,0.0,0.0,0.0,0.0,0.0,0.0,-0.4635,-0.2677,-0.16,-0.1802,-0.0669,-0.0207,-0.0725,-0.1382,-0.2116,-0.2943,-0.3716,-0.4333,0.0,0.0,0.0,0.0,0.0,0.0,0.0,0.0,0.0,0.0,0.0,0.0,0.0,-1.705,0.0,0.0,-1.5536,-1.5506,0.0,0.0,0.0,-1.6667,-1.555,-1.6279,0.0,0.0,0.0,0.0,0.0,0.0,0.0,0.0,0.0,0.0,0.0,0.0,0.0,-1.6078,-1.427,-1.3063,0.0,0.0,0.0,0.0,0.0,0.0,0.0,0.0,0.0,0.0,0.0,0.0,0.0,0.0,0.0,0.0,-2.5703,-2.5698,-2.5699,-2.5675,-2.5654,-2.5623,-2.5624,-2.5632,-2.5664,-2.5684,-2.5703,-2.5703,-2.7715,-2.873,-2.875,-3.0195,-3.0898,-3.0957,-3.2383,-3.4101,-3.5996,-3.5996,-3.5996,-3.6152,-3.8184,-3.9883,-4.1055,-3.9609,-3.9922,-4.1191,-4.1191,-4.3359,-4.6308,0.0,0.0,0.0,0.0,0.0,0.0,0.0,0.0,0.0,0.0,0.0,0.0,0.0,0.0,0.0,0.0,-0.4786,-0.2958,-0.0543,-0.0168,0.0,0.0,0.0,-0.0998,-0.3108,-0.3057,-0.3551,0.0,0.0,0.0,0.0,0.0,0.0,0.0,0.0,0.0,0.0,0.0,0.0,-1.701,-1.8,-1.8326,0.0,0.0,-1.6567,-1.812,-1.7155,-1.753,-1.8179,-1.6247,-1.6118,0.0,0.0,0.0,0.0,0.0,-1.6311,0.0,0.0,0.0,0.0,0.0,0.0,0.0,-1.6445,-1.6476,-1.6346,-1.5497,0.0,0.0,0.0,0.0,0.0,0.0,0.0,0.0,0.0,0.0,0.0,0.0,0.0,0.0,-2.5488,-2.5643,-2.5691,-2.5697,-2.562,-2.5567,-2.5482,-2.5506,-2.5524,-2.5584,-2.5664,-2.5703,-2.5703,-2.5703,-2.5703,-2.5742,-2.8848,-3.0527,-3.0996,-3.4043,-3.5644,-3.5996,-3.5996,-3.5996,-3.5996,-3.5996,-3.7832,-4.0312,-3.7207,-3.8125,-4.1191,-4.1191,-4.3359,-4.6308,-0.0872,0.0,0.0,0.0,0.0,0.0,0.0,0.0,0.0,0.0,0.0,0.0,0.0,0.0,0.0,0.0,-0.6745,-0.5365,-0.3057,-0.1092,0.0,0.0,0.0,-0.0639,-0.2057,-0.2686,-0.3638,0.0,0.0,0.0,0.0,0.0,0.0,0.0,0.0,0.0,0.0,0.0,0.0,-1.7689,-1.8576,0.0,-1.7662,-1.693,-1.6392,-1.5989,-1.5786,-1.6266,-1.7054,-1.7301,-1.7378,-1.7433,0.0,0.0,0.0,0.0,0.0,0.0,0.0,0.0,0.0,0.0,0.0,0.0,-1.6284,-1.7271,-1.7899,0.0,0.0,0.0,0.0,0.0,0.0,0.0,0.0,0.0,0.0,0.0,0.0,0.0,0.0,0.0,-2.4648,-2.5294,-2.5691,-2.5611,-2.5563,-2.5486,-2.5416,-2.5476,-2.5503,-2.552,-2.5637,-2.5703,-2.5703,-2.5703,-2.5703,-2.5703,-2.6387,-2.8184,-3.0918,-3.1582,-3.3398,-3.5996,-3.5996,-3.5996,-3.5996,-3.5996,-3.6406,-3.6953,-3.6269,-3.8125,-4.1191,-4.1191,-4.3359,-4.6308,-0.1595,0.0,0.0,0.0,0.0,0.0,0.0,0.0,0.0,0.0,0.0,0.0,0.0,0.0,0.0,0.0,0.0,0.0,0.0,0.0,-0.1244,-0.0044,0.0,-0.0296,-0.091,-0.2483,-0.3789,0.0,0.0,0.0,0.0,0.0,0.0,0.0,0.0,0.0,0.0,0.0,-1.7623,-1.8364,-1.8001,0.0,-1.6439,-1.6224,-1.5814,-1.5459,-1.6294,-1.6853,-1.7382,-1.8672,-1.8739,0.0,0.0,-1.9675,-1.9749,0.0,-1.8869,-1.9232,0.0,0.0,0.0,-1.8938,0.0,0.0,0.0,-1.8348,-1.8554,-1.8387,-1.837,0.0,0.0,0.0,0.0,0.0,0.0,0.0,0.0,0.0,0.0,0.0,0.0,0.0,-2.4316,-2.4807,-2.5189,-2.5524,-2.5524,-2.5466,-2.537,-2.539,-2.5427,-2.5503,-2.5568,-2.5566,-2.5508,-2.5634,-2.5633,-2.5508,-2.5508,-2.7317,-3.0645,-3.0645,-3.1584,-3.3309,-3.501,-3.5845,-3.5996,-3.5996,-3.5996,-3.5996,-3.5996,-3.8125,-4.1191,-4.1191,-4.2285,-4.4004,-0.2462,0.0,0.0,0.0,0.0,0.0,0.0,0.0,0.0,0.0,0.0,0.0,0.0,0.0,0.0,0.0,0.0,0.0,0.0,0.0,0.0,-0.0815,-0.048,-0.0354,-0.0358,-0.2424,-0.3825,0.0,0.0,0.0,0.0,0.0,0.0,0.0,0.0,0.0,0.0,0.0,0.0,-1.8875,0.0,-1.6622,-1.6014,-1.5972,-1.5898,-1.6007,-1.7517,-1.7934,-1.8002,-1.9535,-1.9622,-1.92,-1.9942,-2.0288,0.0,0.0,0.0,0.0,0.0,0.0,0.0,0.0,0.0,-1.9945,0.0,0.0,0.0,-1.9977,0.0,0.0,0.0,0.0,0.0,0.0,0.0,0.0,0.0,0.0,0.0,0.0,0.0,0.0,-2.4004,-2.4432,-2.4862,-2.547,-2.5495,-2.5428,-2.5322,-2.5322,-2.537,-2.5505,-2.5514,-2.5456,-2.5341,-2.5863,-2.617,-2.6283,-2.6283,-2.7725,-3.0398,-3.0398,-3.0398,-3.059,-3.4013,-3.5685,-3.5996,-3.5996,-3.6406,-3.6992,-3.6992,-3.8711,-4.1191,-4.1191,-4.1191,-4.1582,-0.2754,0.0,0.0,0.0,0.0,0.0,0.0,0.0,0.0,0.0,0.0,0.0,0.0,0.0,0.0,0.0,0.0,0.0,-1.275,0.0,0.0,0.0,-0.2185,-0.158,-0.1612,-0.2744,-0.3682,0.0,0.0,0.0,0.0,0.0,0.0,0.0,-1.3019,0.0,0.0,0.0,-1.8245,0.0,-1.8655,-1.8553,0.0,-1.8446,-1.8075,-1.7713,-1.864,-1.8417,-1.785,0.0,-1.9088,-1.9037,0.0,-1.9831,-2.0247,-1.9413,0.0,0.0,0.0,0.0,0.0,0.0,-1.9268,0.0,0.0,0.0,-2.0012,-1.9461,0.0,0.0,0.0,0.0,0.0,0.0,0.0,0.0,0.0,0.0,0.0,0.0,0.0,0.0,0.0,-2.4542,-2.5401,-2.5488,-2.5429,-2.5409,-2.539,-2.539,-2.5428,-2.5505,-2.5563,-2.555,-2.5486,-2.6919,-2.8382,-2.9821,-2.9821,-3.0013,-3.0398,-3.0398,-3.0398,-3.059,-3.4013,-3.5685,-3.5996,-3.5996,-3.7812,-4.0605,-4.0605,-4.0859,-4.1191,-4.1191,-4.1191,-4.1269,-0.2649,0.0,0.0,0.0,0.0,0.0,0.0,0.0,0.0,0.0,0.0,0.0,0.0,0.0,0.0,0.0,0.0,-1.4012,0.0,0.0,0.0,0.0,-0.5715,-0.4543,-0.4744,-0.5903,-0.6504,-0.6557,-0.6306,0.0,0.0,0.0,0.0,0.0,-1.3925,0.0,-1.8715,0.0,-1.9263,0.0,0.0,0.0,0.0,-1.906,-1.9021,-1.9319,-1.9123,-1.9112,-1.9254,0.0,-1.9754,0.0,0.0,0.0,0.0,0.0,0.0,0.0,0.0,0.0,0.0,0.0,0.0,0.0,-1.9629,0.0,-2.0363,0.0,0.0,0.0,0.0,0.0,0.0,0.0,-1.978,0.0,0.0,0.0,0.0,0.0,0.0,0.0,0.0,0.0,0.0,0.0,-2.5051,-2.4974,-2.542,-2.5466,-2.5472,-2.5505,-2.5528,-2.5855,-2.6536,-2.7181,-2.8472,-3.0398,-3.0398,-3.0398,-3.0398,-3.0398,-3.0398,-3.059,-3.4013,-3.5581,-3.5714,-3.5923,-3.6855,-3.8379,-4.041,-4.1191,-4.1191,-4.1191,-4.1191,-4.1191,-0.3119,0.0,0.0,0.0,0.0,0.0,0.0,0.0,0.0,0.0,0.0,0.0,-2.0804,-1.8907,0.0,0.0,-1.7134,-1.5671,0.0,0.0,-1.3224,-1.3179,-0.9973,0.0,0.0,0.0,-0.9173,-0.8774,-0.823,0.0,0.0,0.0,0.0,0.0,0.0,-1.7411,-1.9976,0.0,0.0,-2.0428,-2.0381,-2.0375,-2.0311,-1.9509,-1.9689,-2.0273,-1.96,-1.9773,-2.0331,-2.0312,-2.0312,0.0,-2.1342,0.0,0.0,0.0,0.0,0.0,-1.9983,0.0,0.0,0.0,0.0,0.0,0.0,0.0,0.0,0.0,0.0,0.0,0.0,0.0,0.0,0.0,0.0,-2.0137,0.0,0.0,0.0,0.0,0.0,0.0,0.0,0.0,0.0,-2.5182,-2.4656,-2.4656,-2.548,-2.5522,-2.5521,-2.5534,-2.5505,-2.6023,-2.7128,-2.7325,-2.8302,-3.0044,-3.0294,-3.0398,-3.0398,-3.0398,-3.0648,-3.1256,-3.4218,-3.5526,-3.5579,-3.5877,-3.5996,-3.6348,-3.9844,-4.1191,-4.1191,-4.1191,-4.1191,-4.1191,-0.4504,-0.453,0.0,0.0,0.0,0.0,0.0,0.0,0.0,0.0,0.0,0.0,0.0,0.0,0.0,0.0,0.0,-1.8522,-1.7764,0.0,-1.6456,-1.8375,-1.4744,-1.319,0.0,0.0,-1.0744,-1.0532,-1.0443,-1.0886,0.0,0.0,0.0,0.0,0.0,-1.932,-1.9717,-2.1266,-2.1364,-2.0484,-2.0366,-2.0336,-2.0389,0.0,-2.0262,-2.0312,-2.0273,0.0,0.0,-2.0331,-2.0312,0.0,0.0,0.0,0.0,0.0,0.0,0.0,0.0,0.0,0.0,-2.0546,0.0,0.0,0.0,0.0,-2.1418,0.0,0.0,0.0,0.0,0.0,0.0,0.0,0.0,0.0,0.0,0.0,0.0,0.0,0.0,0.0,0.0,0.0,-2.3476,-2.4277,-2.4329,-2.4678,-2.5553,-2.559,-2.5603,-2.5601,-2.5524,-2.589,-2.6717,-2.7542,-2.8368,-2.914,-3.0006,-3.0398,-3.0398,-3.0398,-3.1295,-3.2929,-3.4718,-3.5584,-3.5714,-3.5916,-3.5996,-3.6348,-3.9844,-4.1191,-4.1191,-4.1191,-4.1191,-4.1191,0.0,0.0,0.0,0.0,0.0,0.0,0.0,-1.7182,0.0,0.0,0.0,0.0,0.0,-2.2094,-2.2013,0.0,0.0,-1.9737,-1.947,-1.8216,0.0,0.0,0.0,-1.7448,0.0,0.0,-1.4694,-1.4038,-1.3316,-1.3332,0.0,0.0,0.0,0.0,0.0,-2.0209,0.0,0.0,0.0,0.0,0.0,-2.0667,-2.1124,0.0,-2.0331,-2.0358,-2.0328,-2.0308,0.0,-2.0312,-2.0312,-2.0312,-2.0312,-2.0304,-2.0499,-2.1583,-2.1656,0.0,0.0,0.0,-2.268,-2.1833,0.0,0.0,0.0,0.0,0.0,0.0,0.0,0.0,0.0,0.0,0.0,0.0,0.0,0.0,0.0,0.0,0.0,0.0,0.0,0.0,0.0,0.0,0.0,-2.5117,-2.4688,-2.4729,-2.5563,-2.5596,-2.5573,-2.5466,-2.6014,-2.6687,-2.7486,-2.8313,-2.914,-2.9967,-3.0256,-3.0398,-3.0398,-3.0398,-3.1314,-3.3006,-3.4834,-3.5661,-3.5713,-3.5775,-3.5889,-3.6348,-3.9844,-4.1191,-4.1191,-4.1191,-4.1191,-4.1191,-0.9534,0.0,0.0,0.0,0.0,0.0,0.0,0.0,0.0,0.0,-2.0102,0.0,-2.2171,0.0,-2.2245,0.0,-2.0924,-2.0296,-2.0305,-1.9526,0.0,-2.009,-2.0026,0.0,0.0,0.0,0.0,-1.736,-1.6779,-1.661,0.0,0.0,0.0,0.0,0.0,0.0,-2.1531,0.0,-2.1584,0.0,0.0,-2.0828,0.0,0.0,-2.0793,-2.0874,0.0,-2.0918,-2.0919,-2.0765,-2.0812,-2.0831,-2.0427,-2.0504,-2.0919,-2.1885,-2.2152,-2.2114,-2.2038,-2.2748,0.0,-2.2477,-2.2691,0.0,-2.254,0.0,-2.2771,0.0,0.0,0.0,0.0,0.0,0.0,0.0,0.0,0.0,0.0,-2.0039,0.0,0.0,0.0,0.0,0.0,0.0,-2.3398,-2.5117,-2.4434,-2.4417,0.0,-2.5601,-2.5543,-2.5409,-2.6245,-2.7091,-2.789,-2.8698,-2.9544,-3.0398,-3.0398,-3.0398,-3.0398,-3.0398,-3.1218,-3.2737,-3.4795,-3.5689,-3.5689,-3.5734,-3.6207,-3.7207,-4.0078,-4.1191,-4.1191,-4.1191,-4.1191,-4.1191,0.0,0.0,0.0,0.0,-1.4078,0.0,0.0,0.0,-2.0835,0.0,-2.1991,-2.2314,-2.2725,-2.2311,-2.1872,-2.1556,-2.0781,-2.0312,-2.0312,-2.0291,0.0,0.0,-2.0346,-2.0309,-2.0194,0.0,0.0,0.0,0.0,0.0,0.0,0.0,0.0,0.0,-2.2985,0.0,-2.1675,-2.2473,-2.1906,-2.0446,-2.0389,-2.0905,-2.1725,-2.1649,-2.1694,-2.1845,-2.1993,-2.2111,-2.2122,-2.1727,-2.1831,-2.1889,-2.0773,-2.0938,-2.1681,-2.234,-2.3115,-2.3726,-2.3539,-2.3521,-2.3338,-2.2515,-2.2313,0.0,0.0,0.0,-2.3602,0.0,0.0,0.0,0.0,0.0,0.0,0.0,0.0,0.0,0.0,0.0,0.0,0.0,0.0,0.0,0.0,-2.2461,-2.2695,-2.4336,-2.3691,0.0,0.0,-2.5592,-2.5543,-2.5466,-2.6303,-2.7149,-2.7948,-2.8756,-2.9583,-3.0398,-3.0398,-3.0398,-3.0398,-3.0398,-3.1013,-3.2205,-3.4603,-3.5635,-3.5651,-3.5759,-3.6853,-3.8652,-4.0488,-4.1094,-4.0957,-4.1133,-4.1191,-4.1191,-1.335,-1.414,-1.4951,0.0,-1.7058,-1.8482,0.0,0.0,0.0,0.0,-2.1765,-2.1401,-2.1072,-2.0873,-2.0723,-2.0646,-2.0427,0.0,0.0,0.0,0.0,-2.03,-2.088,-2.1314,-2.157,-2.1617,0.0,-2.4144,0.0,0.0,-2.2119,0.0,0.0,0.0,0.0,0.0,-2.3264,-2.3035,-2.23,-2.1284,-2.1207,-2.2117,-2.3403,0.0,-2.2596,-2.3484,-2.288,-2.289,-2.3207,-2.3092,-2.3111,-2.3072,-2.2389,-2.2202,-2.2369,-2.292,-2.3218,-2.3337,-2.3294,-2.3646,-2.4004,-2.3915,-2.3908,-2.397,0.0,0.0,0.0,0.0,0.0,0.0,0.0,0.0,0.0,0.0,0.0,0.0,0.0,0.0,0.0,-2.3612,0.0,0.0,-2.4043,-2.3887,-2.4219,-2.5293,-2.5156,0.0,0.0,0.0,-2.5755,-2.6274,-2.714,-2.7986,-2.8775,-2.964,-3.0179,-3.0398,-3.0398,-3.0398,-3.0398,-3.0398,-3.091,-3.191,-3.373,-3.4627,-3.4867,-3.5626,-3.6237,-3.6973,-4.0019,-3.9629,-3.7656,-4.0234,-4.1191,-4.1191,-1.5832,0.0,0.0,-1.8956,0.0,0.0,-2.0798,0.0,0.0,-2.2523,-2.15,0.0,-2.08,-2.042,-2.0162,-2.0161,-2.006,0.0,-2.0688,0.0,0.0,-2.0852,-2.0852,-2.0992,-2.1317,-2.1281,0.0,-2.4312,0.0,0.0,-2.406,0.0,0.0,0.0,0.0,-2.4979,0.0,-2.3313,-2.289,-2.2695,-2.2244,-2.2906,0.0,-2.3225,-2.3381,-2.4023,-2.3868,-2.3813,-2.3812,-2.3812,-2.3812,-2.3697,-2.3024,-2.2978,-2.3244,-2.3469,-2.3704,-2.3883,-2.3787,-2.4039,-2.4357,-2.4461,-2.4578,-2.4685,-2.4836,-2.4891,-2.4731,0.0,-2.4005,-2.3844,0.0,0.0,0.0,0.0,0.0,0.0,0.0,0.0,0.0,0.0,-2.463,0.0,-2.4881,-2.4587,-2.476,-2.5598,-2.5293,0.0,0.0,0.0,-2.6187,-2.6601,-2.7794,-2.864,-2.9102,-2.9967,-3.0398,-3.0398,-3.0398,-3.0398,-3.0398,-3.0398,-3.1218,-3.2679,-3.3628,-3.4417,-3.5074,-3.5693,-3.5976,-3.6191,-3.8164,-3.8534,-3.8195,-4.0175,-4.0896,-4.111,0.0,0.0,0.0,0.0,0.0,0.0,0.0,-2.2437,0.0,-2.2625,0.0,-2.0395,-2.1039,-2.0429,-1.9962,-1.9964,0.0,-2.0056,-2.1039,-2.0285,-2.0271,-2.132,-2.0465,-2.0089,-2.0304,-2.026,0.0,0.0,0.0,0.0,0.0,0.0,0.0,0.0,0.0,0.0,0.0,-2.3449,-2.3515,-2.4126,-2.3311,-2.3466,-2.4217,-2.4217,-2.4088,-2.401,-2.4726,-2.4659,-2.4217,-2.4217,-2.4245,-2.4129,-2.337,-2.363,-2.4178,-2.4003,-2.4346,-2.4731,-2.4575,-2.4528,-2.4512,-2.4559,-2.4697,-2.4869,-2.4998,-2.5022,-2.4962,-2.4828,-2.4775,-2.47,0.0,0.0,0.0,0.0,0.0,0.0,0.0,0.0,0.0,0.0,0.0,0.0,-2.549,-2.4915,-2.4826,-2.553,0.0,0.0,0.0,0.0,-2.6591,-2.6774,-2.8179,-2.9102,-2.9429,-3.0083,-3.0456,-3.0571,-3.0436,-3.0456,-3.0571,-3.0571,-3.1718,-3.3699,-3.3955,-3.4591,-3.5546,-3.5779,-3.5917,-3.6035,-3.6438,-3.8186,-4.0489,-4.0489,-4.0489,-4.1008,0.0,0.0,0.0,0.0,0.0,-2.3688,-2.238,-2.2363,-2.2262,-2.1568,-2.0601,-1.9982,-2.0051,-1.9938,-1.9843,-1.9836,-1.979,0.0,0.0,0.0,0.0,-2.0108,-1.9938,-1.9981,-2.0285,-2.0021,-1.9906,0.0,0.0,0.0,0.0,0.0,0.0,0.0,0.0,0.0,-2.4264,-2.3844,0.0,-2.4101,-2.3947,-2.4254,-2.4836,-2.4836,-2.4759,-2.4639,-2.4771,-2.4835,-2.4836,-2.4836,-2.4952,-2.5063,-2.4909,-2.4847,-2.4836,-2.4801,-2.4681,-2.4575,-2.4716,-2.4623,-2.4575,-2.4845,-2.4937,-2.501,-2.5203,-2.5111,-2.4962,-2.4828,-2.467,-2.4545,-2.4512,0.0,0.0,0.0,0.0,0.0,0.0,0.0,0.0,0.0,0.0,-2.5291,0.0,-2.5343,0.0,0.0,0.0,0.0,0.0,0.0,-2.6255,0.0,-2.7948,0.0,0.0,0.0,-3.0756,-3.1468,-3.0737,-3.0794,-3.1468,-3.1468,-3.2045,-3.3103,-3.3904,-3.4366,-3.4612,-3.541,-3.5845,-3.6248,-3.8743,-4.0028,-4.0489,-4.0489,-4.0489,-4.0989,0.0,0.0,0.0,0.0,0.0,0.0,0.0,-2.2466,0.0,-2.1242,-2.0316,-1.988,-2.0289,-1.9854,-1.9585,-1.9695,-1.9599,-1.9567,-1.9695,-1.9599,-1.954,-1.954,-1.954,0.0,-1.9767,-1.9619,-1.9462,-1.9305,0.0,0.0,0.0,0.0,0.0,0.0,0.0,-2.5382,0.0,0.0,0.0,-2.4606,-2.4585,-2.4698,-2.4891,-2.4891,-2.4799,-2.4639,-2.4639,-2.4682,-2.4766,-2.4864,-2.4962,-2.5043,-2.5043,-2.4975,-2.4891,-2.4891,-2.4712,-2.4528,-2.4607,-2.4654,-2.4682,-2.485,-2.5018,-2.5173,-2.5274,-2.5224,-2.5096,-2.4861,-2.4731,-2.4591,-2.4375,-2.4512,0.0,0.0,0.0,0.0,0.0,0.0,0.0,0.0,0.0,0.0,0.0,0.0,0.0,0.0,0.0,0.0,0.0,0.0,-2.7063,0.0,0.0,0.0,-3.1679,0.0,-3.1487,-3.2314,-3.1468,-3.1506,-3.2314,-3.1891,-3.2391,-3.3603,-3.4045,-3.4507,-3.5001,-3.5508,-3.5815,-3.6295,-3.9315,-4.0489,-4.0489,-4.0489,-4.0489,-4.0739,0.0,-2.4105,0.0,0.0,-2.4891,0.0,-2.3266,-2.2434,-2.173,-2.1046,-2.0136,-1.9782,-2.041,-1.9778,-1.9365,-1.9527,-1.938,-1.9365,-1.9527,-1.938,-1.9305,-1.9305,-1.9305,-1.9305,-1.9305,-1.951,-1.9693,0.0,0.0,0.0,0.0,0.0,0.0,0.0,0.0,0.0,0.0,0.0,-2.521,-2.5031,-2.4975,-2.4864,-2.4731,-2.4731,-2.4607,-2.4445,-2.4445,-2.4445,-2.4461,-2.4623,-2.476,-2.4842,-2.4818,-2.4861,-2.4883,-2.4818,-2.4685,-2.4559,-2.4559,-2.4685,-2.4804,-2.4828,-2.5061,-2.5303,-2.5303,-2.5303,-2.5192,-2.4874,-2.4731,-2.4594,-2.4266,-2.4339,0.0,0.0,0.0,0.0,0.0,0.0,0.0,0.0,0.0,0.0,-2.4949,0.0,0.0,0.0,0.0,0.0,-2.5572,0.0,0.0,0.0,0.0,-3.0371,-3.141,0.0,-3.2102,-3.2891,-3.2083,-3.2218,-3.3141,-3.2333,-3.2872,-3.4468,-3.4468,-3.4988,-3.5815,-3.5718,-3.5965,-3.6692,-3.9435,-4.0489,-4.0527,-4.0912,-4.1277,-4.1566,0.0,0.0,0.0,0.0,0.0,0.0,-2.2602,-2.207,-2.1506,-2.0659,-1.9835,-1.936,-1.9445,-1.936,-1.9305,-1.932,-1.9305,-1.9305,-1.932,-1.9305,-1.9305,-1.9305,-1.9305,-1.9305,-1.9305,-2.0244,-2.1015,0.0,0.0,-2.4659,0.0,0.0,0.0,0.0,0.0,0.0,0.0,-2.5126,-2.5018,-2.4837,-2.4818,-2.47,-2.4528,-2.4528,-2.441,-2.4228,-2.4228,-2.4228,-2.4228,-2.4266,-2.457,-2.4962,-2.4842,-2.5019,-2.5182,-2.4902,-2.479,-2.4775,-2.4775,-2.479,-2.4828,-2.4949,-2.5141,-2.5303,-2.5303,-2.5303,-2.5192,-2.4874,-2.4512,-2.4247,-2.4209,-2.4209,-2.4284,0.0,0.0,0.0,0.0,0.0,-2.632,-2.632,0.0,0.0,0.0,-2.4832,0.0,0.0,-2.5203,0.0,0.0,0.0,0.0,-2.7852,-2.8044,-2.8909,-3.0513,-3.1314,-3.2102,-3.2891,-3.2083,-3.2545,-3.4045,-3.3179,-3.3737,-3.5391,-3.5391,-3.5853,-3.6546,-3.5834,-3.6416,-3.7993,-3.9796,-4.0489,-4.0681,-4.2277,-4.3816,-4.5105,0.0,0.0,0.0,0.0,0.0,0.0,0.0,-2.2609,-2.1706,-2.143,-2.0172,-1.9305,-1.9305,-1.9305,-1.935,-1.9471,-1.9365,-1.935,-1.9471,-1.9365,-1.951,-2.0005,-2.0023,-2.0262,-2.0792,-2.0868,-2.1345,0.0,0.0,0.0,0.0,0.0,0.0,0.0,0.0,-2.5042,-2.4968,-2.494,-2.4794,-2.4623,-2.4623,-2.4495,-2.4321,-2.4321,-2.4266,-2.419,-2.419,-2.419,-2.419,-2.419,-2.4338,-2.4508,-2.4461,-2.4526,-2.462,-2.4478,-2.4426,-2.4461,-2.4575,-2.4716,-2.4828,-2.4962,-2.5152,-2.5303,-2.5303,-2.5303,-2.5192,-2.4874,-2.4594,-2.4375,-2.4375,-2.4375,-2.441,-2.4495,0.0,0.0,0.0,0.0,0.0,-2.6835,0.0,-2.5239,0.0,0.0,0.0,0.0,0.0,0.0,0.0,0.0,0.0,-2.7101,0.0,-2.9717,-3.0379,-3.1256,-3.2102,-3.2891,-3.2564,-3.3045,-3.418,-3.3833,-3.4353,-3.5545,-3.6007,-3.6526,-3.7026,-3.7353,-3.8277,-3.9565,-4.0239,-4.1143,-4.2104,-4.2431,-4.3835,-4.5586,-2.4787,0.0,-2.4802,0.0,-2.4654,-2.4514,-2.4161,-2.2782,-2.1743,-2.1588,-2.0243,-1.9305,-1.9305,-1.9305,-1.935,-1.9499,-1.9481,-1.961,-1.9944,-1.9549,-1.9767,-2.0849,-2.0631,0.0,-2.1784,-2.1602,-2.1914,-2.2721,-2.3712,0.0,0.0,0.0,0.0,0.0,-2.496,-2.4817,-2.4776,-2.4741,-2.4607,-2.441,-2.441,-2.4339,-2.419,-2.419,-2.419,-2.419,-2.419,-2.419,-2.419,-2.419,-2.419,-2.419,-2.419,-2.4284,-2.4339,-2.4228,-2.4247,-2.4303,-2.4393,-2.4561,-2.4727,-2.4831,-2.5005,-2.5149,-2.5149,-2.5149,-2.5091,-2.4861,-2.4639,-2.4495,-2.4495,-2.4444,-2.441,-2.441,0.0,0.0,0.0,-2.7107,0.0,0.0,-2.6021,-2.5338,-2.5579,-2.5671,0.0,0.0,0.0,0.0,0.0,0.0,0.0,0.0,0.0,0.0,-3.0025,-3.1303,-3.2282,-3.2891,-3.316,-3.3737,-3.4584,-3.4584,-3.493,-3.5551,-3.6449,-3.7084,-3.7507,-3.8411,-3.9469,-4.0489,-4.0489,-4.145,-4.2777,-4.2354,-4.3316,-4.4932,-2.4716,-2.4478,-2.4356,-2.4812,-2.4505,-2.3916,-2.3064,-2.2263,-2.1492,-2.0629,-1.9803,-1.9305,-1.9305,-1.9305,-1.9305,-1.9305,-1.9606,-2.0094,-2.0846,-1.9877,-2.0039,0.0,0.0,-2.0923,-2.1784,-2.2575,-2.2978,-2.3015,0.0,0.0,-2.4227,0.0,-2.461,-2.461,-2.4804,-2.4747,-2.4512,-2.4578,-2.4445,-2.419,-2.419,-2.419,-2.419,-2.419,-2.419,-2.419,-2.419,-2.419,-2.419,-2.419,-2.419,-2.419,-2.419,-2.4478,-2.4716,-2.4321,-2.4339,-2.4444,-2.4266,-2.4339,-2.4512,-2.4512,-2.4654,-2.4804,-2.4804,-2.4804,-2.4804,-2.4804,-2.4639,-2.4495,-2.4495,-2.4339,-2.419,-2.419,0.0,0.0,0.0,-2.6898,0.0,-2.6898,-2.53,-2.4539,-2.5329,-2.5597,0.0,0.0,0.0,0.0,0.0,0.0,0.0,-2.9006,-2.8906,0.0,-2.9102,-3.1426,-3.269,-3.291,-3.3776,-3.4641,-3.5488,-3.5488,-3.5474,-3.5551,-3.6699,-3.7507,-3.8027,-3.8565,-3.9469,-4.0489,-4.0489,-4.12,-4.22,-4.22,-4.2585,-4.3374,-2.4357,-2.4512,-2.4623,-2.4682,-2.4693,-2.4531,-2.412,-2.2763,-2.1725,-2.1554,-2.0225,-1.9305,-1.9305,-1.9305,-1.9368,0.0,-1.9688,-1.9864,0.0,-2.1668,-2.2391,-2.1821,-2.2061,-2.2593,-2.3419,-2.3694,-2.3823,-2.3823,0.0,0.0,0.0,-2.4284,-2.4321,-2.4339,-2.4392,-2.4374,-2.4303,-2.4321,-2.4284,-2.419,-2.419,-2.419,-2.419,-2.419,-2.419,-2.419,-2.419,-2.419,-2.419,-2.419,-2.419,-2.419,-2.419,-2.4284,-2.4357,-2.4247,-2.4247,-2.4321,-2.4393,-2.4444,-2.4545,-2.467,-2.5179,-2.5635,-2.5791,-2.6138,-2.631,-2.5839,-2.596,-2.6135,-2.6135,-2.5652,-2.5356,-2.577,-2.6328,0.0,-2.744,0.0,-2.7514,-2.7514,-2.7006,-2.6741,-2.6998,-2.7101,0.0,0.0,0.0,0.0,0.0,0.0,0.0,0.0,-2.9069,0.0,-2.9444,-3.076,-3.1846,-3.2641,-3.3502,-3.4476,-3.5493,-3.5493,-3.5815,-3.6353,-3.6949,-3.7834,-3.8931,-3.9662,-4.0162,-4.0546,-4.1143,-4.172,-4.2277,-4.3066,-4.397,-4.4874,-2.419,-2.441,-2.4639,-2.4828,-2.4737,-2.4586,-2.4461,-2.2936,-2.1835,-2.1909,-2.0391,-1.9543,-2.0168,-1.969,0.0,-1.9485,-1.9559,-1.9833,-2.0374,-2.2019,-2.2868,-2.2703,-2.2887,-2.3382,-2.4171,-2.419,0.0,-2.419,-2.419,-2.419,-2.419,-2.419,-2.419,-2.419,-2.419,-2.419,-2.419,-2.419,-2.419,-2.419,-2.419,-2.419,-2.419,-2.419,-2.419,-2.419,-2.419,-2.419,-2.419,-2.419,-2.419,-2.419,-2.419,-2.419,-2.419,-2.419,-2.419,-2.4228,-2.4339,-2.4615,-2.4873,-2.4993,-2.5675,-2.639,-2.6617,-2.6953,-2.7085,-2.666,-2.6752,-2.6898,-2.6898,-2.6413,-2.6169,-2.6542,-2.6851,-2.7236,-2.7732,0.0,-2.7787,0.0,0.0,0.0,0.0,-2.7787,-2.7761,0.0,0.0,0.0,0.0,0.0,-2.8453,-2.832,-2.955,-3.0182,-3.0094,-3.1148,-3.209,-3.2857,-3.3815,-3.4808,-3.5795,-3.6041,-3.6526,-3.7238,-3.8084,-3.8777,-3.9392,-4.0508,-4.0989,-4.1046,-4.17,-4.2316,-4.2816,-4.2681,-4.3874,-4.5586,-2.419,-2.419,-2.4426,0.0,-2.4666,0.0,-2.419,-2.2868,-2.1858,-2.1858,-2.037,-1.9929,-2.1564,-2.0388,-1.947,-1.947,0.0,0.0,-2.1692,-2.1308,-2.1951,-2.4025,-2.3456,-2.3437,-2.4171,-2.419,-2.419,-2.419,-2.419,-2.419,-2.419,-2.419,-2.419,-2.419,-2.419,-2.419,-2.419,-2.419,-2.419,-2.419,-2.419,-2.419,-2.419,-2.419,-2.419,-2.419,-2.419,-2.419,-2.419,-2.419,-2.419,-2.4208,-2.4263,-2.4281,-2.4281,-2.4281,-2.4281,-2.43,-2.4355,-2.4905,-2.5495,-2.5495,-2.6246,-2.7063,-2.7301,-2.7371,-2.7339,-2.7266,-2.7155,-2.7046,-2.7046,-2.6849,-2.6704,-2.6759,-2.7346,-2.7824,-2.7879,-2.7879,-2.7879,0.0,0.0,0.0,-2.7879,-2.797,-2.8282,0.0,0.0,0.0,0.0,0.0,-2.8324,-2.9641,-3.0279,-3.0727,-3.0923,-3.2294,-3.3138,-3.3465,-3.4565,-3.5488,-3.6323,-3.6995,-3.7603,-3.818,-3.9796,-4.0065,-3.9508,-4.1123,-4.1758,-4.1758,-4.2162,-4.2854,-4.3431,-4.1546,-4.2854,-4.5586,0.0,0.0,-2.4266,-2.4444,-2.4303,-2.419,-2.419,-2.318,-2.2409,-2.2409,-2.0574,-1.9748,-2.0978,-2.1161,-2.1215,-2.1215,-2.0039,-2.0021,-2.1692,-2.2042,-2.252,-2.3254,-2.3694,-2.4006,-2.419,-2.419,-2.419,-2.419,-2.419,-2.419,-2.419,-2.419,-2.419,-2.419,-2.419,-2.419,-2.419,-2.419,-2.419,-2.419,-2.419,-2.419,-2.419,-2.419,-2.419,-2.419,-2.419,-2.419,-2.419,-2.419,-2.419,-2.43,-2.4905,-2.5127,-2.5127,-2.5127,-2.5127,-2.5236,-2.5878,-2.6172,-2.6319,-2.6319,-2.7233,-2.8082,-2.7942,-2.8537,-2.8871,-2.8054,-2.8209,-2.8496,-2.8496,-2.7959,-2.7714,-2.8315,-2.8081,-2.8007,-2.8631,-2.8723,-2.8723,0.0,-2.8535,-2.876,-2.9549,-2.9641,-2.9714,0.0,0.0,0.0,-3.0033,-2.9874,-2.9699,-2.9474,-3.0215,-3.0816,-3.127,-3.2232,-3.313,-3.4012,-3.454,-3.5306,-3.6342,-3.7763,-3.8623,-3.9046,-4.0046,-4.0392,-4.0296,-4.1354,-4.1412,-4.0989,-4.2777,-4.2585,-4.1546,-4.3624,-4.4893,-4.5586,-2.419,-2.419,-2.419,-2.419,-2.419,-2.419,-2.419,-2.329,-2.2501,-2.228,-2.0535,-1.9803,-2.1161,-2.2244,-2.2685,-2.2225,-2.1327,-2.096,-2.1345,-2.2263,-2.3015,-2.3529,-2.3969,-2.419,-2.419,-2.419,-2.419,-2.419,-2.419,-2.419,-2.419,-2.419,-2.419,-2.419,-2.419,-2.419,-2.419,-2.419,-2.419,-2.419,-2.419,-2.419,-2.419,-2.419,-2.419,-2.4245,-2.4612,-2.4502,-2.43,-2.5052,-2.5052,-2.4887,-2.5676,-2.5952,-2.6007,-2.6374,-2.6227,-2.6043,-2.6484,-2.6869,-2.7279,-2.7775,-2.8407,-2.8895,-2.8839,-2.9214,-2.9401,-2.8798,-2.8846,-2.8994,-2.8994,-2.865,-2.8503,-2.892,-2.8631,-2.8503,-2.892,-2.8994,-2.9122,-2.9512,-2.9549,-2.9861,-3.0668,-3.0742,-3.0742,-3.0742,-3.0867,0.0,-3.0742,-3.0867,-3.0734,-3.0331,-3.109,-3.1666,-3.1953,-3.2761,-3.3629,-3.4567,-3.4909,-3.5776,-3.7057,-3.8268,-3.9133,-3.9689,-4.0265,-4.0489,-4.0585,-4.1873,-4.2124,-4.1893,-4.3893,-4.3912,-4.3047,-4.4913,-4.5586,-4.5586,-2.419,-2.419,-2.419,-2.419,-2.419,-2.419,-2.419,-2.3419,-2.2666,-2.2225,-2.0904,-2.0574,-2.2023,-2.3382,-2.3823,-2.2905,-2.2611,-2.2116,-2.1272,-2.2299,-2.3327,-2.4153,-2.419,-2.419,-2.419,-2.419,-2.419,-2.419,-2.419,-2.419,-2.419,-2.419,-2.419,-2.419,-2.419,-2.419,-2.419,-2.419,-2.419,-2.419,-2.419,-2.419,-2.419,-2.419,-2.419,-2.4281,-2.4961,-2.485,-2.4593,-2.597,-2.6043,-2.5713,-2.6539,-2.6778,-2.6943,-2.775,-2.7493,-2.6961,-2.6961,-2.7457,-2.8202,-2.9122,-2.9372,-2.9434,-2.9551,-2.9494,-2.9392,-2.9351,-2.9156,-2.8994,-2.8994,-2.8994,-2.8994,-2.8994,-2.8994,-2.8994,-2.8994,0.0,-2.9439,-3.0118,-3.032,-3.0705,-3.1494,-3.1568,-3.1678,-3.1916,-3.1825,-3.1806,-3.1935,-3.1825,-3.1751,-3.1751,-3.232,-3.2724,-3.2963,-3.3642,-3.4394,-3.522,-3.548,-3.6422,-3.7914,-3.8483,-3.9299,-4.0291,-4.043,-4.0566,-4.0796,-4.2297,-4.3028,-4.3374,-4.497,-4.5586,-4.5586,-4.5586,-4.5586,-4.5586,-2.419,-2.419,-2.419,-2.419,-2.419,-2.419,-2.419,-2.4061,-2.3914,-2.3841,-2.3602,-2.3529,-2.3804,-2.4043,-2.4135,-2.3969,-2.2703,-2.2134,-2.2648,-2.2666,-2.3107,-2.4153,-2.419,-2.419,-2.419,-2.419,-2.419,-2.419,-2.419,-2.419,-2.419,-2.419,-2.419,-2.419,-2.419,-2.419,-2.419,-2.419,-2.419,-2.419,-2.419,-2.419,-2.419,-2.419,-2.419,-2.4208,-2.4337,-2.474,-2.5256,-2.5513,-2.5952,-2.6557,-2.7365,-2.7603,-2.7769,-2.8594,-2.8741,-2.8627,-2.8627,-2.87,-2.8851,-2.9026,-2.9225,-2.9351,-2.916,-2.9267,-2.933,-2.9112,-2.904,-2.8994,-2.8994,-2.8994,-2.8994,-2.8994,-2.8994,-2.8994,-2.8994,0.0,-3.0063,-3.0191,-3.0797,-3.1531,-3.2339,-3.2412,-3.2981,-3.4357,-3.3807,-3.3715,-3.4385,-3.3807,-3.3421,-3.3421,-3.2889,-3.3256,-3.4605,-3.4734,-3.5257,-3.6101,-3.614,-3.6777,-3.7914,-3.8305,-3.9423,-4.1093,-4.0696,-4.0912,-4.1623,-4.1893,-4.2701,-4.3893,-4.5105,-4.5586,-4.5586,-4.5586,-4.5586,-4.5586,-2.419,-2.419,-2.419,-2.419,-2.419,-2.419,-2.419,-2.419,-2.419,-2.419,-2.419,-2.419,-2.419,-2.419,-2.419,-2.419,-2.3511,-2.2868,-2.2391,-2.3052,-2.3676,-2.4171,-2.419,-2.419,-2.419,-2.419,-2.419,-2.419,-2.419,-2.419,-2.419,-2.419,-2.419,-2.419,-2.419,-2.419,-2.419,-2.419,-2.419,-2.419,-2.419,-2.419,-2.4245,-2.4667,-2.4832,-2.4961,-2.5823,-2.6098,-2.6172,-2.7053,-2.7291,-2.7383,-2.8191,-2.8448,-2.8521,-2.8906,-2.8994,-2.8994,-2.8994,-2.8994,-2.9085,-2.9549,-2.9734,-2.9913,-3.0215,-3.0401,-3.0429,-3.0325,-3.0283,-3.0283,-3.0283,-3.0283,-3.0283,-3.0283,-3.0283,-3.0283,-3.0283,-3.0613,-3.0999,-3.1439,-3.1825,-3.254,-3.3762,-3.3872,-3.4183,-3.4935,-3.5092,-3.511,-3.5009,-3.5092,-3.5147,-3.5147,-3.4339,-3.4458,-3.5697,-3.5716,-3.6119,-3.6945,-3.6945,-3.7448,-3.8376,-3.9085,-4.0037,-4.1095,-4.1418,-4.1928,-4.2527,-4.297,-4.3528,-4.4201,-4.5201,-4.5586,-4.5586,-4.5586,-4.5586,-4.5586,-2.419,-2.419,-2.419,-2.419,-2.419,-2.419,-2.419,-2.419,-2.419,-2.419,-2.419,-2.419,-2.419,-2.419,-2.419,-2.419,-2.419,-2.3676,-2.2428,-2.3511,-2.419,-2.419,-2.419,-2.419,-2.419,-2.419,-2.419,-2.419,-2.419,-2.419,-2.419,-2.419,-2.419,-2.419,-2.419,-2.419,-2.419,-2.419,-2.419,-2.419,-2.419,-2.419,-2.4281,-2.509,-2.5403,-2.5605,-2.6998,-2.7236,-2.7071,-2.8301,-2.8429,-2.8191,-2.8815,-2.9122,-2.9292,-2.9292,-2.942,-2.9531,-2.9347,-2.9439,-2.9714,-3.032,-3.0485,-3.0632,-3.1256,-3.1384,-3.1384,-3.1384,-3.1384,-3.1384,-3.1384,-3.1384,-3.1384,-3.1384,0.0,-3.1384,-3.1384,-3.1549,-3.1916,-3.254,-3.2779,-3.3458,-3.4844,-3.499,-3.5155,-3.5569,-3.6028,-3.6083,-3.5624,-3.6046,-3.6376,-3.656,-3.5752,-3.5716,-3.656,-3.6578,-3.6982,-3.7771,-3.7955,-3.8419,-3.9116,-4.015,-4.091,-4.1496,-4.2098,-4.2716,-4.3288,-4.371,-4.4053,-4.4374,-4.5028,-4.5413,-4.5586,-4.5586,-4.5586,-4.5586,-2.419,-2.419,-2.419,-2.419,-2.419,-2.419,-2.419,-2.419,-2.419,-2.419,-2.419,-2.419,-2.419,-2.419,-2.419,-2.419,-2.419,-2.4153,-2.4025,-2.4135,-2.419,-2.419,-2.419,-2.419,-2.419,-2.419,-2.419,-2.419,-2.419,-2.419,-2.419,-2.419,-2.419,-2.419,-2.419,-2.419,-2.419,-2.419,-2.419,-2.419,-2.419,-2.419,-2.4281,-2.509,-2.5403,-2.5513,-2.6374,-2.7126,-2.7732,-2.7842,-2.8338,-2.892,-2.8975,-2.9512,-3.0118,-3.0118,-3.0632,-3.1054,-3.032,-3.065,-3.1237,-3.1292,-3.1311,-3.1329,-3.1384,-3.1384,-3.1384,-3.1384,-3.1384,-3.1384,-3.1384,-3.1384,-3.1384,-3.1384,0.0,0.0,-3.1384,-3.2045,-3.254,-3.2596,-3.3256,-3.4064,-3.4917,-3.499,-3.5661,-3.7184,-3.667,-3.6597,-3.7276,-3.667,-3.6633,-3.7397,-3.6615,-3.6578,-3.7386,-3.7404,-3.7808,-3.8615,-3.9368,-3.9914,-4.0309,-4.1119,-4.2089,-4.3077,-4.2353,-4.2673,-4.3706,-4.2943,-4.3293,-4.4316,-4.4374,-4.4893,-4.5586,-4.5586,-4.5586,-4.5586,-2.419,-2.419,-2.419,-2.419,-2.419,-2.419,-2.419,-2.419,-2.419,-2.419,-2.419,-2.419,-2.419,-2.419,-2.419,-2.419,-2.419,-2.419,-2.419,-2.419,-2.419,-2.419,-2.419,-2.419,-2.419,-2.419,-2.419,-2.419,-2.419,-2.419,-2.419,-2.419,-2.419,-2.419,-2.419,-2.4483,-2.4924,-2.4924,-2.5217,-2.5695,-2.5695,-2.5695,-2.5786,-2.6576,-2.6888,-2.6979,-2.7805,-2.8282,-2.8631,-2.9127,-2.9494,-2.9843,-3.0338,-3.0705,-3.0944,-3.0944,-3.1342,-3.1701,-3.1393,-3.1378,-3.1513,-3.2027,-3.1954,-3.1983,-3.2708,-3.2482,-3.2157,-3.2454,-3.2293,-3.2175,-3.2454,-3.2928,-3.333,-3.3588,0.0,-3.4431,-3.4431,-3.4706,-3.489,-3.489,-3.5165,-3.5661,-3.6468,-3.6541,-3.6798,-3.747,-3.7679,-3.7698,-3.7496,-3.7679,-3.7936,-3.823,-3.7955,-3.7936,-3.823,-3.823,-3.8652,-3.9441,-3.9753,-4.0233,-4.0868,-4.1667,-4.2377,-4.2978,-4.3175,-4.363,-4.4289,-4.4064,-4.4296,-4.4805,-4.5033,-4.5297,-4.5586,-4.5586,-4.5586,-4.5586,-2.3602,-2.3935,-2.419,-2.419,-2.419,-2.419,-2.419,-2.419,-2.4054,-2.3664,-2.3602,-2.3667,-2.3876,-2.4074,-2.419,-2.419,-2.419,-2.419,-2.419,-2.419,-2.419,-2.419,-2.419,-2.419,-2.419,-2.419,-2.419,-2.419,-2.419,-2.419,-2.4208,-2.4447,-2.4575,-2.4575,-2.4832,-2.5254,-2.5768,-2.5768,-2.6098,-2.6612,-2.6612,-2.6612,-2.6686,-2.7493,-2.7787,-2.7934,-2.9017,-2.936,-2.9512,-3.032,-3.0503,-3.0476,-3.1024,-3.1273,-3.1429,-3.1665,-3.1939,-3.2163,-3.2163,-3.1975,-3.1883,-3.2446,-3.2372,-3.2421,-3.3513,-3.3261,-3.3009,-3.3552,-3.3392,-3.3293,-3.3605,-3.4263,-3.4847,-3.5089,-3.5795,-3.6303,-3.6303,-3.6303,-3.6303,-3.6303,-3.6303,-3.6615,-3.7434,-3.7507,-3.7588,-3.7845,-3.8395,-3.8469,-3.79,-3.8634,-3.9074,-3.9074,-3.9331,-3.946,-3.946,-3.9203,-3.9478,-4.0286,-4.0524,-4.0993,-4.1654,-4.2353,-4.2881,-4.3197,-4.3652,-4.4046,-4.4401,-4.4455,-4.4688,-4.5077,-4.5457,-4.5586,-4.5586,-4.5586,-4.5586,-4.5586,-2.231,-2.333,-2.419,-2.419,-2.419,-2.419,-2.419,-2.419,-2.375,-2.247,-2.231,-2.2535,-2.3135,-2.3795,-2.419,-2.419,-2.419,-2.419,-2.419,-2.419,-2.419,-2.419,-2.419,-2.419,-2.419,-2.419,-2.419,-2.419,-2.419,-2.419,-2.4226,-2.5035,-2.5421,-2.5439,-2.6245,-2.6612,-2.6612,-2.6612,-2.6612,-2.6631,-2.6631,-2.6631,-2.6722,-2.7512,-2.7824,-2.8026,-2.9641,-3.021,-3.0338,-3.1127,-3.1128,-3.08,-3.08,-3.1041,-3.1476,-3.2254,-3.2484,-3.2484,-3.2484,-3.2484,-3.2484,-3.2484,-3.2484,-3.2696,-3.3439,-3.3581,-3.3811,-3.4553,-3.4676,-3.4676,-3.4676,-3.513,-3.5515,-3.5515,-3.5982,-3.6321,-3.634,-3.634,-3.634,-3.634,-3.634,-3.6652,-3.7452,-3.7514,-3.7845,-3.8652,-3.8707,-3.8707,-3.8707,-3.946,-3.99,-3.99,-4.0689,-4.1111,-4.113,-4.0304,-4.0304,-4.113,-4.1919,-4.2479,-4.2805,-4.3277,-4.366,-4.3986,-4.3646,-4.3693,-4.3986,-4.3646,-4.4046,-4.4928,-4.5419,-4.5586,-4.5586,-4.5586,-4.5586,-4.5586,-2.231,-2.333,-2.419,-2.419,-2.419,-2.419,-2.419,-2.419,-2.4054,-2.3667,-2.2841,-2.2377,-2.2561,-2.2756,-2.2884,-2.2884,-2.2884,-2.3259,-2.4151,-2.419,-2.419,-2.419,-2.419,-2.419,-2.419,-2.419,-2.419,-2.419,-2.419,-2.4593,-2.5328,-2.5566,-2.5878,-2.6245,-2.6502,-2.6906,-2.7438,-2.7438,-2.7769,-2.8278,-2.8278,-2.8278,-2.8374,-2.9182,-2.9475,-2.9622,-3.0668,-3.1035,-3.1121,-3.1647,-3.1753,-3.1672,-3.192,-3.2051,-3.2183,-3.2413,-3.2282,-3.1986,-3.1986,-3.2187,-3.2369,-3.2491,-3.2669,-3.2983,-3.3511,-3.3517,-3.3635,-3.4154,-3.4012,-3.3894,-3.4245,-3.529,-3.6353,-3.7088,-3.8215,-3.9179,-3.9598,-3.968,-3.968,-3.968,-3.968,-3.9551,-3.9221,-3.9166,-3.9038,-3.8726,-3.9221,-3.9533,-3.9533,-4.0304,-4.0744,-4.0744,-4.0983,-4.1387,-4.1937,-4.1148,-4.1148,-4.1937,-4.2194,-4.2647,-4.3295,-4.3437,-4.3529,-4.3646,-4.3548,-4.3582,-4.3646,-4.3548,-4.3974,-4.4757,-4.5362,-4.5586,-4.5586,-4.5586,-4.5586,-4.5586,-2.231,-2.2917,-2.3445,-2.3445,-2.3445,-2.3445,-2.3445,-2.3445,-2.3445,-2.3445,-2.2782,-2.231,-2.231,-2.231,-2.231,-2.231,-2.2508,-2.3098,-2.4132,-2.419,-2.419,-2.419,-2.419,-2.419,-2.419,-2.419,-2.419,-2.419,-2.5474,-2.6098,-2.6117,-2.6337,-2.6612,-2.6943,-2.7365,-2.7824,-2.8282,-2.8282,-2.8558,-2.9012,-2.9342,-2.9475,-2.9567,-3.0375,-3.0668,-3.0779,-3.1586,-3.1759,-3.1737,-3.2296,-3.2253,-3.193,-3.1969,-3.1986,-3.1986,-3.1986,-3.1977,-3.2012,-3.2012,-3.2361,-3.2757,-3.2827,-3.2993,-3.3309,-3.3821,-3.3894,-3.4084,-3.4959,-3.4942,-3.4914,-3.5489,-3.65,-3.7492,-3.8096,-3.9126,-3.9998,-4.0384,-4.042,-4.042,-4.042,-4.042,-4.0239,-3.975,-3.9888,-3.9926,-3.9667,-4.0102,-4.0377,-4.0377,-4.1148,-4.1589,-4.1589,-4.1882,-4.2286,-4.2763,-4.2286,-4.2286,-4.2763,-4.2763,-4.302,-4.3497,-4.3497,-4.3497,-4.3497,-4.3497,-4.3497,-4.3497,-4.3497,-4.3758,-4.4213,-4.4594,-4.4992,-4.5323,-4.5381,-4.5495,-4.5586,-2.231,-2.231,-2.231,-2.231,-2.231,-2.231,-2.231,-2.231,-2.231,-2.231,-2.231,-2.231,-2.231,-2.231,-2.231,-2.231,-2.2798,-2.3387,-2.3976,-2.4034,-2.4074,-2.4208,-2.4483,-2.463,-2.463,-2.463,-2.463,-2.463,-2.7567,-2.8242,-2.6833,-2.7328,-2.7548,-2.7603,-2.8553,-2.9049,-2.9145,-2.9104,-2.914,-2.9292,-3.0008,-3.032,-3.0393,-3.1157,-3.1469,-3.1604,-3.2334,-3.2392,-3.2198,-3.2871,-3.2466,-3.1696,-3.1329,-3.119,-3.119,-3.119,-3.1698,-3.2313,-3.2313,-3.2882,-3.3508,-3.3592,-3.3609,-3.3778,-3.4438,-3.4641,-3.5115,-3.6586,-3.6874,-3.7094,-3.7787,-3.8277,-3.8666,-3.8711,-3.9178,-3.9564,-3.9623,-3.9605,-3.9605,-3.9605,-3.9605,-3.9587,-3.9517,-3.992,-4.0437,-4.0994,-4.1134,-4.1222,-4.1222,-4.1974,-4.2415,-4.2415,-4.3112,-4.3497,-4.3497,-4.3497,-4.3497,-4.3497,-4.3497,-4.3497,-4.3497,-4.3497,-4.3497,-4.3497,-4.3497,-4.3497,-4.3497,-4.3497,-4.3497,-4.3497,-4.3497,-4.4076,-4.4881,-4.5033,-4.5322,-4.5586,-2.231,-2.231,-2.231,-2.231,-2.231,-2.231,-2.231,-2.231,-2.231,-2.231,-2.231,-2.231,-2.231,-2.231,-2.231,-2.231,-2.2415,-2.2561,-2.2703,-2.2703,-2.3164,-2.4151,-2.6612,-2.797,-2.797,-2.797,-2.797,-2.797,-2.8645,-2.881,-2.848,-2.859,-2.8645,-2.8645,-2.8883,-2.9475,-3.0228,-3.0026,-3.0301,-3.0889,-3.1072,-3.1127,-3.1194,-3.1692,-3.2083,-3.2371,-3.2475,-3.2683,-3.2841,-3.2313,-3.177,-3.1312,-3.123,-3.119,-3.119,-3.119,-3.1698,-3.2313,-3.2313,-3.3254,-3.4404,-3.4996,-3.5131,-3.5182,-3.5351,-3.5842,-3.6552,-3.7466,-3.7669,-3.7719,-3.7872,-3.8458,-3.9067,-3.9461,-4.0127,-4.0717,-4.1213,-4.1297,-4.1297,-4.1297,-4.1297,-4.1025,-4.0382,-4.028,-4.0257,-4.0402,-4.1423,-4.2047,-4.2047,-4.28,-4.3222,-4.3222,-4.3406,-4.3497,-4.3497,-4.3497,-4.3497,-4.3497,-4.3497,-4.3497,-4.3497,-4.3497,-4.3497,-4.3497,-4.3497,-4.3497,-4.3497,-4.3497,-4.3497,-4.3497,-4.3497,-4.3992,-4.4707,-4.4988,-4.5322,-4.5586,-2.231,-2.231,-2.231,-2.231,-2.231,-2.231,-2.231,-2.231,-2.231,-2.231,-2.231,-2.231,-2.231,-2.231,-2.231,-2.231,-2.2859,-2.3212,-2.3212,-2.2642,-2.3241,-2.5288,-2.7004,-2.7918,-2.7918,-2.7918,-2.8264,-2.8994,-2.8994,-2.8994,-2.8994,-2.8994,-2.9193,-2.9512,-2.9162,-2.9521,-3.0387,-3.0604,-3.0767,-3.082,-3.1429,-3.1547,-3.1433,-3.2264,-3.2552,-3.2547,-3.2488,-3.25,-3.2433,-3.1733,-3.1372,-3.119,-3.119,-3.1427,-3.1715,-3.1715,-3.2493,-3.3423,-3.3778,-3.4709,-3.5757,-3.6518,-3.6721,-3.6721,-3.6721,-3.6738,-3.7094,-3.8193,-3.843,-3.8531,-3.887,-3.9242,-3.9644,-3.9884,-4.0288,-4.0625,-4.0938,-4.0984,-4.0984,-4.0984,-4.0984,-4.0902,-4.0771,-4.0902,-4.1071,-4.1375,-4.2303,-4.2873,-4.2873,-4.3259,-4.3497,-4.3497,-4.3497,-4.3497,-4.3497,-4.3497,-4.3497,-4.3497,-4.3497,-4.3497,-4.3497,-4.3497,-4.3497,-4.3497,-4.3497,-4.3497,-4.3497,-4.3497,-4.3497,-4.3497,-4.3497,-4.3868,-4.4455,-4.4853,-4.5263,-4.5586,-2.231,-2.231,-2.231,-2.231,-2.231,-2.231,-2.231,-2.231,-2.231,-2.231,-2.231,-2.231,-2.231,-2.2767,-2.2852,-2.2344,-2.3283,-2.4091,-2.4574,-2.365,-2.4137,-2.659,-2.6691,-2.6691,-2.6691,-2.6691,-2.7452,-2.8994,-2.8994,-2.8994,-2.8994,-2.8725,-2.8936,-2.9509,-2.943,-2.9579,-2.9951,-3.0889,-3.0991,-3.0596,-3.1655,-3.1844,-3.1614,-3.259,-3.2777,-3.2502,-3.2457,-3.2282,-3.2001,-3.1703,-3.1579,-3.1579,-3.1579,-3.1985,-3.2476,-3.2476,-3.3525,-3.481,-3.5453,-3.6282,-3.7161,-3.7905,-3.799,-3.7973,-3.8227,-3.7702,-3.755,-3.8903,-3.9174,-3.936,-3.9969,-4.007,-4.007,-4.007,-4.007,-4.007,-4.007,-4.007,-4.007,-4.007,-4.007,-4.0286,-4.0733,-4.1402,-4.1997,-4.2519,-4.3124,-4.3497,-4.3497,-4.3497,-4.3497,-4.3497,-4.3497,-4.3497,-4.3497,-4.3497,-4.3497,-4.3497,-4.3497,-4.3497,-4.3497,-4.3497,-4.3497,-4.3497,-4.3497,-4.3497,-4.3497,-4.3497,-4.3497,-4.3497,-4.3497,-4.3804,-4.4346,-4.4834,-4.5283,-4.5586,-2.231,-2.231,-2.231,-2.231,-2.231,-2.231,-2.231,-2.231,-2.231,-2.231,-2.231,-2.231,-2.231,-2.4577,-2.5084,-2.253,-2.246,-2.363,-2.6168,-2.6213,-2.6268,-2.6674,-2.6691,-2.6691,-2.6691,-2.6691,-2.7452,-2.8994,-2.8994,-2.8994,-2.8952,-2.7631,-2.7057,-2.7282,-2.9775,-3.0253,-2.9244,-3.0705,-3.165,-3.2183,-3.2355,-3.2391,-3.2292,-3.2092,-3.2196,-3.2472,-3.238,-3.2689,-3.3168,-3.3102,-3.3102,-3.3102,-3.3102,-3.3169,-3.3254,-3.3254,-3.4303,-3.5487,-3.5588,-3.6671,-3.7922,-3.8667,-3.8379,-3.8227,-3.9495,-3.9225,-3.8937,-3.9766,-3.9935,-3.9969,-4.0054,-4.007,-4.007,-4.007,-4.007,-4.007,-4.007,-4.007,-4.007,-4.007,-4.007,-4.0121,-4.0204,-4.115,-4.1835,-4.1895,-4.2903,-4.3497,-4.3497,-4.3497,-4.3497,-4.3497,-4.3497,-4.3497,-4.3497,-4.3497,-4.3497,-4.3497,-4.3497,-4.3497,-4.3497,-4.3497,-4.3497,-4.3497,-4.3497,-4.3497,-4.3497,-4.3497,-4.3497,-4.3497,-4.3497,-4.3931,-4.4631,-4.5263,-4.555,-4.5586,-2.231,-2.363,-2.4239,-2.2598,-2.231,-2.231,-2.231,-2.231,-2.2902,-2.4543,-2.4763,-2.4763,-2.4763,-2.5913,-2.6167,-2.4864,-2.4763,-2.5304,-2.6607,-2.6691,-2.6691,-2.6691,-2.6691,-2.7097,-2.796,-2.7977,-2.8305,-2.9009,-2.8141,-2.7718,-2.7701,-2.7019,-2.7588,-2.9262,-3.0598,-3.0835,-3.0264,-3.0947,-3.144,-3.1787,-3.2004,-3.1968,-3.1787,-3.1789,-3.2066,-3.2438,-3.2791,-3.3119,-3.3406,-3.3406,-3.3406,-3.3406,-3.3406,-3.3677,-3.41,-3.4523,-3.5419,-3.6451,-3.728,-3.8007,-3.8684,-3.9411,-3.936,-3.9292,-3.9935,-3.9834,-3.9698,-4.0003,-4.007,-4.007,-4.007,-4.007,-4.0206,-4.0646,-4.0358,-4.0223,-4.0646,-4.0341,-4.007,-4.007,-4.007,-4.007,-4.007,-4.0844,-4.1446,-4.175,-4.266,-4.3108,-4.305,-4.3526,-4.3559,-4.3087,-4.3432,-4.3616,-4.3497,-4.3497,-4.3497,-4.3497,-4.3497,-4.3497,-4.3497,-4.3497,-4.3497,-4.3497,-4.3497,-4.3497,-4.3497,-4.3497,-4.3497,-4.3497,-4.3497,-4.4175,-4.5182,-4.5495,-4.5586,-4.5586]}]]